[[{"header":{"parameterUnit":"m.s-1","parameterCategory":1,"la1":30.6,"la2":29.2853,"lo1":-89.7004,"lo2":-87.6739,"dx":0.0162,"dy":0.0183,"nx":112,"ny":82,"refTime":"2023-02-13T06:00:00:Z","depth":0,"parameterNumber":2,"parameterNumberName":"U-component_of_WINDS"},"data":[0.0,0.0,0.0,0.0,0.0,0.0,0.0,0.0,0.0,0.0,0.0,0.0,0.0,0.0,0.0,0.0,0.0,0.0,0.0,0.0,0.0,0.0,0.0,0.0,0.0,0.0,0.0,0.0,0.0,0.0,0.0,0.0,0.0,0.0,0.0,0.0,0.0,0.0,0.0,0.0,0.0,0.0,0.0,0.0,0.0,0.0,0.0,0.0,0.0,0.0,0.0,0.0,0.0,0.0,0.0,0.0,0.0,0.0,0.0,0.0,0.0,0.0,0.0,0.0,0.0,0.0,0.0,0.0,0.0,0.0,0.0,0.0,0.0,0.0,0.0,0.0,0.0,0.0,0.0,0.0,0.0,0.0,0.0,0.0,0.0,0.0,0.0,0.0,0.0,0.0,0.0,8.1061,8.1093,8.1093,8.1093,8.1093,8.0893,8.0428,0.0,0.0,0.0,0.0,0.0,0.0,0.0,0.0,0.0,0.0,0.0,0.0,0.0,0.0,0.0,0.0,0.0,0.0,0.0,0.0,0.0,0.0,0.0,0.0,0.0,0.0,0.0,0.0,0.0,0.0,0.0,0.0,0.0,0.0,0.0,0.0,0.0,0.0,0.0,0.0,0.0,0.0,0.0,0.0,0.0,0.0,0.0,0.0,0.0,0.0,0.0,0.0,0.0,0.0,0.0,0.0,0.0,0.0,0.0,0.0,0.0,0.0,0.0,0.0,0.0,0.0,0.0,0.0,0.0,0.0,0.0,0.0,0.0,0.0,0.0,0.0,0.0,0.0,0.0,0.0,0.0,0.0,0.0,0.0,0.0,0.0,0.0,0.0,0.0,0.0,0.0,0.0,0.0,0.0,0.0,0.0,0.0,0.0,0.0,0.0,0.0,0.0,0.0,0.0,8.1029,8.1093,8.1093,8.1093,8.1093,8.1093,8.0893,8.0428,0.0,0.0,0.0,0.0,0.0,0.0,0.0,0.0,0.0,0.0,0.0,0.0,0.0,0.0,0.0,0.0,0.0,0.0,0.0,0.0,0.0,0.0,0.0,0.0,0.0,0.0,0.0,0.0,0.0,0.0,0.0,0.0,0.0,0.0,0.0,0.0,0.0,0.0,0.0,0.0,0.0,0.0,0.0,0.0,0.0,0.0,0.0,0.0,0.0,0.0,0.0,0.0,0.0,0.0,0.0,0.0,0.0,0.0,0.0,0.0,0.0,0.0,0.0,0.0,0.0,0.0,0.0,0.0,0.0,0.0,0.0,0.0,0.0,0.0,0.0,0.0,0.0,0.0,0.0,0.0,0.0,0.0,0.0,0.0,0.0,0.0,0.0,0.0,0.0,0.0,0.0,0.0,0.0,0.0,0.0,0.0,0.0,0.0,0.0,0.0,0.0,0.0,0.0,8.0959,8.1093,8.1093,8.1093,8.1093,8.1093,8.1093,8.0893,8.0428,8.0391,0.0,0.0,0.0,0.0,0.0,0.0,0.0,0.0,0.0,0.0,0.0,0.0,0.0,0.0,0.0,0.0,0.0,0.0,0.0,0.0,0.0,0.0,0.0,0.0,0.0,0.0,0.0,0.0,0.0,0.0,0.0,0.0,0.0,0.0,0.0,0.0,0.0,0.0,0.0,0.0,0.0,0.0,0.0,0.0,0.0,0.0,0.0,0.0,0.0,0.0,0.0,0.0,0.0,0.0,0.0,0.0,0.0,0.0,0.0,0.0,0.0,0.0,0.0,0.0,0.0,0.0,0.0,0.0,0.0,0.0,0.0,0.0,0.0,0.0,0.0,0.0,0.0,0.0,0.0,0.0,0.0,0.0,0.0,0.0,0.0,0.0,0.0,0.0,0.0,0.0,0.0,0.0,0.0,0.0,0.0,0.0,0.0,0.0,0.0,0.0,0.0,0.0,8.1093,8.1093,8.1093,8.1093,8.1093,8.1093,8.1093,8.0959,8.0576,8.0467,0.0,0.0,0.0,0.0,0.0,0.0,0.0,0.0,0.0,0.0,0.0,0.0,0.0,0.0,0.0,0.0,0.0,0.0,0.0,0.0,0.0,0.0,0.0,0.0,0.0,0.0,0.0,0.0,0.0,0.0,0.0,0.0,0.0,0.0,0.0,0.0,0.0,0.0,0.0,0.0,0.0,0.0,0.0,0.0,0.0,0.0,0.0,0.0,0.0,0.0,0.0,0.0,0.0,0.0,0.0,0.0,0.0,0.0,0.0,0.0,0.0,0.0,0.0,0.0,0.0,0.0,0.0,0.0,0.0,0.0,0.0,0.0,0.0,0.0,0.0,0.0,0.0,0.0,0.0,0.0,0.0,0.0,0.0,0.0,0.0,0.0,0.0,0.0,0.0,0.0,0.0,0.0,0.0,0.0,0.0,0.0,0.0,0.0,0.0,0.0,0.0,0.0,8.1093,8.1093,8.1093,8.1093,8.1093,8.1093,8.1093,8.1093,8.1061,8.0646,0.0,0.0,0.0,0.0,0.0,0.0,0.0,0.0,0.0,0.0,0.0,0.0,0.0,0.0,0.0,0.0,0.0,0.0,0.0,0.0,0.0,0.0,0.0,0.0,0.0,0.0,0.0,0.0,0.0,0.0,0.0,0.0,0.0,0.0,0.0,0.0,0.0,0.0,0.0,0.0,0.0,0.0,0.0,0.0,0.0,0.0,0.0,0.0,0.0,0.0,0.0,0.0,0.0,0.0,0.0,0.0,0.0,0.0,0.0,0.0,0.0,0.0,0.0,0.0,0.0,0.0,0.0,0.0,0.0,0.0,0.0,0.0,0.0,0.0,0.0,0.0,0.0,0.0,0.0,0.0,0.0,0.0,0.0,0.0,0.0,0.0,0.0,0.0,0.0,0.0,0.0,0.0,0.0,0.0,0.0,0.0,0.0,0.0,0.0,0.0,0.0,0.0,8.1093,8.1093,0.0,8.1093,8.1285,8.1823,8.1862,8.1958,8.2214,0.0,0.0,0.0,0.0,0.0,0.0,0.0,0.0,0.0,0.0,0.0,0.0,0.0,0.0,0.0,0.0,0.0,0.0,0.0,0.0,0.0,0.0,0.0,0.0,0.0,0.0,0.0,0.0,0.0,0.0,0.0,0.0,0.0,0.0,0.0,0.0,0.0,0.0,0.0,0.0,0.0,0.0,0.0,0.0,0.0,0.0,0.0,0.0,0.0,0.0,0.0,0.0,0.0,0.0,0.0,0.0,0.0,0.0,0.0,0.0,0.0,0.0,0.0,0.0,0.0,0.0,0.0,0.0,0.0,0.0,0.0,0.0,0.0,0.0,0.0,0.0,0.0,0.0,0.0,0.0,0.0,0.0,0.0,0.0,0.0,0.0,0.0,0.0,0.0,0.0,0.0,0.0,0.0,0.0,0.0,0.0,0.0,0.0,0.0,0.0,0.0,0.0,8.1477,8.1708,8.19,0.0,8.19,8.2131,8.267,8.2708,8.2842,8.3098,0.0,0.0,0.0,0.0,0.0,0.0,0.0,0.0,0.0,0.0,0.0,0.0,0.0,0.0,0.0,0.0,0.0,0.0,0.0,0.0,0.0,0.0,0.0,0.0,0.0,0.0,0.0,0.0,0.0,0.0,0.0,0.0,0.0,0.0,0.0,0.0,0.0,0.0,0.0,0.0,0.0,0.0,0.0,0.0,0.0,0.0,0.0,0.0,0.0,0.0,0.0,0.0,0.0,0.0,0.0,0.0,0.0,0.0,0.0,0.0,0.0,0.0,0.0,0.0,0.0,0.0,0.0,0.0,0.0,0.0,0.0,0.0,0.0,0.0,0.0,0.0,0.0,0.0,0.0,0.0,0.0,0.0,0.0,0.0,0.0,0.0,0.0,0.0,0.0,0.0,0.0,0.0,0.0,0.0,0.0,0.0,0.0,0.0,0.0,0.0,0.0,0.0,8.2324,8.3054,8.3593,8.3593,8.3593,8.3593,8.3593,8.3593,8.3593,0.0,0.0,0.0,0.0,0.0,0.0,0.0,0.0,0.0,0.0,0.0,0.0,0.0,0.0,0.0,0.0,0.0,0.0,0.0,0.0,0.0,0.0,0.0,0.0,0.0,0.0,0.0,0.0,0.0,0.0,0.0,0.0,0.0,0.0,0.0,0.0,0.0,0.0,0.0,0.0,0.0,0.0,0.0,0.0,0.0,0.0,0.0,0.0,0.0,0.0,0.0,0.0,0.0,0.0,0.0,0.0,0.0,0.0,0.0,0.0,0.0,0.0,0.0,0.0,0.0,0.0,0.0,0.0,0.0,0.0,0.0,0.0,0.0,0.0,0.0,0.0,0.0,0.0,0.0,0.0,0.0,0.0,0.0,0.0,0.0,0.0,0.0,0.0,0.0,0.0,0.0,0.0,0.0,0.0,0.0,0.0,0.0,0.0,0.0,0.0,0.0,0.0,0.0,0.0,8.3439,8.3593,8.3593,8.3593,8.3862,8.4478,8.4516,8.4747,8.5324,0.0,0.0,0.0,0.0,0.0,0.0,0.0,0.0,0.0,0.0,0.0,0.0,0.0,0.0,0.0,0.0,0.0,0.0,0.0,0.0,0.0,0.0,0.0,0.0,0.0,0.0,0.0,0.0,0.0,0.0,0.0,0.0,0.0,0.0,0.0,0.0,0.0,0.0,0.0,0.0,0.0,0.0,0.0,0.0,0.0,0.0,0.0,0.0,0.0,0.0,0.0,0.0,0.0,0.0,0.0,0.0,0.0,0.0,0.0,0.0,0.0,0.0,0.0,0.0,0.0,0.0,0.0,0.0,0.0,0.0,0.0,0.0,0.0,0.0,0.0,0.0,0.0,0.0,0.0,0.0,0.0,0.0,0.0,0.0,0.0,0.0,0.0,0.0,0.0,0.0,0.0,0.0,0.0,0.0,0.0,0.0,0.0,0.0,0.0,0.0,0.0,0.0,8.4132,8.4401,8.4593,8.4593,8.4593,8.4824,8.5324,8.5401,8.5593,8.6055,0.0,0.0,0.0,0.0,0.0,0.0,0.0,0.0,0.0,0.0,0.0,0.0,0.0,0.0,0.0,0.0,0.0,0.0,0.0,0.0,0.0,0.0,0.0,0.0,0.0,0.0,0.0,0.0,0.0,0.0,0.0,0.0,0.0,0.0,0.0,0.0,0.0,0.0,0.0,0.0,0.0,0.0,0.0,0.0,0.0,0.0,0.0,0.0,0.0,0.0,0.0,0.0,0.0,0.0,0.0,0.0,0.0,0.0,0.0,0.0,0.0,0.0,0.0,0.0,0.0,0.0,0.0,0.0,0.0,0.0,0.0,0.0,0.0,0.0,0.0,0.0,0.0,0.0,0.0,0.0,0.0,0.0,0.0,0.0,0.0,0.0,0.0,0.0,0.0,0.0,0.0,0.0,0.0,0.0,0.0,0.0,0.0,0.0,0.0,0.0,0.0,0.0,8.5016,8.567,8.6094,8.6094,8.6094,8.6094,8.6094,8.6094,8.6094,8.6094,0.0,0.0,0.0,0.0,0.0,0.0,0.0,0.0,0.0,0.0,0.0,0.0,0.0,0.0,0.0,0.0,0.0,0.0,0.0,0.0,0.0,0.0,0.0,0.0,0.0,0.0,0.0,0.0,0.0,0.0,0.0,0.0,0.0,0.0,0.0,0.0,0.0,0.0,0.0,0.0,0.0,0.0,0.0,0.0,0.0,0.0,0.0,0.0,0.0,0.0,0.0,0.0,0.0,0.0,0.0,0.0,0.0,0.0,0.0,0.0,8.1093,0.0,0.0,0.0,0.0,0.0,0.0,0.0,0.0,0.0,0.0,0.0,0.0,0.0,0.0,0.0,0.0,0.0,0.0,0.0,0.0,0.0,0.0,0.0,0.0,0.0,0.0,0.0,0.0,0.0,0.0,0.0,0.0,0.0,0.0,0.0,0.0,0.0,0.0,0.0,0.0,0.0,8.5863,8.5978,8.6094,8.6094,8.6094,8.6094,8.6094,8.6094,8.6094,8.6094,0.0,0.0,0.0,0.0,0.0,0.0,0.0,0.0,0.0,0.0,0.0,0.0,0.0,0.0,0.0,0.0,0.0,0.0,0.0,0.0,0.0,0.0,0.0,0.0,0.0,0.0,0.0,0.0,0.0,0.0,0.0,0.0,0.0,0.0,0.0,0.0,0.0,0.0,0.0,0.0,0.0,0.0,0.0,0.0,0.0,0.0,0.0,0.0,0.0,0.0,0.0,0.0,0.0,0.0,0.0,0.0,0.0,0.0,0.0,0.0,0.0,8.1323,0.0,0.0,0.0,0.0,0.0,0.0,0.0,0.0,0.0,0.0,0.0,0.0,0.0,0.0,0.0,0.0,0.0,0.0,0.0,0.0,0.0,0.0,0.0,0.0,0.0,0.0,0.0,0.0,0.0,0.0,0.0,0.0,0.0,0.0,0.0,0.0,0.0,0.0,0.0,0.0,8.6094,8.6094,8.6094,8.6094,8.6094,8.6094,8.6094,8.6094,8.6094,8.6094,8.6094,0.0,0.0,0.0,0.0,0.0,0.0,0.0,0.0,0.0,0.0,0.0,0.0,0.0,0.0,0.0,0.0,0.0,0.0,0.0,0.0,0.0,0.0,0.0,0.0,0.0,0.0,0.0,0.0,0.0,0.0,0.0,0.0,0.0,0.0,0.0,0.0,0.0,0.0,0.0,0.0,0.0,0.0,0.0,0.0,0.0,0.0,0.0,0.0,0.0,0.0,0.0,0.0,0.0,8.1323,8.1747,8.2516,8.2516,8.2901,8.3516,8.2131,8.19,8.2516,0.0,0.0,0.0,0.0,0.0,0.0,0.0,0.0,0.0,0.0,0.0,0.0,0.0,0.0,0.0,0.0,0.0,0.0,0.0,0.0,0.0,0.0,0.0,0.0,0.0,8.4016,8.4016,0.0,0.0,0.0,0.0,0.0,0.0,0.0,0.0,0.0,0.0,0.0,0.0,8.6094,8.6094,8.6094,8.6094,8.6094,8.6094,8.6094,8.6094,8.6094,8.6094,8.6094,8.6094,0.0,0.0,0.0,0.0,0.0,0.0,0.0,0.0,0.0,0.0,0.0,0.0,0.0,0.0,0.0,0.0,0.0,0.0,0.0,0.0,0.0,0.0,0.0,0.0,0.0,0.0,0.0,0.0,0.0,0.0,0.0,0.0,7.9515,7.9631,0.0,0.0,0.0,0.0,0.0,0.0,0.0,0.0,0.0,0.0,0.0,0.0,0.0,0.0,8.1093,8.1093,8.1439,8.2131,8.2131,8.2593,8.3439,8.3439,8.3478,8.3593,8.3362,0.0,8.3439,8.3439,0.0,0.0,0.0,0.0,0.0,0.0,0.0,0.0,0.0,0.0,0.0,0.0,0.0,0.0,0.0,0.0,0.0,0.0,0.0,0.0,0.0,0.0,8.5786,8.5786,8.5786,8.5786,0.0,8.5209,8.4939,8.5632,0.0,0.0,0.0,0.0,0.0,0.0,0.0,0.0,8.6094,8.6094,8.6094,8.6094,8.6094,8.6094,8.6094,8.6094,8.6094,8.6094,8.6094,8.6094,8.6094,8.6094,0.0,0.0,0.0,0.0,0.0,0.0,0.0,0.0,0.0,0.0,0.0,0.0,0.0,0.0,0.0,0.0,0.0,0.0,0.0,0.0,0.0,0.0,0.0,0.0,0.0,0.0,0.0,0.0,0.0,7.9361,7.9977,8.0477,8.0862,8.1093,0.0,0.0,0.0,0.0,0.0,0.0,0.0,0.0,0.0,8.1093,8.1093,8.1323,8.1785,8.1747,8.217,8.3016,8.3054,8.3478,8.4324,8.4324,8.4555,8.5016,8.5016,8.5016,8.4978,8.4516,8.4593,8.5016,0.0,0.0,0.0,0.0,8.5016,8.5016,8.5016,8.5016,0.0,0.0,0.0,0.0,0.0,0.0,0.0,0.0,0.0,0.0,0.0,0.0,0.0,8.6094,8.6094,8.6094,8.6094,8.5824,8.567,0.0,8.6094,8.6094,8.6094,0.0,0.0,0.0,0.0,0.0,8.6094,8.6094,8.6094,8.6094,8.6094,8.6094,8.6094,8.6094,8.6094,8.6094,8.6094,8.6094,8.6094,8.6094,8.5775,0.0,0.0,0.0,0.0,0.0,0.0,0.0,0.0,0.0,0.0,0.0,0.0,0.0,0.0,0.0,0.0,0.0,0.0,0.0,0.0,0.0,0.0,0.0,0.0,0.0,0.0,0.0,0.0,7.9977,8.0362,8.1016,8.1093,8.1093,0.0,0.0,0.0,0.0,0.0,0.0,8.1093,8.1093,8.117,8.14,8.14,8.1785,8.2624,8.2624,8.3086,8.3933,8.3939,8.4401,8.5209,8.5209,8.5517,8.6094,8.6094,8.6094,8.6055,8.544,8.5555,8.6094,8.6094,8.6094,8.6094,8.6094,8.6094,8.6094,8.6094,8.6094,8.6094,8.6094,0.0,8.6094,8.6094,0.0,0.0,0.0,0.0,8.6094,8.6094,8.6094,8.6094,8.6094,8.6094,8.6094,8.6094,8.6094,8.6094,0.0,8.6094,8.6094,8.6094,0.0,0.0,0.0,0.0,8.6094,8.6094,8.6094,8.6094,8.6094,8.6094,8.6094,8.6094,8.6094,8.6094,8.6094,8.6094,8.6094,8.6094,8.6094,8.5884,8.5397,0.0,0.0,0.0,0.0,0.0,0.0,0.0,0.0,0.0,0.0,0.0,0.0,0.0,0.0,0.0,0.0,0.0,0.0,0.0,0.0,0.0,0.0,0.0,0.0,0.0,0.0,0.0,0.0,0.0,8.1093,8.1093,0.0,0.0,0.0,0.0,8.1093,8.1093,8.1093,8.1093,8.1093,8.1439,8.2201,8.224,8.2663,8.3541,8.3548,8.3971,8.4818,8.4818,8.528,8.6055,8.6055,8.6055,8.6094,8.6094,8.6094,8.6094,8.6055,8.6055,8.6094,8.6094,8.6094,8.6094,8.6094,8.6094,8.6094,8.6094,8.6094,8.6094,8.6094,8.6094,8.6094,8.6094,8.6094,0.0,0.0,8.6094,8.6094,8.6094,8.6094,8.6094,8.6094,8.6094,8.6094,8.6094,8.6094,8.6094,0.0,8.6094,8.6094,8.6094,0.0,8.6094,8.6094,8.6094,8.6094,8.6094,8.6094,8.6094,8.6094,8.6094,8.6094,8.6094,8.6094,8.6094,8.6094,8.6094,8.6094,8.6094,8.6094,8.5884,8.5397,8.4942,0.0,0.0,0.0,0.0,0.0,0.0,0.0,0.0,0.0,0.0,0.0,0.0,0.0,0.0,0.0,0.0,0.0,0.0,0.0,0.0,0.0,0.0,0.0,0.0,0.0,0.0,0.0,0.0,8.1093,8.1093,0.0,0.0,8.1093,8.1093,8.1093,8.1093,8.1323,8.1855,8.1893,8.224,8.3118,8.3125,8.3548,8.4427,8.4427,8.485,8.567,8.567,8.5824,8.6094,8.6094,8.6094,8.6094,8.6094,8.6094,8.6094,8.6094,8.6094,8.6094,8.6094,8.6094,8.6094,8.6094,8.6094,8.6094,8.6094,8.6094,8.6094,8.6094,8.6094,8.6094,8.6094,8.6094,8.6094,8.6094,8.6094,8.6094,8.6094,8.6094,8.6094,8.6094,8.6094,8.6094,8.6094,8.6094,8.6094,8.6094,8.6094,8.6094,8.6094,8.6094,8.6094,8.6094,8.6094,8.6094,8.6094,8.6094,8.6094,8.6094,8.6094,8.6094,8.6094,8.6094,8.6094,8.6094,8.6094,8.6094,8.6094,8.6094,8.5884,8.5397,8.5235,8.4765,0.0,0.0,0.0,0.0,0.0,0.0,0.0,0.0,0.0,0.0,0.0,0.0,0.0,0.0,0.0,0.0,0.0,0.0,0.0,0.0,0.0,0.0,0.0,0.0,0.0,0.0,8.1093,8.1093,8.1093,8.1093,8.1093,8.1093,8.1208,8.1477,8.1477,8.1893,8.2694,8.2771,8.3156,8.4034,8.4048,8.4439,8.5318,8.5312,8.5549,8.6094,8.6094,8.6094,8.6094,8.6094,8.6094,8.6094,8.6094,8.6094,8.6094,8.6094,8.6094,8.6094,8.6094,8.6094,8.6094,8.6094,8.6094,8.6094,8.6094,8.6094,8.6094,8.6094,8.6094,8.6094,8.6094,8.6094,8.6094,8.6094,8.6094,8.6094,8.6094,8.6094,8.6094,8.6094,8.6094,8.6094,8.6094,8.6094,8.6094,8.6094,8.6094,8.6094,8.6094,8.6094,8.6094,8.6094,8.6094,8.6094,8.6094,8.6094,8.6094,8.6094,8.6094,8.6094,8.6094,8.6094,8.6094,8.6094,8.6094,8.6094,8.6094,8.6094,8.5884,8.5397,8.5071,8.4486,8.3638,0.0,0.0,0.0,0.0,0.0,0.0,0.0,0.0,0.0,0.0,0.0,0.0,0.0,0.0,0.0,0.0,0.0,0.0,0.0,0.0,0.0,0.0,0.0,8.1093,8.1093,8.1093,8.1093,8.1093,8.1093,8.1093,8.1131,8.1439,8.224,8.2317,8.2701,8.358,8.3618,8.4034,8.4882,8.4939,8.5291,8.6094,8.6094,8.6094,8.6094,8.6094,8.6094,8.6094,8.6094,8.6094,8.6094,8.6094,8.6094,8.6094,8.6094,8.6094,8.6094,8.6094,8.6094,8.6094,8.6094,8.6094,8.6094,8.6094,8.6094,8.6094,8.6094,8.6094,8.6094,8.6094,8.6094,8.6094,8.6094,8.6094,8.6094,8.6094,8.6094,8.6094,8.6094,8.6094,8.6094,8.6094,8.6094,8.6094,8.6094,8.6094,8.6094,8.6094,8.6094,8.6094,8.6094,8.6094,0.0,8.6094,8.6094,8.6094,8.6132,8.6132,8.617,8.617,8.617,8.617,8.617,8.617,8.617,8.617,8.617,8.5923,8.5397,8.4438,8.3692,8.3239,0.0,0.0,0.0,0.0,0.0,0.0,0.0,0.0,0.0,0.0,0.0,0.0,0.0,0.0,0.0,0.0,0.0,0.0,0.0,0.0,0.0,0.0,8.1093,8.1093,8.1093,8.1093,8.1093,8.1093,8.1093,8.1093,8.1662,8.2047,8.2278,8.2869,8.3638,8.4516,8.4555,8.4901,8.5742,8.5786,8.5901,8.6094,8.6094,8.6094,8.6094,8.6094,8.6094,8.6094,8.6094,8.6094,8.6094,8.6094,8.6094,8.6094,8.6094,8.6094,8.6094,8.6094,8.6094,8.6094,8.6094,8.6094,8.6094,8.6094,8.6094,8.6094,8.6094,8.6094,8.6094,8.6094,8.6094,8.6094,8.6094,8.6094,8.6094,8.6094,8.6094,8.6094,8.6094,8.6094,8.6094,8.6094,8.6094,8.6094,8.6094,8.6094,8.6094,8.6094,8.6094,8.6094,8.6094,8.6094,0.0,8.6094,8.6094,8.6324,8.6978,8.7055,8.7286,8.794,8.7979,8.7979,8.7979,8.7979,8.7979,8.7979,8.7363,8.6499,8.5397,8.481,8.423,0.0,0.0,0.0,0.0,0.0,0.0,0.0,0.0,0.0,0.0,0.0,0.0,0.0,0.0,0.0,0.0,0.0,0.0,0.0,0.0,0.0,0.0,8.1093,8.1093,8.1093,8.1093,8.1093,8.1093,8.14,8.1593,8.1593,8.2355,8.3009,8.3362,8.3868,8.4489,8.5368,8.5406,8.5599,8.6094,8.6094,8.6094,8.6094,8.6094,8.6094,8.6094,8.6094,8.6094,8.6094,8.6094,8.6094,0.0,8.6094,8.6094,8.6094,8.6094,8.6094,0.0,0.0,0.0,0.0,0.0,8.6094,8.6094,8.6094,8.6094,8.6094,8.6094,8.6094,8.6094,8.6094,8.6094,8.6094,8.6094,8.6094,8.6094,8.6094,8.6094,8.6094,8.6094,8.6094,8.6094,8.6094,8.6094,8.6094,8.6094,8.6094,0.0,8.6594,8.6324,8.6094,8.6094,8.6401,8.6632,8.6632,8.6978,8.7363,8.7902,8.794,8.8132,8.8671,8.8709,0.0,0.0,0.0,8.8709,8.8709,8.7772,0.0,0.0,0.0,8.4298,8.3583,0.0,0.0,0.0,8.2957,8.2957,0.0,0.0,0.0,0.0,0.0,0.0,0.0,0.0,0.0,0.0,0.0,0.0,0.0,0.0,0.0,0.0,8.1093,8.1131,8.1208,8.1246,8.1246,8.1246,8.1893,8.2355,8.2432,8.324,8.4048,8.483,8.4983,8.533,8.6055,0.0,0.0,0.0,0.0,8.6094,8.6094,8.6094,8.6094,8.6094,8.6094,8.6094,8.6094,8.6094,8.6094,8.6094,8.6094,8.6094,8.6094,8.6094,8.6094,8.6094,8.6094,8.6094,8.6094,8.6094,8.6094,8.6094,8.6094,0.0,0.0,8.6094,8.6094,8.6094,8.6094,8.6094,8.6094,8.6094,8.6094,8.6094,8.6094,8.6094,8.6094,8.6094,8.617,8.6247,8.6247,8.6324,8.6401,8.6401,8.6401,8.6632,8.7401,8.6824,8.6286,8.6363,8.7055,8.7555,8.7555,8.8209,8.8709,8.8825,0.0,0.0,8.8979,8.8979,8.8979,8.8979,8.8979,8.894,8.8825,8.7912,8.7011,8.6084,8.5167,8.4323,8.3477,8.3366,8.3329,8.3329,8.3217,8.318,0.0,0.0,0.0,0.0,0.0,0.0,0.0,0.0,0.0,0.0,0.0,0.0,0.0,0.0,0.0,8.1093,8.1093,8.1323,8.197,8.2086,8.2086,8.2086,8.2201,8.2554,8.3259,8.4138,8.4714,8.4907,8.5483,8.594,8.6094,8.6094,0.0,8.6094,8.6094,8.6094,8.6094,8.6094,8.6094,8.6094,0.0,0.0,8.6094,8.6094,8.6094,8.6094,8.6094,8.6094,8.6094,8.6094,8.6094,8.6094,8.6094,8.6094,8.6094,8.6094,8.6094,8.6094,8.6094,8.6094,8.6094,8.6094,8.6094,8.6094,8.6094,8.6094,0.0,8.6094,8.6094,8.6094,8.6094,8.6094,8.6094,8.6094,8.6632,8.7166,8.7137,8.7709,8.8209,8.8209,8.8209,8.8248,8.8402,8.7709,8.7401,8.8094,8.8325,8.844,8.844,8.8594,8.894,8.9594,8.9671,8.994,9.0671,9.071,9.071,9.071,9.071,9.0402,8.971,8.9491,8.8573,8.6919,8.6679,8.6079,8.5112,8.448,8.4146,8.4146,8.3477,8.318,0.0,0.0,0.0,0.0,0.0,0.0,0.0,0.0,0.0,0.0,0.0,8.1093,0.0,0.0,8.1093,8.1093,8.1439,8.1855,8.224,8.267,8.2939,8.2964,8.3356,8.3753,8.4181,8.5022,8.5483,8.5483,8.5863,8.6094,8.6094,8.6094,8.6094,8.6094,8.6094,8.6094,8.6094,8.6094,8.6094,8.6094,8.6094,8.6094,8.6094,8.6094,8.6094,8.6094,8.6094,8.6363,8.6781,8.7204,8.7396,8.7396,8.7396,8.6896,8.6094,8.6094,8.6094,8.6094,8.6094,8.6094,8.6094,8.6094,8.6094,8.617,8.6594,8.6748,8.6858,8.7281,8.7396,8.7396,8.7396,8.7396,8.7396,8.7396,8.7704,8.8051,8.806,8.8406,8.8714,8.8709,8.8709,8.8825,8.9248,8.894,8.8671,8.8709,8.9056,8.9286,8.9286,8.9671,9.0094,9.0517,9.0556,9.0902,9.1787,9.221,9.2441,9.2441,9.2441,9.2095,9.1248,9.0722,8.9577,8.7791,8.7245,8.65,8.5595,8.5186,8.5,8.5,8.4592,8.396,0.0,0.0,0.0,0.0,0.0,0.0,0.0,0.0,8.1093,8.1093,8.1093,8.1093,8.1093,8.1208,8.1323,8.1323,8.2009,8.2586,8.2778,8.3407,8.3868,8.3856,8.4478,8.4983,8.5137,8.5747,8.6094,8.6094,8.6094,8.6094,8.6094,8.6094,8.6094,8.6094,8.6094,8.6094,8.6094,8.6094,8.6094,8.6094,8.6286,8.6363,8.6363,8.6517,8.6594,8.6594,8.6594,8.6978,8.7709,8.8397,8.8705,8.8705,8.8705,8.7858,8.6632,8.6594,8.6594,8.6594,8.6594,8.6594,8.6594,8.6594,8.6594,8.6709,8.7435,8.7666,8.782,8.8512,8.8705,8.8705,8.8705,8.8705,8.8705,8.8705,8.882,8.8936,8.8909,8.9063,8.9178,8.9175,8.921,8.9402,9.0056,9.0287,9.0133,8.9286,8.9748,9.0171,9.0171,9.0902,9.1441,9.1441,9.1595,9.1979,9.2672,9.3326,9.371,9.371,9.371,9.3403,9.2749,9.1806,9.057,8.9156,8.8148,8.7241,8.6301,8.6152,8.6004,8.5818,8.5669,8.4815,8.1093,8.1093,0.0,8.1093,8.1093,8.1093,0.0,0.0,8.1093,8.1093,8.1093,8.1093,8.1093,8.1701,8.2163,8.2163,8.2887,8.3702,8.4484,8.4714,8.4753,8.4753,8.483,8.5176,8.5901,8.6055,8.6094,8.6094,8.6094,8.6094,8.6094,8.6094,8.6094,8.6094,8.6094,8.6094,8.6094,8.6094,8.6094,8.6094,8.6896,8.7242,8.7281,8.8084,8.843,8.843,8.843,8.844,8.8563,8.864,8.8679,8.8679,8.8679,8.8563,8.841,8.8397,8.843,8.843,8.843,8.843,8.843,8.843,8.843,8.843,8.8507,8.8556,8.8563,8.8679,8.8679,8.8679,8.8679,8.8679,8.8679,8.8679,8.9252,8.9752,8.979,9.0367,9.0941,9.0941,9.0941,9.0941,9.1056,9.1672,9.1937,9.1056,9.1018,9.1056,9.1056,9.1825,9.2364,9.2364,9.2979,9.3441,9.3557,9.3633,9.371,9.371,9.371,9.3672,9.3557,9.2978,9.2391,9.1685,9.1093,9.0162,8.8864,8.8158,8.7415,8.6635,8.5929,8.5112,8.1093,0.0,0.0,0.0,8.1093,8.1093,8.1093,8.1093,8.1093,8.1093,8.1477,8.1816,8.1816,8.2471,8.3048,0.0,8.3785,8.4478,8.4868,8.5291,8.5599,8.5599,8.5588,8.5549,8.5406,8.5824,8.6094,8.6094,8.6094,8.6094,8.6094,8.6094,8.6094,8.6094,8.6094,8.6094,8.6094,8.6594,8.6858,8.6896,8.7743,8.8166,8.8175,8.8521,8.8709,8.8748,8.921,8.9367,8.9409,8.9944,9.0136,9.0136,9.0136,9.0136,9.0021,8.906,8.8709,8.8709,8.8709,8.8709,8.8709,8.8709,8.8709,8.8786,8.9248,8.9406,8.9486,9.0021,9.0136,9.0136,9.0136,9.0136,9.0136,9.0136,9.0406,9.0825,9.1287,9.1672,9.213,9.2553,9.263,9.263,9.263,9.2938,9.3054,9.271,9.2633,9.2633,9.2633,9.2979,9.321,9.321,9.3941,9.4441,9.4441,9.4903,9.5211,9.5211,9.5211,9.498,9.448,9.3941,9.316,9.2102,9.1562,9.0879,8.9979,8.9644,8.931,8.8938,8.8121,8.7304,8.1093,0.0,0.0,8.1093,8.1093,8.1093,8.1093,8.1246,8.1439,8.1439,8.2086,8.2663,8.2631,8.3394,0.0,8.3951,8.4489,8.4983,8.5214,8.5522,8.5786,8.5786,8.5966,8.5774,8.4983,8.5599,8.6094,8.6094,8.6094,8.6094,8.6094,8.6094,8.6209,8.644,8.644,8.6555,8.6819,8.7435,8.7743,8.7748,8.8628,8.9017,8.9025,8.9255,8.9371,8.9409,9.0021,9.0252,9.029,9.0941,9.1325,9.1556,9.1556,9.1672,9.171,9.0521,8.979,8.9371,8.9371,8.9371,8.9371,8.9371,8.9371,8.9486,9.0098,9.0252,9.0444,9.1325,9.1556,9.1595,9.1825,9.1864,9.1864,9.1864,9.1864,9.2091,9.2669,9.2823,9.2979,9.3592,9.3708,9.3708,9.3708,9.39,9.4054,9.4057,9.4249,9.421,9.3749,9.3903,9.4134,9.4403,9.498,9.5365,9.5365,9.5942,9.6288,9.6288,9.6288,9.6019,9.5365,9.4822,9.3961,9.2822,9.2295,9.1627,9.0833,9.0833,9.0722,9.0499,8.9904,8.931,0.0,0.0,8.1093,8.1093,8.1093,8.1093,8.1093,8.1701,8.224,8.224,8.2964,8.3548,8.3566,8.4258,8.4868,8.4868,8.4868,8.5176,8.594,8.5406,8.4945,8.4945,8.5632,8.5786,0.0,8.5599,8.6094,8.6094,8.6094,8.6094,8.6094,8.6094,8.6478,8.7319,8.7358,8.7743,8.8623,8.8661,8.8666,8.8679,8.9483,8.9867,8.9906,9.0748,9.1133,9.1133,9.1171,9.1171,9.1171,9.121,9.1672,9.2476,9.2476,9.2938,9.3628,9.3589,9.2515,9.1133,9.1133,9.1133,9.1133,9.1133,9.1133,9.1133,9.1171,9.1171,9.1325,9.2245,9.2476,9.263,9.3435,9.3628,9.3628,9.3628,9.3628,9.3628,9.3666,9.3672,9.3676,9.3714,9.3714,9.3714,9.3714,9.4368,9.4982,9.4982,9.5674,9.5634,9.3905,9.4441,9.5288,9.6134,9.6249,9.6249,9.6249,9.6288,9.6288,9.6288,9.6288,9.6288,9.6249,9.5703,9.5104,9.4528,9.3973,9.305,9.165,9.165,9.1242,9.0499,9.0462,9.0462,0.0,0.0,8.1093,8.1093,8.1477,8.1893,8.1893,8.2547,8.3163,8.3138,8.383,8.4478,8.4484,8.5137,8.5522,8.4983,8.533,8.5593,8.535,8.5549,8.5709,8.5709,8.594,0.0,0.0,0.0,0.0,8.6094,8.6094,8.6363,8.6935,8.6973,8.7358,8.8238,8.8248,8.8406,8.8675,8.9248,8.9483,8.9486,9.0367,9.0787,9.0787,9.1672,9.2091,9.2091,9.263,9.2861,9.2861,9.2861,9.3015,9.3284,9.3326,9.3443,9.3713,9.3713,9.3328,9.2867,9.2861,9.2861,9.2861,9.2861,9.2861,9.2861,9.2861,9.2861,9.29,9.3243,9.3287,9.3366,9.3636,9.3713,9.3713,9.3713,9.3713,9.3866,9.4441,9.4559,9.4751,9.5289,9.5405,9.5405,9.5405,9.5674,9.5865,9.5865,9.6134,9.6095,9.5518,9.5672,9.598,9.6288,9.6288,9.6519,9.7057,9.7096,9.7326,9.7904,9.7942,9.7942,9.7942,9.7788,9.6948,9.5489,9.5318,9.4328,9.2542,9.2542,9.2431,9.2133,9.1576,9.1316,0.0,8.1516,8.1593,8.1932,8.2355,8.274,8.2747,8.3439,8.4055,8.4028,8.4753,8.5253,8.4945,8.533,8.5483,8.4983,8.5055,8.5241,8.5312,8.5549,8.5786,8.6055,8.6094,0.0,0.0,0.0,0.0,8.6132,8.6401,8.6819,8.7358,8.7671,8.8248,8.909,8.9137,8.9255,8.9563,9.0098,9.0521,9.0864,9.1402,9.1787,9.213,9.2669,9.2938,9.2979,9.348,9.3672,9.3672,9.3672,9.39,9.417,9.4174,9.4329,9.4635,9.4635,9.4635,9.4559,9.3903,9.3672,9.3672,9.3672,9.3672,9.3672,9.3672,9.3672,9.3785,9.4093,9.4172,9.4214,9.4521,9.4635,9.4635,9.4635,9.4635,9.4789,9.5328,9.5443,9.5635,9.6211,9.6288,9.6288,9.6288,9.6519,9.6711,9.6711,9.698,9.7094,9.6749,9.6711,9.6826,9.7173,9.7173,9.7403,9.7904,9.7942,9.8211,9.875,9.8788,9.8788,9.8788,9.8788,9.8002,9.6361,9.6309,9.5536,9.3842,9.3582,9.3434,9.3397,9.2542,9.2171,8.2163,8.2355,8.2547,8.3387,8.3618,8.3664,8.3643,8.4335,8.4983,8.4983,8.556,8.5863,0.0,0.0,8.4945,8.4868,8.4202,8.4273,8.5824,8.5406,8.5253,0.0,0.0,0.0,0.0,0.0,0.0,8.6286,0.0,8.7473,8.7512,8.8329,8.914,8.9944,8.9983,9.0367,9.121,9.1248,9.1672,9.2553,9.2553,9.2938,9.3705,9.3743,9.3749,9.3791,9.383,9.383,9.383,9.383,9.4291,9.5058,9.5058,9.5558,9.6288,9.6288,9.6288,9.6057,9.4406,9.383,9.383,9.383,9.383,9.383,9.383,9.383,9.4022,9.4828,9.5058,9.5251,9.6095,9.6288,9.6288,9.6288,9.6288,9.6288,9.6288,9.6326,9.6365,9.6365,9.6403,9.6442,9.6442,9.7094,9.7556,9.7595,9.8249,9.8517,9.7672,9.7595,9.7902,9.8673,9.8788,9.8788,9.8865,9.8865,9.8865,9.8942,9.8942,9.8942,9.8942,9.8942,9.8385,9.7196,9.7143,9.6629,9.5433,9.4622,9.4251,9.4251,9.3471,9.3099,8.3041,8.3247,8.333,8.3561,8.4099,8.4561,8.4599,8.5214,8.5786,8.5786,8.5978,8.5863,0.0,0.0,0.0,8.4157,8.478,0.0,8.5214,8.5522,0.0,0.0,0.0,8.6363,8.7012,8.7281,0.0,0.0,8.8243,8.8628,8.9213,8.9483,8.9983,9.0864,9.0902,9.0979,9.121,9.1825,9.2592,9.3397,9.3403,9.352,9.3713,9.4366,9.4674,9.4712,9.5366,9.5635,9.5635,9.5635,9.5751,9.598,9.598,9.6095,9.6288,9.6288,9.6288,9.6249,9.5789,9.5635,9.5635,9.5635,9.5635,9.5635,9.5635,9.5635,9.5674,9.5942,9.598,9.6019,9.6249,9.6288,9.6288,9.6288,9.6288,9.6288,9.6288,9.6749,9.721,9.721,9.771,9.8133,9.8133,9.8363,9.848,9.8481,9.8673,9.875,9.848,9.8481,9.8558,9.875,9.8827,9.9058,9.9712,9.975,9.9981,10.0596,10.0712,10.0712,10.0712,10.0712,10.001,9.8707,9.8262,9.7422,9.6069,9.5409,9.5105,9.5105,9.4883,9.4474,8.3933,8.4138,8.4258,8.4637,8.506,8.5406,8.5406,8.5786,8.6017,8.5637,8.556,0.0,0.0,0.0,0.0,0.0,0.0,0.0,8.5445,8.5824,8.6094,0.0,8.644,0.0,8.7358,8.8055,8.8709,0.0,8.9248,8.9402,8.9867,9.0252,9.0675,9.1171,9.1556,9.1937,9.2284,9.2787,9.3441,9.4285,9.4289,9.4445,9.4866,9.5328,9.5558,9.5597,0.0,9.6288,9.6288,9.6288,9.6288,9.6288,9.6288,9.6288,9.6288,9.6288,9.6288,9.6365,9.6673,9.6826,9.6749,9.6403,9.6288,9.6288,9.6288,9.6288,9.6288,9.6288,9.6557,9.6826,9.6826,9.7133,9.7402,9.7402,9.7402,9.7402,9.7402,9.7749,9.8056,9.8096,9.8481,9.8788,9.8788,9.9096,9.9365,9.9404,9.9673,9.9904,9.9904,9.9558,9.9519,9.9827,9.9865,10.0096,10.0596,10.0596,10.0789,10.1289,10.1289,10.1289,10.1289,10.1289,10.0819,9.9809,9.9488,9.8659,9.7328,9.6655,9.622,9.5923,9.5551,9.5143,8.483,8.506,8.5214,8.594,8.6094,8.6094,8.6094,8.6017,8.5747,8.506,0.0,0.0,8.372,0.0,8.401,8.4791,0.0,8.5291,8.6017,8.6094,8.6132,8.6247,8.6935,8.7473,8.7704,8.9056,8.9944,9.0059,9.0059,9.0059,9.0059,9.0902,9.1402,9.1518,9.2249,9.3054,9.3859,9.3866,9.4291,9.5174,9.5174,9.5558,9.6288,9.6288,9.6288,9.6288,9.6288,0.0,9.6288,9.6288,9.6365,9.6442,9.6442,9.6519,9.6634,9.6634,9.6634,9.6711,9.7441,9.7672,9.7557,9.6865,9.6634,9.6634,9.6634,9.6634,9.6634,9.6634,9.7133,9.7672,9.7672,9.8249,9.8788,9.8788,9.8788,9.8788,9.8788,9.8865,9.9018,9.9135,9.9134,9.9134,9.9134,9.9788,10.0288,10.0288,10.0904,10.1289,10.1289,10.0673,10.048,10.1212,10.1289,10.1289,10.1289,10.1289,10.1289,10.1289,10.1289,10.1289,10.1289,10.1289,10.1129,10.0627,10.0497,9.9974,9.8922,9.8087,9.7354,9.6839,9.6102,9.5663,8.567,8.5901,8.594,8.6055,8.6094,8.6094,8.6094,8.556,0.0,0.0,0.0,8.3772,8.3657,8.417,0.0,8.4868,0.0,0.0,0.0,0.0,8.6363,0.0,0.0,0.0,0.0,0.0,0.0,0.0,0.0,0.0,9.0979,9.1787,9.2592,9.3281,9.3405,9.3905,9.4751,9.4789,9.5212,9.6095,9.6095,9.6172,9.6288,9.6288,9.6288,9.6288,9.6288,0.0,9.6288,9.6288,9.6673,9.7287,9.7287,9.771,9.8401,9.8401,9.8401,9.8401,9.8555,9.8557,9.8558,9.8403,9.8401,9.8401,9.8401,9.8401,9.8401,9.8401,9.8478,9.8557,9.8558,9.8673,9.8827,9.8827,9.8827,9.8827,9.8827,9.9365,10.0096,10.0673,10.0904,10.0904,10.0904,10.1019,10.1096,10.1096,10.1212,10.1289,10.1289,10.1212,10.1096,10.1289,10.1289,10.1289,10.1289,10.1289,10.1289,10.1289,10.1289,10.1289,10.1289,10.1289,10.1288,10.1208,10.0716,10.0395,10.0212,9.9065,9.843,9.8305,9.7719,9.7074,8.6017,8.6094,8.6094,8.6094,8.6094,8.5978,8.556,0.0,0.0,0.0,0.0,8.358,8.358,0.0,0.0,0.0,0.0,0.0,0.0,0.0,0.0,0.0,0.0,0.0,0.0,0.0,0.0,0.0,0.0,0.0,9.1864,9.2672,9.3518,9.4326,9.4366,9.4789,9.5674,9.5674,9.5903,9.6288,9.6288,9.6288,9.6288,9.6288,9.6288,9.6326,9.6711,0.0,9.6942,9.7402,9.7825,9.8172,9.8173,9.8404,9.8827,9.8827,9.8827,9.8865,9.9327,9.9481,9.9558,9.9942,9.9481,9.8827,9.8827,9.8827,9.8827,9.8827,9.9135,9.9481,9.9481,9.9788,10.0096,10.0096,10.0096,10.0096,10.0096,10.0404,10.0788,10.1212,10.1289,10.1289,10.1289,10.1289,10.1289,10.1289,10.1289,10.1289,10.1289,10.1289,10.1289,10.1289,10.1289,10.1289,10.1289,10.1289,10.1289,10.1289,10.1289,10.1289,10.1289,10.1289,10.1289,10.1289,10.1011,10.0798,10.0489,9.9923,9.9292,9.8679,9.844,9.7897,8.6094,8.6094,8.6094,8.6094,8.6094,8.5901,8.5099,8.4753,0.0,0.0,0.0,0.0,0.0,0.0,0.0,0.0,0.0,0.0,0.0,0.0,0.0,0.0,0.0,0.0,0.0,0.0,0.0,0.0,0.0,0.0,9.3054,9.3636,9.4368,9.5251,9.5289,9.5597,9.6288,9.6288,9.6288,9.6288,9.6288,9.6288,9.6288,9.6288,9.6403,9.6596,9.7248,0.0,0.0,9.8518,9.8903,9.9095,9.9096,9.9173,9.9326,9.9326,9.9326,9.9403,10.0096,10.0404,10.048,10.1096,10.0404,9.9326,9.9326,9.9326,9.9326,9.9326,9.9827,10.0404,10.0404,10.0788,10.1289,10.1289,10.1289,10.1289,10.1289,10.1289,10.1289,10.1289,10.1289,10.1289,10.1289,10.1289,10.1289,10.1289,10.1289,10.1289,10.1289,10.1289,10.1289,10.1289,10.1289,10.1289,10.1289,10.1289,10.1289,10.1289,10.1289,10.1289,10.1289,10.1289,10.1289,10.1289,10.1289,10.1091,10.071,10.0633,9.9961,9.8869,9.8764,9.8375,8.6094,8.6094,8.6094,8.6094,8.6094,8.5901,8.5099,0.0,0.0,0.0,0.0,0.0,0.0,0.0,0.0,0.0,0.0,0.0,0.0,0.0,0.0,0.0,0.0,0.0,0.0,0.0,0.0,0.0,0.0,0.0,9.4751,9.4828,9.5289,9.6172,9.6172,9.6211,9.6288,9.6288,9.6288,9.6288,9.6288,9.6288,9.6288,9.6288,9.6673,9.7402,9.7479,0.0,0.0,9.875,9.9288,9.9981,9.9981,10.0404,10.1096,10.1096,10.1096,10.1096,10.1212,10.1212,10.1212,10.1289,10.1212,10.1096,10.1096,10.1096,10.1096,10.1096,10.1096,10.1212,10.1212,10.1212,10.1289,10.1289,10.1289,10.1289,10.1289,10.1289,10.1289,10.1289,10.1289,10.1289,10.1289,10.1289,10.1289,10.1289,10.1289,10.1289,10.1289,10.1289,10.1289,10.1289,10.1289,10.1289,10.1289,10.1289,10.1289,10.1289,10.1289,10.1289,10.1289,10.1289,10.1289,10.1289,10.1289,10.1288,10.1171,10.071,10.0185,9.948,9.8949,9.8375,8.6094,8.6094,8.6094,8.6094,8.5747,8.5176,8.4297,0.0,0.0,0.0,0.0,0.0,0.0,0.0,0.0,0.0,0.0,0.0,0.0,0.0,0.0,0.0,0.0,0.0,0.0,0.0,0.0,0.0,0.0,0.0,9.5751,9.5751,9.5942,9.6288,9.6288,9.6288,9.6288,9.6288,9.6288,9.6288,9.6288,9.6288,9.6326,9.6788,9.721,9.7556,9.8596,0.0,0.0,10.0096,10.048,10.0788,10.0788,10.1019,10.1289,10.1289,10.1289,10.1289,10.1289,10.1289,10.1289,10.1289,10.1289,10.1289,10.1289,10.1289,10.1289,10.1289,10.1289,10.1289,10.1289,10.1289,10.1289,10.1289,10.1289,10.1289,10.1289,10.1289,10.1289,10.1289,10.1289,10.1289,10.1289,10.1289,10.1289,10.1289,10.1289,10.1289,10.1289,10.1289,10.1289,10.1289,10.1289,10.1289,10.1289,10.1289,10.1289,10.1289,10.1289,10.1289,10.1289,10.1289,10.1289,10.1289,10.1289,10.1289,10.1289,10.1096,10.0476,9.9611,9.9346,9.8792,8.6094,8.6094,8.6094,8.6094,8.5483,8.4676,0.0,0.0,0.0,0.0,0.0,0.0,8.5214,8.5747,8.6094,8.6094,0.0,8.6819,8.7666,0.0,0.0,0.0,0.0,0.0,0.0,0.0,0.0,0.0,0.0,0.0,0.0,9.6288,9.6288,9.6288,9.6288,9.6288,9.6288,9.6288,9.6288,9.6288,9.6519,9.6634,9.6673,9.7518,9.8018,9.8327,9.9558,0.0,0.0,10.1096,10.1289,10.1289,10.1289,10.1289,10.1289,10.1289,10.1289,10.1289,10.1289,10.1289,10.1289,10.1289,10.1289,10.1289,10.1289,10.1289,10.1289,10.1289,10.1289,10.1289,10.1289,10.1289,10.1289,10.1289,10.1289,10.1289,10.1289,10.1289,10.1289,10.1289,10.1289,10.1289,10.1289,10.1289,10.1289,10.1289,10.1289,10.1289,10.1289,10.1289,10.1289,10.1289,10.1289,10.1289,10.1289,10.1289,10.1289,10.1289,10.1289,10.1289,10.1289,10.1289,10.1289,10.1289,10.1289,10.1289,10.1289,10.1289,10.0788,9.9865,9.972,9.898,8.6094,8.6094,8.6094,8.6094,8.5483,8.4637,0.0,0.0,0.0,0.0,0.0,8.5137,8.594,8.6094,8.6094,8.6094,8.6819,0.0,8.8546,0.0,0.0,0.0,0.0,0.0,0.0,0.0,0.0,0.0,0.0,0.0,0.0,9.6288,9.6288,9.6288,9.6288,9.6288,9.6288,9.6288,9.6288,9.6326,9.7133,9.7479,9.7518,9.8401,9.9249,0.0,0.0,0.0,0.0,10.1289,10.1289,10.1289,10.1289,10.1289,10.1289,10.1289,10.1289,10.1289,10.1289,10.1289,10.1289,10.1289,10.1289,10.1289,10.1289,10.1289,10.1289,10.1289,10.1289,10.1289,10.1289,10.1289,10.1289,10.1289,10.1289,10.1289,10.1289,10.1289,10.1289,10.1289,10.1289,10.1289,10.1289,10.1289,10.1289,10.1289,10.1289,10.1289,10.1289,10.1289,10.1289,10.1289,10.1289,10.1289,10.1289,10.1289,10.1289,10.1289,10.1289,10.1289,10.1289,10.1289,10.1289,10.1289,10.1289,10.1289,10.1289,10.1289,10.1019,10.0519,9.9896,9.902,8.6094,8.6094,8.5978,8.5406,8.4637,8.3945,8.3657,0.0,0.0,0.0,0.0,8.5824,8.6055,8.6094,8.6094,8.6094,8.6858,8.7704,0.0,0.0,0.0,0.0,0.0,0.0,0.0,0.0,0.0,0.0,0.0,0.0,0.0,9.6288,9.6288,9.6288,9.6288,9.6288,9.6288,9.6288,9.6557,9.7133,9.7402,9.7788,9.8442,9.9288,9.9827,0.0,0.0,0.0,0.0,10.1289,10.1289,10.1289,10.1289,10.1289,10.1289,10.1289,10.1289,10.1289,10.1289,10.1289,10.1289,10.1289,10.1289,10.1289,10.1289,10.1289,10.1289,10.1289,10.1289,10.1289,10.1289,10.1289,10.1289,10.1289,10.1289,10.1289,10.1289,10.1289,10.1289,10.1289,10.1289,10.1289,10.1289,10.1289,10.1289,10.1289,10.1289,10.1289,10.1289,10.1289,10.1289,10.1289,10.1289,10.1289,10.1289,10.1289,10.1289,10.1289,10.1289,10.1289,10.1289,10.1289,10.1289,10.1289,10.1289,10.1289,10.1289,10.1289,10.0788,9.9865,9.9292,9.859,0.0,8.5901,8.5522,8.5022,8.4253,0.0,0.0,0.0,0.0,0.0,0.0,0.0,8.6094,8.6094,8.6209,8.6517,8.7319,8.8205,0.0,0.0,0.0,0.0,0.0,0.0,0.0,0.0,0.0,0.0,0.0,0.0,0.0,9.6288,9.6288,9.6288,9.6288,9.6288,9.6288,9.6596,9.698,9.7518,9.8173,9.875,9.9326,10.0211,10.0596,0.0,0.0,0.0,0.0,10.1289,10.1289,10.1289,10.1289,10.1289,10.1289,10.1289,10.1289,10.1289,10.1289,10.1289,10.1289,10.1289,10.1289,10.1289,10.1289,10.1289,10.1289,10.1289,10.1289,10.1289,10.1289,10.1289,10.1289,10.1289,10.1289,10.1289,10.1289,10.1289,10.1289,10.1289,10.1289,10.1289,10.1289,10.1289,10.1289,10.1289,10.1289,10.1289,10.1289,10.1289,10.1289,10.1289,10.1289,10.1289,10.1289,10.1289,10.1289,10.1289,10.1289,10.1289,10.1289,10.1289,10.1289,10.1289,10.1289,10.1289,10.1289,10.1289,10.0788,9.9941,9.9299,9.8742,0.0,0.0,0.0,0.0,0.0,0.0,0.0,0.0,0.0,0.0,0.0,0.0,8.6094,8.6094,8.6401,8.7242,8.8161,8.8974,0.0,0.0,0.0,0.0,0.0,0.0,0.0,0.0,0.0,0.0,0.0,0.0,0.0,9.6288,9.6326,9.6365,9.6403,9.6403,9.6403,9.721,9.7633,9.771,9.9327,10.0096,10.0211,10.1019,10.1289,0.0,0.0,0.0,0.0,10.1289,10.1289,10.1289,10.1289,10.1289,10.1289,10.1289,10.1289,10.1289,10.1289,10.1289,10.1289,10.1289,10.1289,10.1289,10.1289,10.1289,10.1289,10.1289,10.1289,10.1289,10.1289,10.1289,10.1289,10.1289,10.1289,10.1289,10.1289,10.1289,10.1289,10.1289,10.1289,10.1289,10.1289,10.1289,10.1289,10.1289,10.1289,10.1289,10.1289,10.1289,10.1289,10.1289,10.1289,10.1289,10.1289,10.1289,10.1289,10.1289,10.1289,10.1289,10.1289,10.1289,10.1289,10.1289,10.1289,10.1289,10.1289,10.1289,10.1019,10.048,9.9913,9.9351,0.0,0.0,0.0,0.0,0.0,0.0,0.0,0.0,0.0,0.0,0.0,0.0,0.0,8.6094,8.6401,8.7242,8.8132,8.8983,0.0,0.0,0.0,0.0,0.0,0.0,0.0,0.0,0.0,0.0,0.0,0.0,0.0,9.6288,9.6557,9.721,9.7248,9.7248,9.7248,9.8056,9.8826,9.9481,9.9904,10.0404,10.1019,10.1212,10.1289,0.0,0.0,0.0,10.1289,10.1289,10.1289,10.1289,10.1289,10.1289,10.1289,10.1289,10.1289,10.1289,10.1289,10.1289,10.1289,10.1289,10.1289,10.1289,10.1289,10.1289,10.1289,10.1289,10.1289,10.1289,10.1289,10.1289,10.1289,10.1289,10.1289,10.1289,10.1289,10.1289,10.1289,10.1289,10.1289,10.1289,10.1289,10.1289,10.1289,10.1289,10.1289,10.1289,10.1289,10.1289,10.1289,10.1289,10.1289,10.1289,10.1289,10.1289,10.1289,10.1289,10.1289,10.1289,10.1289,10.1289,10.1289,10.1289,10.1289,10.1289,10.1289,10.1289,10.1019,10.0519,10.0372,9.9704,0.0,0.0,0.0,0.0,0.0,0.0,0.0,0.0,0.0,0.0,0.0,0.0,0.0,0.0,0.0,8.782,8.8709,0.0,0.0,0.0,0.0,0.0,0.0,0.0,0.0,0.0,0.0,0.0,0.0,0.0,0.0,9.6634,9.7056,9.7479,9.8288,9.8519,9.8096,9.8942,9.9635,10.0096,10.048,10.0904,10.1289,10.1289,10.1289,0.0,0.0,0.0,10.1289,10.1289,10.1289,10.1289,10.1289,10.1289,10.1289,10.1289,10.1289,10.1289,10.1289,10.1289,10.1289,10.1289,10.1289,10.1289,10.1289,10.1289,10.1289,10.1289,10.1289,10.1289,10.1289,10.1289,10.1289,10.1289,10.1289,10.1289,10.1289,10.1289,10.1289,10.1289,10.1289,10.1289,10.1289,10.1289,10.1289,10.1289,10.1289,10.1289,10.1289,10.1289,10.1289,10.1289,10.1289,10.1289,10.1289,10.1289,10.1289,10.1289,10.1289,10.1289,10.1289,10.1289,10.1289,10.1289,10.1289,10.1289,10.1289,10.1289,10.1212,10.0904,10.0596,10.0015,0.0,0.0,0.0,0.0,0.0,0.0,0.0,0.0,0.0,0.0,0.0,0.0,0.0,0.0,0.0,0.0,0.0,0.0,0.0,0.0,0.0,0.0,0.0,0.0,0.0,0.0,0.0,0.0,0.0,0.0,0.0,9.7133,9.7633,9.7902,9.9327,9.9827,9.9173,9.9904,10.0288,10.0288,10.1019,10.1289,10.1289,10.1289,10.1289,10.1289,0.0,0.0,10.1289,10.1289,10.1289,10.1289,10.1289,10.1289,10.1289,10.1289,10.1289,10.1289,10.1289,10.1289,10.1289,10.1289,10.1289,10.1289,10.1289,10.1289,10.1289,10.1289,10.1289,10.1289,10.1289,10.1289,10.1289,10.1289,10.1289,10.1289,10.1289,10.1289,10.1289,10.1289,10.1289,10.1289,10.1289,10.1289,10.1289,10.1289,10.1289,10.1289,10.1289,10.1289,10.1289,10.1289,10.1289,10.1289,10.1289,10.1289,10.1289,10.1289,10.1289,10.1289,10.1289,10.1289,10.1289,10.1289,10.1289,10.1289,10.1289,10.1289,10.1289,10.1289,10.0788,10.0288,0.0,0.0,0.0,0.0,0.0,0.0,0.0,0.0,0.0,0.0,0.0,0.0,0.0,0.0,0.0,0.0,0.0,0.0,0.0,0.0,0.0,0.0,0.0,0.0,0.0,0.0,0.0,0.0,0.0,0.0,0.0,9.7441,9.8173,9.9634,9.9942,10.0404,10.0904,10.1019,10.1096,10.1096,10.1212,10.1289,10.1289,10.1289,10.1289,10.1289,0.0,10.1289,10.1289,10.1289,10.1289,10.1289,10.1289,10.1289,10.1289,10.1289,10.1289,10.1289,10.1289,10.1289,10.1289,10.1289,10.1289,10.1289,10.1289,10.1289,10.1289,10.1289,10.1289,10.1289,10.1289,10.1289,10.1289,10.1289,10.1289,10.1289,10.1289,10.1289,10.1289,10.1289,10.1289,10.1289,10.1289,10.1289,10.1289,10.1289,10.1289,10.1289,10.1289,10.1289,10.1289,10.1289,10.1289,10.1289,10.1289,10.1289,10.1289,10.1289,10.1289,10.1289,10.1289,10.1289,10.1289,10.1289,10.1289,10.1289,10.1289,10.1289,10.1289,10.1289,10.1212,10.0904,8.6094,0.0,0.0,0.0,0.0,0.0,0.0,0.0,0.0,0.0,0.0,0.0,0.0,0.0,0.0,0.0,0.0,0.0,0.0,0.0,0.0,0.0,0.0,0.0,0.0,0.0,0.0,0.0,0.0,0.0,0.0,0.0,9.9288,10.0096,10.048,10.0904,10.1289,10.1289,10.1289,10.1289,10.1289,10.1289,10.1289,10.1289,10.1289,10.1289,0.0,10.1289,10.1289,10.1289,10.1289,10.1289,10.1289,10.1289,10.1289,10.1289,10.1289,10.1289,10.1289,10.1289,10.1289,10.1289,10.1289,10.1289,10.1289,10.1289,10.1289,10.1289,10.1289,10.1289,10.1289,10.1289,10.1289,10.1289,10.1289,10.1289,10.1289,10.1289,10.1289,10.1289,10.1289,10.1289,10.1289,10.1289,10.1289,10.1289,10.1289,10.1289,10.1289,10.1289,10.1289,10.1289,10.1289,10.1289,10.1289,10.1289,10.1289,10.1289,10.1289,10.1289,10.1289,10.1289,10.1289,10.1289,10.1289,10.1289,10.1289,10.1289,10.1289,10.1289,10.1289,10.1019,8.6094,8.6094,0.0,0.0,0.0,0.0,0.0,0.0,0.0,0.0,0.0,0.0,0.0,0.0,0.0,0.0,0.0,0.0,0.0,0.0,0.0,0.0,0.0,0.0,0.0,0.0,0.0,0.0,0.0,0.0,0.0,0.0,10.0211,10.0404,10.1019,10.1289,10.1289,10.1289,10.1289,10.1289,10.1289,10.1289,10.1289,10.1289,10.1289,10.1289,10.1289,10.1289,10.1289,10.1289,10.1289,10.1289,10.1289,10.1289,10.1289,10.1289,10.1289,10.1289,10.1289,10.1289,10.1289,10.1289,10.1289,10.1289,10.1289,10.1289,10.1289,10.1289,10.1289,10.1289,10.1289,10.1289,10.1289,10.1289,10.1289,10.1289,10.1289,10.1289,10.1289,10.1289,10.1289,10.1289,10.1289,10.1289,10.1289,10.1289,10.1289,10.1289,10.1289,10.1289,10.1289,10.1289,10.1289,10.1404,10.1597,10.1789,10.1904,10.1904,10.1904,10.1904,10.1904,10.1904,10.1904,10.1904,10.1904,10.1904,10.1904,10.1712,10.1597,10.1597,10.1404,10.1096,8.6094,8.6094,0.0,0.0,0.0,0.0,0.0,0.0,0.0,0.0,0.0,0.0,0.0,0.0,0.0,0.0,0.0,0.0,0.0,0.0,0.0,0.0,0.0,0.0,0.0,0.0,0.0,0.0,0.0,0.0,0.0,0.0,0.0,10.1212,10.1289,10.1289,10.1289,10.1289,10.1289,10.1289,10.1289,10.1289,10.1289,10.1289,10.1289,10.1289,10.1289,10.1289,10.1289,10.1289,10.1289,10.1289,10.1289,10.1289,10.1289,10.1289,10.1289,10.1289,10.1289,10.1289,10.1289,10.1289,10.1289,10.1289,10.1289,10.1289,10.1289,10.1289,10.1289,10.1289,10.1289,10.1289,10.1289,10.1289,10.1289,10.1289,10.1289,10.1289,10.1289,10.1289,10.1289,10.1289,10.1289,10.1289,10.1289,10.1289,10.1289,10.1289,10.1289,10.1289,10.1289,10.1289,10.1289,10.1597,10.2404,10.3212,10.3712,10.3712,10.3712,10.3674,10.3674,10.3675,10.3714,10.3714,10.3714,10.3714,10.3714,10.2905,10.252,10.252,10.1712,10.1289,8.6094,8.6094,0.0,0.0,0.0,0.0,0.0,0.0,0.0,0.0,0.0,0.0,0.0,0.0,0.0,0.0,0.0,0.0,0.0,0.0,0.0,0.0,0.0,0.0,0.0,0.0,0.0,0.0,0.0,0.0,0.0,0.0,0.0,10.1289,10.1289,10.1289,10.1289,10.1289,10.1289,10.1289,10.1289,10.1289,10.1289,10.1289,10.1289,10.1289,10.1289,10.1289,10.1289,10.1289,10.1289,10.1289,10.1289,10.1289,10.1289,10.1289,10.1289,10.1289,10.1289,10.1289,10.1289,10.1289,10.1289,10.1289,10.1289,10.1289,10.1289,10.1289,10.1289,10.1289,10.1289,10.1289,10.1289,10.1289,10.1289,10.1289,10.1289,10.1289,10.1289,10.1289,10.1289,10.1289,10.1289,10.1289,10.1289,10.1289,10.1289,10.1289,10.1289,10.1789,10.2097,10.2097,10.2597,10.3097,10.3405,10.4212,10.4597,10.4597,10.4212,10.3905,10.3905,10.3906,10.3906,10.3906,10.3905,10.3864,10.3864,10.3595,10.3405,10.3367,10.3098,10.2597,8.6126,8.6159,0.0,0.0,0.0,0.0,0.0,0.0,0.0,0.0,0.0,0.0,0.0,0.0,0.0,0.0,0.0,0.0,0.0,0.0,0.0,0.0,0.0,0.0,0.0,0.0,0.0,0.0,0.0,0.0,0.0,0.0,10.1328,10.1289,10.1289,10.1289,10.1289,10.1289,10.1289,10.1289,10.1289,10.1289,10.1289,10.1289,10.1289,10.1289,10.1289,10.1289,10.1289,10.1289,10.1289,10.1289,10.1289,10.1289,10.1289,10.1289,10.1289,10.1289,10.1289,10.1289,10.1289,10.1289,10.1289,10.1289,10.1289,10.1289,10.1289,10.1289,10.1289,10.1289,10.1289,10.1289,10.1289,10.1289,10.1289,10.1289,10.1289,10.1289,10.1289,10.1289,10.1289,10.1289,10.1289,10.152,10.1712,10.1712,10.1904,10.2097,10.2097,10.2597,10.2981,10.2981,10.3789,10.4289,10.4289,10.4982,10.5482,10.5482,10.4982,10.4713,10.4713,10.4713,10.4713,10.4713,10.471,10.471,10.471,10.44,10.4287,10.4291,10.4021,10.3597,8.6184,0.0,0.0,0.0,0.0,0.0,0.0,0.0,0.0,0.0,0.0,0.0,0.0,0.0,0.0,0.0,0.0,0.0,0.0,0.0,0.0,0.0,0.0,0.0,0.0,0.0,0.0,0.0,0.0,0.0,0.0,10.1518,10.1404,10.1289,10.1289,10.1289,10.1289,10.1289,10.1289,10.1289,10.1289,10.1289,10.1289,10.1289,10.1289,10.1289,10.1289,10.1289,10.1289,10.1289,10.1289,10.1289,10.1289,10.1289,10.1289,10.1289,10.1289,10.1289,10.1289,10.1289,10.1289,10.1289,10.1289,10.1289,10.1289,10.1289,10.1289,10.1289,10.1289,10.1289,10.1289,10.1289,10.1289,10.1289,10.1289,10.1289,10.1289,10.1289,10.1289,10.1289,10.1289,10.1289,10.1289,10.202,10.2597,10.2597,10.3289,10.3905,10.3905,10.3905,10.3905,10.3905,10.4597,10.5097,10.5097,10.5905,10.6405,10.6405,10.6405,10.6405,10.6405,10.6405,10.6405,10.6405,10.6405,10.6405,10.6405,10.548,10.5095,10.5095,10.4285,10.3901,8.6126,0.0,0.0,0.0,0.0,0.0,0.0,0.0,0.0,0.0,0.0,0.0,0.0,0.0,0.0,0.0,0.0,0.0,0.0,0.0,0.0,0.0,0.0,0.0,0.0,0.0,0.0,0.0,0.0,0.0,0.0,10.1516,10.1518,10.1404,10.1289,10.1289,10.1289,10.1289,10.1289,10.1289,10.1289,10.1289,10.1289,10.1289,10.1289,10.1289,10.1289,10.1289,10.1289,10.1289,10.1289,10.1289,10.1289,10.1289,10.1404,10.202,10.2212,10.2289,10.2904,10.3097,10.3097,10.3097,10.3097,10.3097,10.3097,10.3097,10.3097,10.3097,10.3097,10.3097,10.3097,10.3097,10.2981,10.2404,10.2212,10.2404,10.2981,10.3097,10.3097,10.3097,10.3097,10.3097,10.3097,10.3289,10.3482,10.3482,10.3712,10.4097,10.4713,10.4713,10.4982,10.5597,10.5905,10.602,10.602,10.629,10.6405,10.6405,10.6405,10.6405,10.6405,10.6405,10.6405,10.6405,10.6405,10.6405,10.6405,10.6097,10.602,10.602,10.5787,10.5287,0.0,0.0,0.0,0.0,0.0,0.0,0.0,0.0,0.0,0.0,0.0,0.0,0.0,0.0,0.0,0.0,0.0,0.0,0.0,0.0,0.0,0.0,0.0,0.0,0.0,0.0,0.0,0.0,0.0,0.0,0.0,10.1585,10.1591,10.1518,10.1404,10.1404,10.1289,10.1289,10.1289,10.1289,10.1289,10.1289,10.1289,10.1289,10.1289,10.1289,10.1289,10.1289,10.1289,10.1712,10.1789,10.1904,10.2212,10.2289,10.2404,10.2904,10.3097,10.3212,10.3712,10.3905,10.3905,10.3905,10.3905,10.3905,10.3905,10.3905,10.3905,10.3905,10.3905,10.3905,10.3905,10.3905,10.3789,10.3212,10.3097,10.3289,10.3789,10.3905,10.3905,10.3905,10.3905,10.3905,10.3905,10.4212,10.4405,10.4405,10.4713,10.5097,10.5597,10.5597,10.579,10.629,10.6405,10.6405,10.6405,10.6405,10.6405,10.6405,10.6405,10.6405,10.6405,10.6405,10.6405,10.6405,10.6405,10.6405,10.6405,10.6405,10.6405,10.6405,10.6405,10.6097,0.0,0.0,0.0,0.0,0.0,0.0,0.0,0.0,0.0,0.0,0.0,0.0,0.0,0.0,0.0,0.0,0.0,0.0,0.0,0.0,0.0,0.0,0.0,0.0,0.0,0.0,0.0,0.0,0.0,0.0,0.0,10.1683,10.1616,10.1516,10.1479,10.1404,10.1289,10.1289,10.1289,10.1289,10.1289,10.1289,10.1404,10.1289,10.1289,10.1404,10.1404,10.152,10.1597,10.2404,10.2712,10.2789,10.3597,10.3905,10.3905,10.3982,10.3982,10.3982,10.4097,10.4097,10.4097,10.4097,10.4097,10.4097,10.4097,10.4097,10.4097,10.4097,10.4097,10.4097,10.4097,10.4097,10.4097,10.4097,10.4097,10.3982,10.4097,10.4097,10.4097,10.4097,10.4097,10.4097,10.4097,10.4713,10.5213,10.5213,10.5905,10.6405,10.6405,10.6405,10.6405,10.6405,10.6405,10.6405,10.6405,10.6405,10.6405,10.6405,10.6405,10.6405,10.6405,10.6405,10.6405,10.6405,10.6405,10.6405,10.6405,10.6405,10.6405,10.6405,10.6405,10.6405,0.0,0.0,0.0,0.0,0.0,0.0,0.0,0.0,0.0,0.0,0.0,0.0,0.0,0.0,0.0,0.0,0.0,0.0,0.0,0.0,0.0,0.0,0.0,0.0,0.0,0.0,0.0,0.0,0.0,0.0,10.1896,10.1793,10.1688,10.1693,10.1591,10.1518,10.1481,10.1404,10.1289,0.0,10.1289,10.1712,10.2289,10.1597,10.1712,10.2289,10.2289,10.2712,10.3405,10.3482,10.3597,10.3597,10.3789,10.3905,10.3982,10.4597,10.4789,10.4905,10.5597,10.5905,10.5905,10.5905,10.5905,10.5905,10.5905,10.5905,10.5905,10.5905,10.5905,10.5905,10.5905,10.5905,10.5905,10.5905,10.529,10.4982,10.5713,10.5905,10.5905,10.5905,10.5905,10.5905,10.5905,10.602,10.6097,10.6097,10.629,10.6405,10.6405,10.6405,10.6405,10.6405,10.6405,10.6405,10.6405,10.6405,10.6405,10.6405,10.6405,10.6405,10.6405,10.6405,10.6405,10.6405,10.6405,10.6405,10.6405,10.6405,10.6405,10.6405,10.6405,10.6405,0.0,0.0,0.0,0.0,0.0,0.0,0.0,0.0,0.0,0.0,0.0,0.0,0.0,0.0,0.0,0.0,0.0,0.0,0.0,0.0,0.0,0.0,0.0,0.0,0.0,0.0,0.0,0.0,0.0,10.1889,10.1889,10.1819,10.1793,10.1683,10.1585,10.1478,10.1518,10.1404,10.152,10.1904,10.1904,10.2404,10.3212,10.2789,10.2789,10.3212,10.3212,10.3482,10.3905,10.4289,10.4482,10.4482,10.4905,10.5097,10.5097,10.5597,10.5713,10.579,10.6213,10.6405,10.6405,10.6405,10.6405,10.6405,10.6405,10.6405,10.6405,10.6405,10.6405,10.6405,10.6405,10.6405,10.6405,10.6405,10.6097,10.579,10.629,10.6405,10.6405,10.6405,10.6405,10.6405,10.6405,10.6405,10.6405,10.6405,10.6405,10.6405,10.6405,10.6405,10.6405,10.6405,10.6405,10.6405,10.6405,10.6405,10.6405,10.6405,10.6405,10.6405,10.6405,10.6405,10.6405,10.6405,10.6405,10.6405,10.6405,10.6405,10.6405,10.6405,10.6405,10.6405,0.0,0.0,0.0,0.0,0.0,0.0,0.0,0.0,0.0,0.0,0.0,0.0,0.0,0.0,0.0,0.0,0.0,0.0,0.0,0.0,0.0,0.0,0.0,0.0,0.0,0.0,0.0,0.0,0.0,10.1889,10.1889,10.1889,10.178,10.1716,10.1693,10.1704,10.1709,10.1597,10.202,10.2828,10.3021,10.3366,10.4097,10.4289,10.4212,10.4097,10.4097,10.4212,10.4405,10.4982,10.529,10.5405,10.6097,10.6405,10.6405,10.6405,10.6405,10.6405,10.6405,10.6405,10.6405,10.6405,10.6405,10.6405,10.6405,10.6405,10.6405,10.6405,10.6405,10.6405,10.6405,10.6405,10.6405,10.6405,10.6405,10.6405,10.6405,10.6405,10.6405,10.6405,10.6405,10.6405,10.6405,10.6405,10.6405,10.6405,10.6405,10.6405,10.6405,10.6405,10.6405,10.6405,10.6405,10.6405,10.6405,10.6405,10.6405,10.6405,10.6405,10.6405,10.6405,10.6405,10.6405,10.6405,10.6405,10.6405,10.6405,10.6405,10.6405,10.6405,10.6405,10.6405,0.0,0.0,0.0,0.0,0.0,0.0,0.0,0.0,0.0,0.0,0.0,0.0,0.0,0.0,0.0,0.0,0.0,0.0,0.0,0.0,0.0,0.0,0.0,0.0,0.0,0.0,0.0,0.0,10.1889,10.1889,10.1889,10.1889,10.1889,10.1928,10.1793,10.2002,10.2668,10.2595,10.2983,10.3791,10.46,10.4869,10.4982,10.5713,10.5713,10.4905,10.4905,10.5405,10.6097,10.6213,10.6213,10.6213,10.6405,10.6405,10.6405,10.6405,10.6405,10.6405,10.6405,10.6405,10.6405,10.6405,10.6405,10.6405,10.6405,10.6405,10.6405,10.6405,10.6405,10.6405,10.6405,10.6405,10.6405,10.6405,10.6405,10.6405,10.6405,10.6405,10.6405,10.6405,10.6405,10.6405,10.6405,10.6405,10.6405,10.6405,10.6405,10.6405,10.6405,10.6405,10.6405,10.6405,10.6405,10.6405,10.6405,10.6405,10.6405,10.6405,10.6405,10.6405,10.6405,10.6405,10.6405,10.6405,10.6405,10.6405,10.6405,10.6405,10.6405,10.6405,10.6405,10.6405,0.0,0.0,0.0,0.0,0.0,0.0,0.0,0.0,0.0,0.0,0.0,0.0,0.0,0.0,0.0,0.0,0.0,0.0,0.0,0.0,0.0,0.0,0.0,0.0,0.0,0.0,0.0,0.0,10.1889,10.1889,10.1889,10.1889,10.1889,10.1889,10.218,10.2576,10.3006,10.3321,10.3981,10.4791,10.5678,10.5987,10.587,10.6294,10.6176,10.579,10.579,10.602,10.6405,10.6405,10.6405,10.6405,10.6405,10.6405,10.6405,10.6405,10.6405,10.6405,10.6405,10.6405,10.6405,10.6405,10.6405,10.6405,10.6405,10.6405,10.6405,10.6405,10.6405,10.6405,10.6405,10.6405,10.6405,10.6405,10.6405,10.6405,10.6405,10.6405,10.6405,10.6405,10.6405,10.6405,10.6405,10.6405,10.6405,10.6405,10.6405,10.6405,10.6405,10.6405,10.6405,10.6405,10.6405,10.6405,10.6405,10.6405,10.6405,10.6405,10.6405,10.6405,10.6405,10.6405,10.6405,10.6405,10.6405,10.6405,10.6405,10.6405,10.6405,10.6405,10.6405,10.6405,0.0,0.0,0.0,0.0,0.0,0.0,0.0,0.0,0.0,0.0,0.0,0.0,0.0,0.0,0.0,0.0,0.0,0.0,0.0,0.0,0.0,0.0,0.0,0.0,0.0,0.0,0.0,0.0,10.1889,10.1889,10.1889,10.1889,10.2005,10.2199,10.2792,10.3223,10.3692,10.4511,10.5209,10.5713,10.6406,10.6716,10.6488,10.6488,10.6487,10.6525,10.6367,10.6405,10.6405,10.6405,10.6405,10.6405,10.6405,10.6405,10.6405,10.6405,10.6405,10.6405,10.6405,10.6405,10.6405,10.6405,10.6405,10.6405,10.6405,10.6405,10.6405,10.6405,10.6405,10.6405,10.6405,10.6405,10.6405,10.6405,10.6405,10.6405,10.6405,10.6405,10.6405,10.6405,10.6405,10.6405,10.6405,10.6405,10.6405,10.6405,10.6405,10.6405,10.6405,10.6405,10.6405,10.6405,10.6405,10.6405,10.6405,10.6405,10.6405,10.6405,10.6405,10.6405,10.6405,10.6405,10.6405,10.6405,10.6405,10.6405,10.6405,10.6405,10.6405,10.6405,10.6405,10.6405,0.0,0.0,0.0,0.0,0.0,0.0,0.0,0.0,0.0,0.0,0.0,0.0,0.0,0.0,0.0,0.0,0.0,0.0,0.0,0.0,0.0,0.0,0.0,0.0,0.0,0.0,0.0,0.0,10.1889,10.1889,10.1889,10.1889,10.2315,10.3088,10.3204,10.3907,10.5392,10.6319,10.6673,10.6601,10.6673,10.6789,10.6716,10.6603,10.6603,10.6679,10.6486,10.6405,10.6405,10.6405,10.6405,10.6405,10.6405,10.6405,10.6405,10.6405,10.6405,10.6405,10.6405,10.6405,10.6405,10.6405,10.6405,10.6405,10.6405,10.6405,10.6405,10.6405,10.6405,10.6405,10.6405,10.6405,10.6405,10.6405,10.6405,10.6405,10.6405,10.6405,10.6405,10.6405,10.6405,10.6405,10.6405,10.6405,10.6405,10.6405,10.6405,10.6405,10.6405,10.6405,10.6405,10.6405,10.6405,10.6405,10.6405,10.6405,10.6405,10.6405,10.6405,10.6405,10.6405,10.6405,10.6405,10.6405,10.6405,10.6405,10.6405,10.6405,10.6405,10.6405,10.6405,10.6405,0.0,0.0,0.0,0.0,0.0,0.0,0.0,0.0,0.0,0.0,0.0,0.0,0.0,0.0,0.0,0.0,0.0,0.0,0.0,0.0,0.0,0.0,0.0,0.0,0.0,0.0,0.0,0.0,0.0,10.1889,10.1889,10.1889,10.2315,10.3204,10.3707,10.4829,10.6498,10.6807,10.689,10.6894,10.689,10.6894,10.6789,10.6676,10.6714,10.6716,10.6603,10.6603,10.6603,10.6487,10.6526,10.6486,10.6407,10.6405,10.6405,10.6405,10.6405,10.6405,10.6405,10.6405,10.6405,10.6405,10.6405,10.6405,10.6405,10.6405,10.6405,10.6405,10.6405,10.6405,10.6405,10.6405,10.6405,10.6405,10.6405,10.6405,10.6405,10.6405,10.6405,10.6405,10.6405,10.6405,10.6405,10.6405,10.6405,10.6405,10.6405,10.6405,10.6405,10.6405,10.6405,10.6405,10.6405,10.6405,10.6405,10.6405,10.6405,10.6405,10.6405,10.6405,10.6405,10.6405,10.6405,10.6405,10.6405,10.6405,10.6405,10.6405,10.6405,10.6405,10.6405,10.6405,0.0,0.0,0.0,0.0,0.0,0.0,0.0,0.0,0.0,0.0,0.0,0.0,0.0,0.0,0.0,0.0,0.0,0.0,0.0,0.0,0.0,0.0,0.0,0.0,0.0,0.0,0.0,0.0,0.0,0.0,10.1889,10.2199,10.2895,10.4017,10.479,10.5796,10.6995,10.6995,10.6995,10.6995,10.6995,10.7001,10.6894,10.6783,10.6786,10.6825,10.6828,10.6714,10.6716,10.6603,10.6488,10.6488,10.6486,10.6407,10.6405,10.6405,10.6405,10.6405,10.6405,10.6405,10.6405,10.6405,10.6405,10.6405,10.6405,10.6405,10.6405,10.6405,10.6405,10.6405,10.6405,10.6405,10.6405,10.6405,10.6405,10.6405,10.6405,10.6405,10.6405,10.6405,10.6405,10.6405,10.6405,10.6405,10.6405,10.6405,10.6405,10.6405,10.6405,10.6405,10.6405,10.6405,10.6405,10.6405,10.6405,10.6405,10.6405,10.6405,10.6405,10.6405,10.6405,10.6405,10.6521,10.679,10.679,10.6982,10.7175,10.6713,10.6405,10.6405,10.6405,10.6405,0.0,0.0,0.0,0.0,0.0,0.0,0.0,0.0,0.0,0.0,0.0,0.0,0.0,0.0,0.0,0.0,0.0,0.0,0.0,0.0,0.0,0.0,0.0,0.0,0.0,0.0,0.0,0.0,10.1889,10.1889,10.1889,10.2701,10.4017,10.5603,10.6492,10.6995,10.6995,10.6995,10.6995,10.6995,10.6995,10.6995,10.6995,10.6894,10.6894,10.6995,10.6894,10.6825,10.6678,10.6678,10.6602,10.6488,10.6488,10.6486,10.6405,10.6405,10.6405,10.6405,10.6405,10.6405,10.6405,10.6405,10.6405,10.6405,10.6405,10.6405,10.6405,10.6405,10.6405,10.6405,10.6405,10.6405,10.6405,10.6405,10.6405,10.6405,10.6405,10.6405,10.6405,10.6405,10.6405,10.6405,10.6405,10.6405,10.6405,10.6405,10.6405,10.6405,10.6405,10.6405,10.6405,10.6405,10.6405,10.6405,10.6405,10.6405,10.6405,10.6521,10.6521,10.6521,10.6521,10.6521,10.6905,10.7716,10.7716,10.8101,10.8911,10.729,10.6521,10.6521,10.6521,10.6521,9.0323,0.0,0.0,0.0,0.0,0.0,0.0,0.0,0.0,0.0,0.0,0.0,0.0,0.0,0.0,0.0,0.0,0.0,0.0,0.0,0.0,0.0,0.0,0.0,0.0,0.0,0.0,0.0,10.1889,10.1889,10.1889,10.3282,10.4597,10.5719,10.6492,10.6995,10.6995,10.6995,10.6995,10.6995,10.6995,10.6995,10.6995,10.7001,10.7001,10.6995,10.7001,10.6923,10.689,10.6821,10.6676,10.6602,10.6526,10.6486,10.6405,10.6405,10.6405,10.6405,10.6405,10.6405,10.6405,10.6405,10.6405,10.6405,10.6405,10.6405,10.6405,10.6405,10.6405,10.6405,10.6405,10.6405,10.6405,10.6405,10.6405,10.6405,10.6405,10.6405,10.6405,10.6405,10.6405,10.6405,10.6405,10.6405,10.6405,10.6405,10.6405,10.6405,10.6405,10.6405,10.6405,10.6405,10.6405,10.6713,10.729,10.729,10.7598,10.8175,10.8216,10.8178,10.8178,10.8178,10.8293,10.8601,10.8598,10.871,10.8902,10.8367,10.8178,10.8178,10.8178,10.8178,0.0,0.0,0.0,0.0,0.0,0.0,9.4655,9.5816,9.6783,0.0,0.0,0.0,0.0,0.0,0.0,0.0,0.0,0.0,0.0,0.0,0.0,0.0,0.0,0.0,0.0,10.1889,10.1889,10.1889,10.1889,10.2199,10.2895,10.421,10.5293,10.6183,10.6686,10.6995,10.6995,10.6995,10.6995,10.6995,10.6995,10.6995,10.6995,10.6995,10.6995,10.6995,10.6995,10.6995,10.6995,10.689,10.6786,10.6716,10.6603,10.6487,10.6405,10.6405,10.6405,10.6405,10.6405,10.6405,10.6405,10.6405,10.6405,10.6405,10.6405,10.6405,10.6405,10.6405,10.6405,10.6405,10.6405,10.6405,10.6405,10.6405,10.6405,10.6405,10.6405,10.6405,10.6405,10.6405,10.6405,10.6405,10.6405,10.6405,10.6405,10.6405,10.6405,10.6521,10.6905,10.6905,10.7098,10.7405,10.7405,10.7598,10.8175,10.8175,10.8409,10.8909,10.887,10.8909,10.8906,10.8906,10.9098,10.9367,10.9402,10.959,11.0017,10.9329,10.8906,10.8906,10.8906,10.8906,0.0,0.0,0.0,0.0,0.0,0.0,9.5313,9.6164,9.6783,9.6783,0.0,0.0,0.0,0.0,0.0,0.0,0.0,0.0,0.0,0.0,0.0,0.0,0.0,0.0,10.1889,10.1889,10.1889,10.1889,10.2005,10.2701,10.4287,10.5216,10.6105,10.6995,10.6995,10.6995,10.6995,10.6995,10.6995,10.6995,10.6995,10.6995,10.6995,10.6995,10.6995,10.6995,10.6995,10.6995,10.6995,10.7111,10.701,10.6678,10.6678,10.6603,10.6405,10.6405,10.6405,10.6405,10.6405,10.6405,10.6405,10.6405,10.6405,10.6405,10.6405,10.6405,10.6405,10.6405,10.6405,10.6405,10.6405,10.6405,10.6405,10.6521,10.6521,10.6597,10.6713,10.6713,10.6713,10.6713,10.6597,10.6597,10.6713,10.6713,10.6713,10.6713,10.6713,10.7021,10.7713,10.779,10.8098,10.879,10.8906,10.8906,10.8983,10.8983,10.9101,10.9178,10.9178,10.9175,10.9205,10.9205,10.959,11.0286,11.0286,11.0671,11.1522,10.9902,10.9205,10.9205,10.9205,10.9205,0.0,0.0,0.0,0.0,0.0,0.0,9.5468,9.6164,9.6783,0.0,9.6783,0.0,0.0,0.0,0.0,0.0,0.0,0.0,0.0,0.0,0.0,0.0,10.0187,10.1077,10.1812,10.1889,10.1889,10.1889,10.2508,10.3398,10.4287,10.5216,10.6105,10.6995,10.6995,10.6995,10.6995,10.6995,10.6995,10.6995,10.6995,10.6995,10.6995,10.6995,10.6995,10.6995,10.6995,10.6995,10.7111,10.7807,10.7508,10.6786,10.6714,10.6603,10.6487,10.6407,10.6405,10.6405,10.6405,10.6405,10.6405,10.6405,10.6405,10.6405,10.6405,10.6405,10.6405,10.6405,10.6405,10.6405,10.6405,10.6405,10.6597,10.729,10.7405,10.7598,10.829,10.8406,10.8406,10.8406,10.7905,10.7713,10.829,10.8406,10.8406,10.8406,10.8406,10.8482,10.8598,10.8713,10.8713,10.8906,10.8906,10.9213,10.9906,10.9909,11.0217,11.0906,11.0983,11.0983,11.0978,11.0978,11.1137,11.1214,11.1214,11.1329,11.1522,11.1214,11.0978,11.0978,11.0978,11.0978,0.0,0.0,0.0,9.4153,0.0,0.0,0.0,9.6474,9.6783,9.6783,9.6783,0.0,0.0,0.0,0.0,0.0,0.0,0.0,9.7557,9.7827,9.8408,9.922,10.011,10.0883,10.1812,10.1889,10.1889,10.1889,10.3088,10.4017,10.4403,10.5603,10.6492,10.6995,10.6995,10.6995,10.6995,10.6995,10.6995,10.6995,10.6995,10.6995,10.6995,10.6995,10.7189,10.7614,10.7614,10.7885,10.831,10.8697,10.8586,10.8127,10.8025,10.7875,10.7798,10.7716,10.7598,10.7598,10.7598,10.7598,10.7598,10.7598,10.7598,10.7598,10.7598,10.7598,10.7598,10.7598,10.7598,10.7598,10.7598,10.7598,10.779,10.8213,10.829,10.8406,10.879,10.8906,10.8983,10.9483,10.9213,10.8906,10.8906,10.8906,10.8906,10.8906,10.8906,10.9098,10.9483,10.9483,10.9713,11.0214,11.0214,11.0406,11.0791,11.0791,11.0983,11.1522,11.1522,11.1522,11.1522,11.1522,11.1522,11.1522,11.1522,11.1522,11.1522,11.1522,11.1522,11.1522,11.1522,11.1522,0.0,0.0,0.0,0.0,0.0,9.5971,0.0,0.0,0.0,9.6783,0.0,0.0,0.0,0.0,0.0,0.0,0.0,0.0,0.0,9.7982,0.0,9.8988,9.9839,10.069,10.158,10.1812,10.1889,10.1889,10.3514,10.4403,10.4403,10.6105,10.6995,10.6995,10.6995,10.6995,10.6995,10.6995,10.6995,10.6995,10.6995,10.7111,10.7305,10.7305,10.7691,10.8504,10.8504,10.8891,10.9509,10.9703,10.9819,10.9669,10.9412,10.9224,10.907,10.8988,10.8909,10.8909,10.8906,10.8906,10.8906,10.8906,10.8906,10.8906,10.8906,10.8906,10.8906,10.8906,10.8906,10.8906,10.8906,10.8906,10.8906,10.9098,10.9213,10.9213,10.9406,10.9406,10.9598,11.0291,11.0483,11.0214,10.9483,10.9406,10.9406,10.9406,10.9406,10.9713,11.0406,11.0483,11.0714,11.1406,11.1522,11.1522,11.1522,11.1522,11.1522,11.1522,11.1522,11.1522,11.1522,11.1522,11.1522,11.1522,11.1522,11.1522,11.1522,11.1522,11.1522,11.1522,11.1522,11.1522,0.0,0.0,0.0,0.0,9.628,0.0,0.0,0.0,9.6783,9.6783,0.0,0.0,0.0,0.0,0.0,0.0,0.0,0.0,9.7286,9.7595,9.8137,9.8214,9.8949,9.98,10.069,10.1386,10.1889,10.1889,10.3514,10.4403,10.4403,10.6105,10.6995,10.6995,10.6995,10.6995,10.6995,10.6995,10.6995,10.6995,10.6995,10.7382,10.8194,10.8194,10.8581,10.9393,10.9393,10.9393,10.9587,11.0322,11.0709,11.0593,10.9716,10.941,10.9296,10.9109,10.9108,10.9068,10.8909,10.8906,10.8906,10.8906,10.8906,10.8906,10.8906,10.8906,10.8906,10.8906,10.8906,10.8906,10.8906,10.8906,10.9098,10.9906,11.0098,11.0291,11.1021,11.1214,11.1214,11.1291,11.1406,11.1291,11.1214,11.1214,11.1214,11.1214,11.1214,11.1214,11.1291,11.1406,11.1406,11.1522,11.1522,11.1522,11.1522,11.1522,11.1522,11.1522,11.1522,11.1522,11.1522,11.1522,11.1522,11.1522,11.1522,11.1522,11.1522,11.1522,11.1522,11.1522,11.1522,11.1522,0.0,0.0,0.0,0.0,0.0,0.0,0.0,0.0,9.6938,0.0,0.0,0.0,0.0,0.0,0.0,0.0,10.069,0.0,0.0,0.0,9.8098,0.0,0.0,0.0,10.1193,10.1696,10.1889,10.1889,10.3514,10.4403,10.4403,10.6105,10.6995,10.6995,10.6995,10.6995,10.6995,10.6995,10.6995,10.6995,10.7498,10.7885,10.831,10.8813,10.9509,11.0283,11.0283,11.0515,11.1018,11.1405,11.1598,11.1521,11.11,11.0875,11.08,11.069,11.0573,11.0495,11.0492,11.0371,11.0406,11.0406,11.0406,11.0406,11.0406,11.0406,11.0406,11.0406,11.0406,11.0406,11.0406,11.0406,11.0521,11.0906,11.0983,11.1098,11.1406,11.1522,11.1522,11.1522,11.1522,11.1522,11.1522,11.1522,11.1522,11.1522,11.1522,11.1522,11.1522,11.1522,11.1522,11.1522,11.1522,11.1522,11.1522,11.1522,11.1522,11.1522,11.1522,11.1522,11.1522,11.1522,11.1522,11.1522,11.1522,11.1522,11.1522,11.1522,11.1522,11.1522,11.1522,11.1522,9.7383,0.0,0.0,0.0,0.0,0.0,0.0,0.0,0.0,0.0,0.0,0.0,0.0,0.0,0.0,0.0,0.0,10.069,0.0,0.0,0.0,0.0,0.0,0.0,0.0,10.1812,10.1889,10.1889,10.3514,10.4403,10.4403,10.6105,10.6995,10.6995,10.6995,10.6995,10.6995,10.6995,10.7111,10.7382,10.8001,10.8504,10.9007,10.9587,11.0322,11.1211,11.1211,11.1521,11.2101,11.2101,11.2101,11.2101,11.2101,11.2028,11.1918,11.1885,11.1809,11.1692,11.1573,11.1606,11.1522,11.1522,11.1522,11.1522,11.1522,11.1522,11.1522,11.1522,11.1522,11.1522,11.1522,11.1522,11.1522,11.1522,11.1522,11.1522,11.1522,11.1522,11.1522,11.1522,11.1522,11.1522,11.1522,11.1522,11.1522,11.1522,11.1522,11.1522,11.1522,11.1522,11.1522,11.1522,11.1522,11.1522,11.1522,11.1522,11.1522,11.1522,11.1522,11.1522,11.1522,11.1522,11.1522,11.1522,11.1522,11.1522,11.1522,11.1522,11.1522,11.1522,11.1522,11.1522,0.0,0.0,0.0,0.0,0.0,0.0,0.0,0.0,9.9521,0.0,0.0,0.0,0.0,0.0,0.0,0.0,0.0,0.0,0.0,0.0,0.0,0.0,0.0,0.0,0.0,10.1386,10.1889,10.1889,10.3514,10.4403,10.4403,10.6105,10.6995,10.6995,10.6995,10.6995,10.6995,10.6995,10.7382,10.831,10.831,10.9084,11.0709,11.0709,11.1211,11.2101,11.2101,11.2101,11.2101,11.2101,11.2101,11.2101,11.2101,11.2101,11.2067,11.1918,11.1921,11.1884,11.1692,11.1606,11.1522,11.1522,11.1522,11.1522,11.1522,11.1522,11.1522,11.1522,11.1522,11.1522,11.1522,11.1522,11.1522,11.1522,11.1522,11.1522,11.1522,11.1522,11.1522,11.1522,11.1522,11.1522,11.1522,11.1522,11.1522,11.1522,11.1522,11.1522,11.1522,11.1522,11.1522,11.1522,11.1522,11.1522,11.1522,11.1522,11.1522,11.1522,11.1522,11.1522,11.1522,11.1522,11.1522,11.1522,11.1522,11.1522,11.1522,11.1522,11.1522,11.1522,11.1522,11.1522,0.0,0.0,9.9492,9.9726,0.0,0.0,0.0,0.0,0.0,0.0,0.0,0.0,0.0,0.0,0.0,0.0,0.0,0.0,0.0,0.0,0.0,0.0,0.0,0.0,0.0,0.0,10.1889,10.1889,10.3514,10.4403,10.4403,10.6105,10.6995,10.6995,10.6995,10.6995,10.6995,10.6995,10.7382,10.831,10.8813,10.9703,11.0786,11.1405,11.1792,11.2101,11.2101,11.2101,11.2101,11.2101,11.2101,11.2101,11.2101,11.2101,11.2101,11.1989,11.2031,11.1884,11.1692,11.1606,11.1522,11.1522,11.1522,11.1522,11.1522,11.1522,11.1522,11.1522,11.1522,11.1522,11.1522,11.1522,11.1522,11.1522,11.1522,11.1522,11.1522,11.1522,11.1522,11.1522,11.1522,11.1522,11.1522,11.1522,11.1522,11.1522,11.1522,11.1522,11.1522,11.1522,11.1522,11.1522,11.1522,11.1522,11.1522,11.1522,11.1522,11.1522,11.1522,11.1522,11.1522,11.1522,11.1522,11.1522,11.1522,11.1522,11.1522,11.1522,11.1522,11.1522,11.1522,11.1522,10.0312,10.0312,0.0,10.0703,10.0703,0.0,10.1015,0.0,0.0,0.0,0.0,0.0,0.0,0.0,0.0,10.2005,10.1889,0.0,0.0,10.0187,0.0,0.0,0.0,0.0,0.0,0.0,10.1889,10.1889,10.3204,10.4094,10.4403,10.5796,10.6686,10.6995,10.6995,10.6995,10.6995,10.7305,10.7885,10.8697,10.9587,11.0399,11.1289,11.1792,11.2101,11.2101,11.2101,11.2101,11.2101,11.2101,11.2101,11.2101,11.2101,11.2101,11.2101,11.2101,11.2031,11.1808,11.1732,11.1609,11.1522,11.1522,11.1522,11.1522,11.1522,11.1522,11.1598,11.1791,11.1714,11.1598,11.1906,11.1714,11.1522,11.1522,11.1522,11.1522,11.1522,11.1522,11.1522,11.1522,11.1522,11.1522,11.1522,11.1522,11.1522,11.1522,11.1522,11.1522,11.1522,11.1522,11.1522,11.1522,11.1522,11.1522,11.1522,11.1522,11.1522,11.1522,11.1522,11.1522,11.1522,11.1522,11.1522,11.1522,11.1522,11.1522,11.1522,11.1522,11.1522,11.1522,11.1522,11.1522]},{"header":{"parameterUnit":"m.s-1","parameterCategory":1,"la1":30.6,"la2":29.2853,"lo1":-89.7004,"lo2":-87.6739,"dx":0.0162,"dy":0.0183,"nx":112,"ny":82,"refTime":"2023-02-13T06:00:00:Z","depth":0,"parameterNumber":3,"parameterNumberName":"V-component_of_WINDS"},"data":[0.0,0.0,0.0,0.0,0.0,0.0,0.0,0.0,0.0,0.0,0.0,0.0,0.0,0.0,0.0,0.0,0.0,0.0,0.0,0.0,0.0,0.0,0.0,0.0,0.0,0.0,0.0,0.0,0.0,0.0,0.0,0.0,0.0,0.0,0.0,0.0,0.0,0.0,0.0,0.0,0.0,0.0,0.0,0.0,0.0,0.0,0.0,0.0,0.0,0.0,0.0,0.0,0.0,0.0,0.0,0.0,0.0,0.0,0.0,0.0,0.0,0.0,0.0,0.0,0.0,0.0,0.0,0.0,0.0,0.0,0.0,0.0,0.0,0.0,0.0,0.0,0.0,0.0,0.0,0.0,0.0,0.0,0.0,0.0,0.0,0.0,0.0,0.0,0.0,0.0,0.0,-1.4476,-1.4299,-1.4299,-1.4299,-1.4299,-1.5175,-1.6912,0.0,0.0,0.0,0.0,0.0,0.0,0.0,0.0,0.0,0.0,0.0,0.0,0.0,0.0,0.0,0.0,0.0,0.0,0.0,0.0,0.0,0.0,0.0,0.0,0.0,0.0,0.0,0.0,0.0,0.0,0.0,0.0,0.0,0.0,0.0,0.0,0.0,0.0,0.0,0.0,0.0,0.0,0.0,0.0,0.0,0.0,0.0,0.0,0.0,0.0,0.0,0.0,0.0,0.0,0.0,0.0,0.0,0.0,0.0,0.0,0.0,0.0,0.0,0.0,0.0,0.0,0.0,0.0,0.0,0.0,0.0,0.0,0.0,0.0,0.0,0.0,0.0,0.0,0.0,0.0,0.0,0.0,0.0,0.0,0.0,0.0,0.0,0.0,0.0,0.0,0.0,0.0,0.0,0.0,0.0,0.0,0.0,0.0,0.0,0.0,0.0,0.0,0.0,0.0,-1.4653,-1.4299,-1.4299,-1.4299,-1.4299,-1.4299,-1.5175,-1.6912,0.0,0.0,0.0,0.0,0.0,0.0,0.0,0.0,0.0,0.0,0.0,0.0,0.0,0.0,0.0,0.0,0.0,0.0,0.0,0.0,0.0,0.0,0.0,0.0,0.0,0.0,0.0,0.0,0.0,0.0,0.0,0.0,0.0,0.0,0.0,0.0,0.0,0.0,0.0,0.0,0.0,0.0,0.0,0.0,0.0,0.0,0.0,0.0,0.0,0.0,0.0,0.0,0.0,0.0,0.0,0.0,0.0,0.0,0.0,0.0,0.0,0.0,0.0,0.0,0.0,0.0,0.0,0.0,0.0,0.0,0.0,0.0,0.0,0.0,0.0,0.0,0.0,0.0,0.0,0.0,0.0,0.0,0.0,0.0,0.0,0.0,0.0,0.0,0.0,0.0,0.0,0.0,0.0,0.0,0.0,0.0,0.0,0.0,0.0,0.0,0.0,0.0,0.0,-1.4822,-1.4299,-1.4299,-1.4299,-1.4299,-1.4299,-1.4299,-1.5175,-1.6912,-1.7088,0.0,0.0,0.0,0.0,0.0,0.0,0.0,0.0,0.0,0.0,0.0,0.0,0.0,0.0,0.0,0.0,0.0,0.0,0.0,0.0,0.0,0.0,0.0,0.0,0.0,0.0,0.0,0.0,0.0,0.0,0.0,0.0,0.0,0.0,0.0,0.0,0.0,0.0,0.0,0.0,0.0,0.0,0.0,0.0,0.0,0.0,0.0,0.0,0.0,0.0,0.0,0.0,0.0,0.0,0.0,0.0,0.0,0.0,0.0,0.0,0.0,0.0,0.0,0.0,0.0,0.0,0.0,0.0,0.0,0.0,0.0,0.0,0.0,0.0,0.0,0.0,0.0,0.0,0.0,0.0,0.0,0.0,0.0,0.0,0.0,0.0,0.0,0.0,0.0,0.0,0.0,0.0,0.0,0.0,0.0,0.0,0.0,0.0,0.0,0.0,0.0,0.0,-1.4299,-1.4299,-1.4299,-1.4299,-1.4299,-1.4299,-1.4299,-1.4822,-1.6393,-1.692,0.0,0.0,0.0,0.0,0.0,0.0,0.0,0.0,0.0,0.0,0.0,0.0,0.0,0.0,0.0,0.0,0.0,0.0,0.0,0.0,0.0,0.0,0.0,0.0,0.0,0.0,0.0,0.0,0.0,0.0,0.0,0.0,0.0,0.0,0.0,0.0,0.0,0.0,0.0,0.0,0.0,0.0,0.0,0.0,0.0,0.0,0.0,0.0,0.0,0.0,0.0,0.0,0.0,0.0,0.0,0.0,0.0,0.0,0.0,0.0,0.0,0.0,0.0,0.0,0.0,0.0,0.0,0.0,0.0,0.0,0.0,0.0,0.0,0.0,0.0,0.0,0.0,0.0,0.0,0.0,0.0,0.0,0.0,0.0,0.0,0.0,0.0,0.0,0.0,0.0,0.0,0.0,0.0,0.0,0.0,0.0,0.0,0.0,0.0,0.0,0.0,0.0,-1.4299,-1.4299,-1.4299,-1.4299,-1.4299,-1.4299,-1.4299,-1.4299,-1.4476,-1.6042,0.0,0.0,0.0,0.0,0.0,0.0,0.0,0.0,0.0,0.0,0.0,0.0,0.0,0.0,0.0,0.0,0.0,0.0,0.0,0.0,0.0,0.0,0.0,0.0,0.0,0.0,0.0,0.0,0.0,0.0,0.0,0.0,0.0,0.0,0.0,0.0,0.0,0.0,0.0,0.0,0.0,0.0,0.0,0.0,0.0,0.0,0.0,0.0,0.0,0.0,0.0,0.0,0.0,0.0,0.0,0.0,0.0,0.0,0.0,0.0,0.0,0.0,0.0,0.0,0.0,0.0,0.0,0.0,0.0,0.0,0.0,0.0,0.0,0.0,0.0,0.0,0.0,0.0,0.0,0.0,0.0,0.0,0.0,0.0,0.0,0.0,0.0,0.0,0.0,0.0,0.0,0.0,0.0,0.0,0.0,0.0,0.0,0.0,0.0,0.0,0.0,0.0,-1.4299,-1.4299,0.0,-1.4299,-1.4333,-1.4428,-1.4434,-1.5005,-1.6167,0.0,0.0,0.0,0.0,0.0,0.0,0.0,0.0,0.0,0.0,0.0,0.0,0.0,0.0,0.0,0.0,0.0,0.0,0.0,0.0,0.0,0.0,0.0,0.0,0.0,0.0,0.0,0.0,0.0,0.0,0.0,0.0,0.0,0.0,0.0,0.0,0.0,0.0,0.0,0.0,0.0,0.0,0.0,0.0,0.0,0.0,0.0,0.0,0.0,0.0,0.0,0.0,0.0,0.0,0.0,0.0,0.0,0.0,0.0,0.0,0.0,0.0,0.0,0.0,0.0,0.0,0.0,0.0,0.0,0.0,0.0,0.0,0.0,0.0,0.0,0.0,0.0,0.0,0.0,0.0,0.0,0.0,0.0,0.0,0.0,0.0,0.0,0.0,0.0,0.0,0.0,0.0,0.0,0.0,0.0,0.0,0.0,0.0,0.0,0.0,0.0,0.0,-1.4367,-1.4407,-1.4441,0.0,-1.4441,-1.4482,-1.4577,-1.4584,-1.5167,-1.6529,0.0,0.0,0.0,0.0,0.0,0.0,0.0,0.0,0.0,0.0,0.0,0.0,0.0,0.0,0.0,0.0,0.0,0.0,0.0,0.0,0.0,0.0,0.0,0.0,0.0,0.0,0.0,0.0,0.0,0.0,0.0,0.0,0.0,0.0,0.0,0.0,0.0,0.0,0.0,0.0,0.0,0.0,0.0,0.0,0.0,0.0,0.0,0.0,0.0,0.0,0.0,0.0,0.0,0.0,0.0,0.0,0.0,0.0,0.0,0.0,0.0,0.0,0.0,0.0,0.0,0.0,0.0,0.0,0.0,0.0,0.0,0.0,0.0,0.0,0.0,0.0,0.0,0.0,0.0,0.0,0.0,0.0,0.0,0.0,0.0,0.0,0.0,0.0,0.0,0.0,0.0,0.0,0.0,0.0,0.0,0.0,0.0,0.0,0.0,0.0,0.0,0.0,-1.4516,-1.4645,-1.474,-1.474,-1.474,-1.474,-1.474,-1.474,-1.474,0.0,0.0,0.0,0.0,0.0,0.0,0.0,0.0,0.0,0.0,0.0,0.0,0.0,0.0,0.0,0.0,0.0,0.0,0.0,0.0,0.0,0.0,0.0,0.0,0.0,0.0,0.0,0.0,0.0,0.0,0.0,0.0,0.0,0.0,0.0,0.0,0.0,0.0,0.0,0.0,0.0,0.0,0.0,0.0,0.0,0.0,0.0,0.0,0.0,0.0,0.0,0.0,0.0,0.0,0.0,0.0,0.0,0.0,0.0,0.0,0.0,0.0,0.0,0.0,0.0,0.0,0.0,0.0,0.0,0.0,0.0,0.0,0.0,0.0,0.0,0.0,0.0,0.0,0.0,0.0,0.0,0.0,0.0,0.0,0.0,0.0,0.0,0.0,0.0,0.0,0.0,0.0,0.0,0.0,0.0,0.0,0.0,0.0,0.0,0.0,0.0,0.0,0.0,0.0,-1.4713,-1.474,-1.474,-1.474,-1.4787,-1.4896,-1.4903,-1.4943,-1.5045,0.0,0.0,0.0,0.0,0.0,0.0,0.0,0.0,0.0,0.0,0.0,0.0,0.0,0.0,0.0,0.0,0.0,0.0,0.0,0.0,0.0,0.0,0.0,0.0,0.0,0.0,0.0,0.0,0.0,0.0,0.0,0.0,0.0,0.0,0.0,0.0,0.0,0.0,0.0,0.0,0.0,0.0,0.0,0.0,0.0,0.0,0.0,0.0,0.0,0.0,0.0,0.0,0.0,0.0,0.0,0.0,0.0,0.0,0.0,0.0,0.0,0.0,0.0,0.0,0.0,0.0,0.0,0.0,0.0,0.0,0.0,0.0,0.0,0.0,0.0,0.0,0.0,0.0,0.0,0.0,0.0,0.0,0.0,0.0,0.0,0.0,0.0,0.0,0.0,0.0,0.0,0.0,0.0,0.0,0.0,0.0,0.0,0.0,0.0,0.0,0.0,0.0,-1.4835,-1.4882,-1.4916,-1.4916,-1.4916,-1.4957,-1.5045,-1.5059,-1.5092,-1.5174,0.0,0.0,0.0,0.0,0.0,0.0,0.0,0.0,0.0,0.0,0.0,0.0,0.0,0.0,0.0,0.0,0.0,0.0,0.0,0.0,0.0,0.0,0.0,0.0,0.0,0.0,0.0,0.0,0.0,0.0,0.0,0.0,0.0,0.0,0.0,0.0,0.0,0.0,0.0,0.0,0.0,0.0,0.0,0.0,0.0,0.0,0.0,0.0,0.0,0.0,0.0,0.0,0.0,0.0,0.0,0.0,0.0,0.0,0.0,0.0,0.0,0.0,0.0,0.0,0.0,0.0,0.0,0.0,0.0,0.0,0.0,0.0,0.0,0.0,0.0,0.0,0.0,0.0,0.0,0.0,0.0,0.0,0.0,0.0,0.0,0.0,0.0,0.0,0.0,0.0,0.0,0.0,0.0,0.0,0.0,0.0,0.0,0.0,0.0,0.0,0.0,0.0,-1.4991,-1.5106,-1.5181,-1.5181,-1.5181,-1.5181,-1.5181,-1.5181,-1.5181,-1.5181,0.0,0.0,0.0,0.0,0.0,0.0,0.0,0.0,0.0,0.0,0.0,0.0,0.0,0.0,0.0,0.0,0.0,0.0,0.0,0.0,0.0,0.0,0.0,0.0,0.0,0.0,0.0,0.0,0.0,0.0,0.0,0.0,0.0,0.0,0.0,0.0,0.0,0.0,0.0,0.0,0.0,0.0,0.0,0.0,0.0,0.0,0.0,0.0,0.0,0.0,0.0,0.0,0.0,0.0,0.0,0.0,0.0,0.0,0.0,0.0,-1.4299,0.0,0.0,0.0,0.0,0.0,0.0,0.0,0.0,0.0,0.0,0.0,0.0,0.0,0.0,0.0,0.0,0.0,0.0,0.0,0.0,0.0,0.0,0.0,0.0,0.0,0.0,0.0,0.0,0.0,0.0,0.0,0.0,0.0,0.0,0.0,0.0,0.0,0.0,0.0,0.0,0.0,-1.514,-1.516,-1.5181,-1.5181,-1.5181,-1.5181,-1.5181,-1.5181,-1.5181,-1.5181,0.0,0.0,0.0,0.0,0.0,0.0,0.0,0.0,0.0,0.0,0.0,0.0,0.0,0.0,0.0,0.0,0.0,0.0,0.0,0.0,0.0,0.0,0.0,0.0,0.0,0.0,0.0,0.0,0.0,0.0,0.0,0.0,0.0,0.0,0.0,0.0,0.0,0.0,0.0,0.0,0.0,0.0,0.0,0.0,0.0,0.0,0.0,0.0,0.0,0.0,0.0,0.0,0.0,0.0,0.0,0.0,0.0,0.0,0.0,0.0,0.0,-1.434,0.0,0.0,0.0,0.0,0.0,0.0,0.0,0.0,0.0,0.0,0.0,0.0,0.0,0.0,0.0,0.0,0.0,0.0,0.0,0.0,0.0,0.0,0.0,0.0,0.0,0.0,0.0,0.0,0.0,0.0,0.0,0.0,0.0,0.0,0.0,0.0,0.0,0.0,0.0,0.0,-1.5181,-1.5181,-1.5181,-1.5181,-1.5181,-1.5181,-1.5181,-1.5181,-1.5181,-1.5181,-1.5181,0.0,0.0,0.0,0.0,0.0,0.0,0.0,0.0,0.0,0.0,0.0,0.0,0.0,0.0,0.0,0.0,0.0,0.0,0.0,0.0,0.0,0.0,0.0,0.0,0.0,0.0,0.0,0.0,0.0,0.0,0.0,0.0,0.0,0.0,0.0,0.0,0.0,0.0,0.0,0.0,0.0,0.0,0.0,0.0,0.0,0.0,0.0,0.0,0.0,0.0,0.0,0.0,0.0,-1.434,-1.4414,-1.455,-1.455,-1.4618,-1.4726,-1.4482,-1.4441,-1.455,0.0,0.0,0.0,0.0,0.0,0.0,0.0,0.0,0.0,0.0,0.0,0.0,0.0,0.0,0.0,0.0,0.0,0.0,0.0,0.0,0.0,0.0,0.0,0.0,0.0,-1.4814,-1.4814,0.0,0.0,0.0,0.0,0.0,0.0,0.0,0.0,0.0,0.0,0.0,0.0,-1.5181,-1.5181,-1.5181,-1.5181,-1.5181,-1.5181,-1.5181,-1.5181,-1.5181,-1.5181,-1.5181,-1.5181,0.0,0.0,0.0,0.0,0.0,0.0,0.0,0.0,0.0,0.0,0.0,0.0,0.0,0.0,0.0,0.0,0.0,0.0,0.0,0.0,0.0,0.0,0.0,0.0,0.0,0.0,0.0,0.0,0.0,0.0,0.0,0.0,-1.4021,-1.4041,0.0,0.0,0.0,0.0,0.0,0.0,0.0,0.0,0.0,0.0,0.0,0.0,0.0,0.0,-1.4299,-1.4299,-1.436,-1.4482,-1.4482,-1.4563,-1.4713,-1.4713,-1.4719,-1.474,-1.4699,0.0,-1.4713,-1.4713,0.0,0.0,0.0,0.0,0.0,0.0,0.0,0.0,0.0,0.0,0.0,0.0,0.0,0.0,0.0,0.0,0.0,0.0,0.0,0.0,0.0,0.0,-1.5126,-1.5126,-1.5126,-1.5126,0.0,-1.5025,-1.4977,-1.5099,0.0,0.0,0.0,0.0,0.0,0.0,0.0,0.0,-1.5181,-1.5181,-1.5181,-1.5181,-1.5181,-1.5181,-1.5181,-1.5181,-1.5181,-1.5181,-1.5181,-1.5181,-1.5181,-1.5181,0.0,0.0,0.0,0.0,0.0,0.0,0.0,0.0,0.0,0.0,0.0,0.0,0.0,0.0,0.0,0.0,0.0,0.0,0.0,0.0,0.0,0.0,0.0,0.0,0.0,0.0,0.0,0.0,0.0,-1.3994,-1.4102,-1.419,-1.4258,-1.4299,0.0,0.0,0.0,0.0,0.0,0.0,0.0,0.0,0.0,-1.4299,-1.4299,-1.434,-1.4421,-1.4414,-1.4489,-1.4638,-1.4645,-1.4719,-1.4869,-1.4869,-1.4909,-1.4991,-1.4991,-1.4991,-1.4984,-1.4903,-1.4916,-1.4991,0.0,0.0,0.0,0.0,-1.4991,-1.4991,-1.4991,-1.4991,0.0,0.0,0.0,0.0,0.0,0.0,0.0,0.0,0.0,0.0,0.0,0.0,0.0,-1.5181,-1.5181,-1.5181,-1.5181,-1.5133,-1.5106,0.0,-1.5181,-1.5181,-1.5181,0.0,0.0,0.0,0.0,0.0,-1.5181,-1.5181,-1.5181,-1.5181,-1.5181,-1.5181,-1.5181,-1.5181,-1.5181,-1.5181,-1.5181,-1.5181,-1.5181,-1.5181,-1.6479,0.0,0.0,0.0,0.0,0.0,0.0,0.0,0.0,0.0,0.0,0.0,0.0,0.0,0.0,0.0,0.0,0.0,0.0,0.0,0.0,0.0,0.0,0.0,0.0,0.0,0.0,0.0,0.0,-1.4102,-1.417,-1.4285,-1.4299,-1.4299,0.0,0.0,0.0,0.0,0.0,0.0,-1.4299,-1.4299,-1.4312,-1.4353,-1.4353,-1.4421,-1.4383,-1.4383,-1.4464,-1.4611,-1.4801,-1.4882,-1.5025,-1.5025,-1.5079,-1.5181,-1.5181,-1.5181,-1.5174,-1.5065,-1.5086,-1.5181,-1.5181,-1.5181,-1.5181,-1.5181,-1.5181,-1.5181,-1.5181,-1.5181,-1.5181,-1.5181,0.0,-1.5181,-1.5181,0.0,0.0,0.0,0.0,-1.5181,-1.5181,-1.5181,-1.5181,-1.5181,-1.5181,-1.5181,-1.5181,-1.5181,-1.5181,0.0,-1.5181,-1.5181,-1.5181,0.0,0.0,0.0,0.0,-1.5181,-1.5181,-1.5181,-1.5181,-1.5181,-1.5181,-1.5181,-1.5181,-1.5181,-1.5181,-1.5181,-1.5181,-1.5181,-1.5181,-1.5181,-1.6112,-1.8152,0.0,0.0,0.0,0.0,0.0,0.0,0.0,0.0,0.0,0.0,0.0,0.0,0.0,0.0,0.0,0.0,0.0,0.0,0.0,0.0,0.0,0.0,0.0,0.0,0.0,0.0,0.0,0.0,0.0,-1.4299,-1.4299,0.0,0.0,0.0,0.0,-1.4299,-1.4299,-1.4299,-1.4299,-1.4299,-1.436,-1.4309,-1.4316,-1.439,-1.4355,-1.4544,-1.4618,-1.4765,-1.4765,-1.4845,-1.5174,-1.5174,-1.5174,-1.5181,-1.5181,-1.5181,-1.5181,-1.5174,-1.5174,-1.5181,-1.5181,-1.5181,-1.5181,-1.5181,-1.5181,-1.5181,-1.5181,-1.5181,-1.5181,-1.5181,-1.5181,-1.5181,-1.5181,-1.5181,0.0,0.0,-1.5181,-1.5181,-1.5181,-1.5181,-1.5181,-1.5181,-1.5181,-1.5181,-1.5181,-1.5181,-1.5181,0.0,-1.5181,-1.5181,-1.5181,0.0,-1.5181,-1.5181,-1.5181,-1.5181,-1.5181,-1.5181,-1.5181,-1.5181,-1.5181,-1.5181,-1.5181,-1.5181,-1.5181,-1.5181,-1.5181,-1.5181,-1.5181,-1.5181,-1.6112,-1.8152,-2.0001,0.0,0.0,0.0,0.0,0.0,0.0,0.0,0.0,0.0,0.0,0.0,0.0,0.0,0.0,0.0,0.0,0.0,0.0,0.0,0.0,0.0,0.0,0.0,0.0,0.0,0.0,0.0,0.0,-1.4299,-1.4299,0.0,0.0,-1.4299,-1.4299,-1.4299,-1.4299,-1.434,-1.4249,-1.4256,-1.4316,-1.4282,-1.447,-1.4544,-1.4507,-1.4507,-1.458,-1.5106,-1.5106,-1.5133,-1.5181,-1.5181,-1.5181,-1.5181,-1.5181,-1.5181,-1.5181,-1.5181,-1.5181,-1.5181,-1.5181,-1.5181,-1.5181,-1.5181,-1.5181,-1.5181,-1.5181,-1.5181,-1.5181,-1.5181,-1.5181,-1.5181,-1.5181,-1.5181,-1.5181,-1.5181,-1.5181,-1.5181,-1.5181,-1.5181,-1.5181,-1.5181,-1.5181,-1.5181,-1.5181,-1.5181,-1.5181,-1.5181,-1.5181,-1.5181,-1.5181,-1.5181,-1.5181,-1.5181,-1.5181,-1.5181,-1.5181,-1.5181,-1.5181,-1.5181,-1.5181,-1.5181,-1.5181,-1.5181,-1.5181,-1.5181,-1.5181,-1.5181,-1.5181,-1.5181,-1.6112,-1.8152,-1.8896,-2.0742,0.0,0.0,0.0,0.0,0.0,0.0,0.0,0.0,0.0,0.0,0.0,0.0,0.0,0.0,0.0,0.0,0.0,0.0,0.0,0.0,0.0,0.0,0.0,0.0,0.0,0.0,-1.4299,-1.4299,-1.4299,-1.4299,-1.4299,-1.4299,-1.4319,-1.4367,-1.4367,-1.4256,-1.4209,-1.4223,-1.4289,-1.4251,-1.4631,-1.4889,-1.4852,-1.4659,-1.4892,-1.5181,-1.5181,-1.5181,-1.5181,-1.5181,-1.5181,-1.5181,-1.5181,-1.5181,-1.5181,-1.5181,-1.5181,-1.5181,-1.5181,-1.5181,-1.5181,-1.5181,-1.5181,-1.5181,-1.5181,-1.5181,-1.5181,-1.5181,-1.5181,-1.5181,-1.5181,-1.5181,-1.5181,-1.5181,-1.5181,-1.5181,-1.5181,-1.5181,-1.5181,-1.5181,-1.5181,-1.5181,-1.5181,-1.5181,-1.5181,-1.5181,-1.5181,-1.5181,-1.5181,-1.5181,-1.5181,-1.5181,-1.5181,-1.5181,-1.5181,-1.5181,-1.5181,-1.5181,-1.5181,-1.5181,-1.5181,-1.5181,-1.5181,-1.5181,-1.5181,-1.5181,-1.5181,-1.5181,-1.6112,-1.8152,-1.9445,-2.185,-2.5172,0.0,0.0,0.0,0.0,0.0,0.0,0.0,0.0,0.0,0.0,0.0,0.0,0.0,0.0,0.0,0.0,0.0,0.0,0.0,0.0,0.0,0.0,0.0,-1.4299,-1.4299,-1.4299,-1.4299,-1.4299,-1.4299,-1.4299,-1.4306,-1.436,-1.4316,-1.433,-1.4397,-1.4362,-1.4368,-1.4251,-1.4395,-1.4977,-1.5231,-1.5181,-1.5181,-1.5181,-1.5181,-1.5181,-1.5181,-1.5181,-1.5181,-1.5181,-1.5181,-1.5181,-1.5181,-1.5181,-1.5181,-1.5181,-1.5181,-1.5181,-1.5181,-1.5181,-1.5181,-1.5181,-1.5181,-1.5181,-1.5181,-1.5181,-1.5181,-1.5181,-1.5181,-1.5181,-1.5181,-1.5181,-1.5181,-1.5181,-1.5181,-1.5181,-1.5181,-1.5181,-1.5181,-1.5181,-1.5181,-1.5181,-1.5181,-1.5181,-1.5181,-1.5181,-1.5181,-1.5181,-1.5181,-1.5181,-1.5181,-1.5181,0.0,-1.5181,-1.5181,-1.5181,-1.5187,-1.5187,-1.5194,-1.5194,-1.5194,-1.5194,-1.5194,-1.5194,-1.5194,-1.5194,-1.5194,-1.6119,-1.8152,-2.2034,-2.499,-2.6845,0.0,0.0,0.0,0.0,0.0,0.0,0.0,0.0,0.0,0.0,0.0,0.0,0.0,0.0,0.0,0.0,0.0,0.0,0.0,0.0,0.0,0.0,-1.4299,-1.4299,-1.4299,-1.4299,-1.4299,-1.4299,-1.4299,-1.4299,-1.4216,-1.4283,-1.4323,-1.4798,-1.4936,-1.4903,-1.4909,-1.497,-1.4926,-1.5126,-1.5147,-1.5181,-1.5181,-1.5181,-1.5181,-1.5181,-1.5181,-1.5181,-1.5181,-1.5181,-1.5181,-1.5181,-1.5181,-1.5181,-1.5181,-1.5181,-1.5181,-1.5181,-1.5181,-1.5181,-1.5181,-1.5181,-1.5181,-1.5181,-1.5181,-1.5181,-1.5181,-1.5181,-1.5181,-1.5181,-1.5181,-1.5181,-1.5181,-1.5181,-1.5181,-1.5181,-1.5181,-1.5181,-1.5181,-1.5181,-1.5181,-1.5181,-1.5181,-1.5181,-1.5181,-1.5181,-1.5181,-1.5181,-1.5181,-1.5181,-1.5181,-1.5181,0.0,-1.5181,-1.5181,-1.5221,-1.5337,-1.535,-1.5391,-1.5506,-1.5513,-1.5513,-1.5513,-1.5513,-1.5513,-1.5513,-1.5404,-1.6227,-1.8152,-2.0557,-2.2964,0.0,0.0,0.0,0.0,0.0,0.0,0.0,0.0,0.0,0.0,0.0,0.0,0.0,0.0,0.0,0.0,0.0,0.0,0.0,0.0,0.0,0.0,-1.4299,-1.4299,-1.4299,-1.4299,-1.4299,-1.4299,-1.4353,-1.4387,-1.4387,-1.4336,-1.445,-1.4699,-1.4977,-1.5278,-1.5245,-1.5252,-1.5286,-1.5181,-1.5181,-1.5181,-1.5181,-1.5181,-1.5181,-1.5181,-1.5181,-1.5181,-1.5181,-1.5181,-1.5181,0.0,-1.5181,-1.5181,-1.5181,-1.5181,-1.5181,0.0,0.0,0.0,0.0,0.0,-1.5181,-1.5181,-1.5181,-1.5181,-1.5181,-1.5181,-1.5181,-1.5181,-1.5181,-1.5181,-1.5181,-1.5181,-1.5181,-1.5181,-1.5181,-1.5181,-1.5181,-1.5181,-1.5181,-1.5181,-1.5181,-1.5181,-1.5181,-1.5181,-1.5181,0.0,-1.5269,-1.5221,-1.5181,-1.5181,-1.5235,-1.5276,-1.5276,-1.5337,-1.5404,-1.5499,-1.5506,-1.554,-1.5635,-1.5642,0.0,0.0,0.0,-1.5642,-1.5642,-1.726,0.0,0.0,0.0,-2.4172,-2.5354,0.0,0.0,0.0,-2.6954,-2.6954,0.0,0.0,0.0,0.0,0.0,0.0,0.0,0.0,0.0,0.0,0.0,0.0,0.0,0.0,0.0,0.0,-1.4299,-1.4306,-1.4319,-1.4326,-1.4326,-1.4326,-1.4256,-1.4336,-1.435,-1.449,-1.4631,-1.5149,-1.5176,-1.5238,-1.5174,0.0,0.0,0.0,0.0,-1.5181,-1.5181,-1.5181,-1.5181,-1.5181,-1.5181,-1.5181,-1.5181,-1.5181,-1.5181,-1.5181,-1.5181,-1.5181,-1.5181,-1.5181,-1.5181,-1.5181,-1.5181,-1.5181,-1.5181,-1.5181,-1.5181,-1.5181,-1.5181,0.0,0.0,-1.5181,-1.5181,-1.5181,-1.5181,-1.5181,-1.5181,-1.5181,-1.5181,-1.5181,-1.5181,-1.5181,-1.5181,-1.5181,-1.5194,-1.5208,-1.5208,-1.5221,-1.5235,-1.5235,-1.5235,-1.5276,-1.5411,-1.5309,-1.5215,-1.5228,-1.535,-1.5438,-1.5438,-1.5554,-1.5642,-1.5662,0.0,0.0,-1.5689,-1.5689,-1.5689,-1.5689,-1.5689,-1.5683,-1.5662,-1.9088,-2.109,-2.1264,-2.4824,-2.6789,-2.7123,-2.7087,-2.7075,-2.7075,-2.7039,-2.7027,0.0,0.0,0.0,0.0,0.0,0.0,0.0,0.0,0.0,0.0,0.0,0.0,0.0,0.0,0.0,-1.4299,-1.4299,-1.434,-1.4269,-1.4289,-1.4289,-1.4289,-1.4309,-1.4557,-1.5056,-1.5025,-1.5128,-1.5162,-1.5265,-1.5153,-1.5181,-1.5181,0.0,-1.5181,-1.5181,-1.5181,-1.5181,-1.5181,-1.5181,-1.5181,0.0,0.0,-1.5181,-1.5181,-1.5181,-1.5181,-1.5181,-1.5181,-1.5181,-1.5181,-1.5181,-1.5181,-1.5181,-1.5181,-1.5181,-1.5181,-1.5181,-1.5181,-1.5181,-1.5181,-1.5181,-1.5181,-1.5181,-1.5181,-1.5181,-1.5181,0.0,-1.5181,-1.5181,-1.5181,-1.5181,-1.5181,-1.5181,-1.5181,-1.5276,-1.5174,-1.5561,-1.5466,-1.5554,-1.5554,-1.5554,-1.556,-1.5588,-1.5466,-1.5411,-1.5533,-1.5574,-1.5594,-1.5594,-1.5622,-1.5683,-1.5798,-1.5811,-1.5859,-1.5988,-1.5995,-1.5995,-1.5995,-1.5995,-1.594,-1.5818,-1.6586,-1.8423,-2.147,-2.2417,-2.448,-2.7655,-2.7449,-2.7341,-2.7341,-2.7123,-2.7027,0.0,0.0,0.0,0.0,0.0,0.0,0.0,0.0,0.0,0.0,0.0,-1.4299,0.0,0.0,-1.4299,-1.4299,-1.436,-1.4249,-1.4316,-1.4577,-1.4624,-1.4256,-1.451,-1.4956,-1.5222,-1.5183,-1.5265,-1.5265,-1.514,-1.5181,-1.5181,-1.5181,-1.5181,-1.5181,-1.5181,-1.5181,-1.5181,-1.5181,-1.5181,-1.5181,-1.5181,-1.5181,-1.5181,-1.5181,-1.5181,-1.5181,-1.5181,-1.5228,-1.5107,-1.518,-1.5214,-1.5214,-1.5214,-1.5127,-1.5181,-1.5181,-1.5181,-1.5181,-1.5181,-1.5181,-1.5181,-1.5181,-1.5181,-1.5194,-1.5269,-1.5296,-1.512,-1.5194,-1.5214,-1.5214,-1.5214,-1.5214,-1.5214,-1.5214,-1.5267,-1.5328,-1.5725,-1.5787,-1.5842,-1.5642,-1.5642,-1.5662,-1.5737,-1.5683,-1.5635,-1.5642,-1.5703,-1.5744,-1.5744,-1.5811,-1.5886,-1.5961,-1.5967,-1.6029,-1.6185,-1.6259,-1.63,-1.63,-1.63,-1.6239,-1.609,-1.8046,-2.0064,-2.1685,-2.3786,-2.5828,-2.7811,-2.7679,-2.7618,-2.7618,-2.7486,-2.728,0.0,0.0,0.0,0.0,0.0,0.0,0.0,0.0,-1.4299,-1.4299,-1.4299,-1.4299,-1.4299,-1.4319,-1.434,-1.434,-1.4276,-1.4376,-1.441,-1.4895,-1.4977,-1.4598,-1.4896,-1.5176,-1.5204,-1.512,-1.5181,-1.5181,-1.5181,-1.5181,-1.5181,-1.5181,-1.5181,-1.5181,-1.5181,-1.5181,-1.5181,-1.5181,-1.5181,-1.5181,-1.5215,-1.5228,-1.5228,-1.5255,-1.5269,-1.5269,-1.5269,-1.5337,-1.5466,-1.5388,-1.5442,-1.5442,-1.5442,-1.5294,-1.5276,-1.5269,-1.5269,-1.5269,-1.5269,-1.5269,-1.5269,-1.5269,-1.5269,-1.5289,-1.5221,-1.5261,-1.5288,-1.5408,-1.5442,-1.5442,-1.5442,-1.5442,-1.5442,-1.5442,-1.5462,-1.5482,-1.6077,-1.6105,-1.6126,-1.5925,-1.573,-1.5764,-1.5879,-1.592,-1.5893,-1.5744,-1.5825,-1.59,-1.59,-1.6029,-1.6123,-1.6123,-1.6151,-1.6218,-1.6341,-1.6456,-1.6524,-1.6524,-1.6524,-1.6469,-1.6354,-1.9933,-2.2162,-2.2023,-2.5902,-2.7926,-2.8041,-2.7993,-2.7944,-2.7884,-2.7836,-2.7558,-1.4299,-1.4299,0.0,-1.4299,-1.4299,-1.4299,0.0,0.0,-1.4299,-1.4299,-1.4299,-1.4299,-1.4299,-1.4222,-1.4303,-1.4303,-1.4243,-1.4571,-1.5087,-1.5128,-1.5135,-1.5135,-1.5149,-1.521,-1.5147,-1.5174,-1.5181,-1.5181,-1.5181,-1.5181,-1.5181,-1.5181,-1.5181,-1.5181,-1.5181,-1.5181,-1.5181,-1.5181,-1.5181,-1.5181,-1.5127,-1.5187,-1.5194,-1.5136,-1.5195,-1.5195,-1.5195,-1.5594,-1.6015,-1.6029,-1.6036,-1.6036,-1.6036,-1.6015,-1.5987,-1.5388,-1.5195,-1.5195,-1.5195,-1.5195,-1.5195,-1.5195,-1.5195,-1.5195,-1.5208,-1.5615,-1.6015,-1.6036,-1.6036,-1.6036,-1.6036,-1.6036,-1.6036,-1.6036,-1.5938,-1.6028,-1.6035,-1.6138,-1.6035,-1.6035,-1.6035,-1.6035,-1.6056,-1.6164,-1.6004,-1.6056,-1.6049,-1.6056,-1.6056,-1.6191,-1.6286,-1.6286,-1.6395,-1.6476,-1.6497,-1.651,-1.6524,-1.6524,-1.6524,-1.6517,-1.6497,-1.8917,-2.0906,-2.286,-2.5262,-2.735,-2.8874,-2.8644,-2.8403,-2.8149,-2.792,-2.7655,-1.4299,0.0,0.0,0.0,-1.4299,-1.4299,-1.4299,-1.4299,-1.4299,-1.4299,-1.4367,-1.4242,-1.4242,-1.4356,-1.4457,0.0,-1.4774,-1.4896,-1.5156,-1.5231,-1.5286,-1.5286,-1.4899,-1.4892,-1.5252,-1.5133,-1.5181,-1.5181,-1.5181,-1.5181,-1.5181,-1.5181,-1.5181,-1.5181,-1.5181,-1.5181,-1.5181,-1.5269,-1.512,-1.5127,-1.5274,-1.5348,-1.5746,-1.5808,-1.5642,-1.5649,-1.573,-1.5959,-1.6168,-1.6062,-1.6096,-1.6096,-1.6096,-1.6096,-1.6076,-1.5904,-1.5642,-1.5642,-1.5642,-1.5642,-1.5642,-1.5642,-1.5642,-1.5655,-1.5737,-1.5966,-1.6182,-1.6076,-1.6096,-1.6096,-1.6096,-1.6096,-1.6096,-1.6096,-1.6144,-1.6015,-1.6096,-1.6164,-1.6038,-1.6112,-1.6125,-1.6125,-1.6125,-1.6179,-1.6199,-1.6347,-1.6334,-1.6334,-1.6334,-1.6395,-1.6435,-1.6435,-1.6564,-1.6653,-1.6653,-1.6734,-1.6788,-1.6788,-1.6788,-1.6748,-1.6659,-1.8686,-2.0866,-2.2964,-2.5177,-2.7135,-2.9236,-2.9127,-2.9019,-2.8898,-2.8632,-2.8367,-1.4299,0.0,0.0,-1.4299,-1.4299,-1.4299,-1.4299,-1.4326,-1.436,-1.436,-1.4289,-1.439,-1.457,-1.4517,0.0,-1.5181,-1.5278,-1.5176,-1.5217,-1.5272,-1.5126,-1.5126,-1.4772,-1.4739,-1.5176,-1.5286,-1.5181,-1.5181,-1.5181,-1.5181,-1.5181,-1.5181,-1.5201,-1.5242,-1.5242,-1.5262,-1.5113,-1.5221,-1.5274,-1.5472,-1.5428,-1.5696,-1.6098,-1.614,-1.6161,-1.6168,-1.6076,-1.6117,-1.6124,-1.6035,-1.6103,-1.6144,-1.6144,-1.6164,-1.6171,-1.6165,-1.6035,-1.6161,-1.6161,-1.6161,-1.6161,-1.6161,-1.6161,-1.6182,-1.6089,-1.6117,-1.6151,-1.6103,-1.6144,-1.6151,-1.6191,-1.6198,-1.6198,-1.6198,-1.6198,-1.6031,-1.6132,-1.6158,-1.6395,-1.6292,-1.6312,-1.6312,-1.6312,-1.6346,-1.6373,-1.6585,-1.6619,-1.6612,-1.653,-1.6558,-1.6598,-1.6646,-1.6748,-1.6815,-1.6815,-1.6917,-1.6978,-1.6978,-1.6978,-1.6931,-1.6815,-1.8861,-2.1046,-2.3143,-2.5163,-2.7359,-2.9513,-2.9513,-2.9477,-2.9405,-2.9212,-2.9019,0.0,0.0,-1.4299,-1.4299,-1.4299,-1.4299,-1.4299,-1.4222,-1.4316,-1.4316,-1.4256,-1.4544,-1.5111,-1.5236,-1.5156,-1.5156,-1.5156,-1.521,-1.5153,-1.5252,-1.5169,-1.5169,-1.5099,-1.5126,0.0,-1.5286,-1.5181,-1.5181,-1.5181,-1.5181,-1.5181,-1.5181,-1.5248,-1.52,-1.5207,-1.5274,-1.5228,-1.5235,-1.5435,-1.6036,-1.598,-1.6048,-1.6055,-1.6001,-1.6069,-1.6069,-1.6076,-1.6076,-1.6076,-1.6083,-1.6164,-1.6098,-1.6098,-1.6179,-1.6088,-1.6082,-1.6105,-1.6069,-1.6069,-1.6069,-1.6069,-1.6069,-1.6069,-1.6069,-1.6076,-1.6076,-1.6103,-1.6058,-1.6098,-1.6125,-1.6055,-1.6088,-1.6088,-1.6088,-1.6088,-1.6088,-1.6095,-1.6517,-1.6939,-1.6946,-1.6946,-1.6946,-1.6946,-1.7064,-1.6962,-1.6962,-1.7085,-1.6863,-1.6769,-1.6653,-1.6802,-1.6951,-1.6971,-1.6971,-1.6971,-1.6978,-1.6978,-1.6978,-1.6978,-1.6978,-1.6971,-1.9037,-2.1302,-2.3568,-2.584,-2.7784,-2.9779,-2.9779,-2.9646,-2.9405,-2.9393,-2.9393,0.0,0.0,-1.4299,-1.4299,-1.4367,-1.4256,-1.4256,-1.437,-1.4477,-1.4847,-1.497,-1.4896,-1.5087,-1.5204,-1.5272,-1.5176,-1.5238,-1.5092,-1.4666,-1.4892,-1.5113,-1.5113,-1.5153,0.0,0.0,0.0,0.0,-1.5181,-1.5181,-1.5228,-1.5133,-1.514,-1.5207,-1.5162,-1.556,-1.5787,-1.5835,-1.5737,-1.598,-1.6182,-1.6138,-1.6008,-1.6008,-1.6164,-1.6031,-1.6031,-1.6125,-1.6165,-1.6165,-1.6165,-1.6192,-1.6239,-1.6456,-1.6687,-1.6735,-1.6735,-1.6666,-1.6584,-1.6165,-1.6165,-1.6165,-1.6165,-1.6165,-1.6165,-1.6165,-1.6165,-1.6172,-1.6022,-1.6449,-1.6673,-1.6721,-1.6735,-1.6735,-1.6735,-1.6735,-1.6762,-1.6653,-1.6886,-1.692,-1.7016,-1.7037,-1.7037,-1.7037,-1.7085,-1.6904,-1.6904,-1.6951,-1.6944,-1.6842,-1.687,-1.6924,-1.6978,-1.6978,-1.7019,-1.7114,-1.7121,-1.7161,-1.7263,-1.727,-1.727,-1.727,-1.7903,-2.0165,-2.3587,-2.4429,-2.6603,-3.0069,-3.0069,-3.0033,-2.9936,-2.9755,-2.967,0.0,-1.4373,-1.4387,-1.4263,-1.4336,-1.4403,-1.459,-1.4713,-1.4821,-1.5195,-1.5135,-1.5224,-1.5169,-1.5238,-1.5265,-1.5176,-1.4997,-1.4839,-1.4659,-1.4892,-1.5126,-1.5174,-1.5181,0.0,0.0,0.0,0.0,-1.5187,-1.5235,-1.5113,-1.5207,-1.5459,-1.556,-1.5509,-1.5918,-1.614,-1.6196,-1.6089,-1.6165,-1.6022,-1.6117,-1.6185,-1.6038,-1.6132,-1.6179,-1.6395,-1.6483,-1.6517,-1.6517,-1.6517,-1.6346,-1.6393,-1.6817,-1.7058,-1.69,-1.69,-1.69,-1.6886,-1.6558,-1.6517,-1.6517,-1.6517,-1.6517,-1.6517,-1.6517,-1.6517,-1.6326,-1.6379,-1.6605,-1.7037,-1.7092,-1.69,-1.69,-1.69,-1.69,-1.6927,-1.7023,-1.7044,-1.7078,-1.6965,-1.6978,-1.6978,-1.6978,-1.7019,-1.7053,-1.7053,-1.71,-1.6902,-1.706,-1.7053,-1.7073,-1.7134,-1.7134,-1.7175,-1.7263,-1.727,-1.7317,-1.7412,-1.7419,-1.7419,-1.7419,-1.7419,-1.9494,-2.3802,-2.4013,-2.6046,-3.0491,-3.0407,-3.0358,-3.0346,-3.0069,-2.9948,-1.4303,-1.4336,-1.437,-1.4329,-1.4368,-1.4564,-1.5125,-1.525,-1.5176,-1.5176,-1.5279,-1.514,0.0,0.0,-1.5169,-1.5156,-1.4658,-1.4481,-1.5133,-1.5252,-1.5224,0.0,0.0,0.0,0.0,0.0,0.0,-1.5215,0.0,-1.5227,-1.5234,-1.5774,-1.6119,-1.6062,-1.6069,-1.6138,-1.6083,-1.609,-1.6164,-1.6112,-1.6112,-1.6179,-1.6101,-1.6108,-1.653,-1.696,-1.6967,-1.6967,-1.6967,-1.6967,-1.7051,-1.6975,-1.6975,-1.7065,-1.6978,-1.6978,-1.6978,-1.6937,-1.7071,-1.6967,-1.6967,-1.6967,-1.6967,-1.6967,-1.6967,-1.6967,-1.7002,-1.6934,-1.6975,-1.701,-1.6944,-1.6978,-1.6978,-1.6978,-1.6978,-1.6978,-1.6978,-1.6985,-1.6992,-1.6992,-1.6998,-1.7005,-1.7005,-1.6902,-1.6982,-1.6989,-1.7103,-1.6928,-1.7003,-1.6989,-1.7043,-1.7399,-1.7419,-1.7419,-1.7433,-1.7433,-1.7433,-1.7446,-1.7446,-1.7446,-1.7446,-1.7446,-1.957,-2.4008,-2.422,-2.6344,-3.0778,-3.0745,-3.0624,-3.0624,-3.0371,-3.025,-1.4269,-1.4679,-1.4881,-1.4922,-1.5018,-1.5101,-1.5107,-1.5217,-1.5126,-1.5126,-1.516,-1.514,0.0,0.0,0.0,-1.4461,-1.4758,0.0,-1.5217,-1.5272,0.0,0.0,0.0,-1.5228,-1.5147,-1.5194,0.0,0.0,-1.5361,-1.5428,-1.5932,-1.598,-1.6069,-1.6022,-1.6029,-1.6042,-1.6083,-1.6191,-1.6118,-1.6048,-1.6469,-1.6701,-1.6735,-1.6852,-1.6907,-1.6913,-1.703,-1.7078,-1.7078,-1.7078,-1.7099,-1.6924,-1.6924,-1.6944,-1.6978,-1.6978,-1.6978,-1.6971,-1.7106,-1.7078,-1.7078,-1.7078,-1.7078,-1.7078,-1.7078,-1.7078,-1.7085,-1.6917,-1.6924,-1.6931,-1.6971,-1.6978,-1.6978,-1.6978,-1.6978,-1.6978,-1.6978,-1.706,-1.6922,-1.6922,-1.7009,-1.7083,-1.7083,-1.6902,-1.7143,-1.7586,-1.7621,-1.7412,-1.7143,-1.7365,-1.76,-1.7635,-1.7426,-1.7467,-1.7582,-1.7589,-1.7629,-1.7738,-1.7758,-1.7758,-1.7758,-1.7758,-1.8988,-2.1657,-2.3591,-2.5649,-2.8457,-3.0082,-3.0902,-3.0902,-3.0829,-3.0696,-1.4611,-1.5025,-1.5236,-1.5114,-1.519,-1.5252,-1.5252,-1.5126,-1.5167,-1.5293,-1.5279,0.0,0.0,0.0,0.0,0.0,0.0,0.0,-1.5259,-1.5133,-1.5181,0.0,-1.5242,0.0,-1.5207,-1.5527,-1.5642,0.0,-1.5737,-1.5764,-1.6048,-1.6117,-1.6192,-1.6076,-1.6144,-1.6004,-1.6065,-1.6361,-1.6476,-1.6413,-1.6838,-1.7078,-1.6941,-1.7023,-1.7065,-1.7071,0.0,-1.6978,-1.6978,-1.6978,-1.6978,-1.6978,-1.6978,-1.6978,-1.6978,-1.6978,-1.6978,-1.6992,-1.7046,-1.7073,-1.706,-1.6998,-1.6978,-1.6978,-1.6978,-1.6978,-1.6978,-1.6978,-1.7026,-1.7073,-1.7073,-1.6909,-1.6956,-1.6956,-1.6956,-1.6956,-1.6956,-1.7016,-1.7069,-1.7297,-1.7365,-1.7419,-1.7419,-1.7473,-1.7521,-1.7751,-1.7799,-1.7841,-1.7391,-1.7779,-1.7772,-1.7827,-1.7834,-1.765,-1.7738,-1.7738,-1.7772,-1.786,-1.786,-1.786,-1.786,-1.786,-1.8913,-2.0988,-2.2284,-2.4598,-2.7908,-2.909,-3.0107,-3.1167,-3.1046,-3.0914,-1.5149,-1.519,-1.5217,-1.5153,-1.5181,-1.5181,-1.5181,-1.5167,-1.512,-1.519,0.0,0.0,-1.5139,0.0,-1.4624,-1.5142,0.0,-1.5231,-1.5167,-1.5181,-1.5187,-1.5208,-1.5133,-1.5227,-1.5267,-1.5703,-1.6062,-1.6083,-1.6083,-1.6083,-1.6083,-1.6029,-1.6117,-1.6137,-1.6266,-1.6199,-1.6128,-1.6762,-1.7051,-1.6996,-1.6996,-1.7065,-1.6978,-1.6978,-1.6978,-1.6978,-1.6978,0.0,-1.6978,-1.6978,-1.6992,-1.7005,-1.7005,-1.7019,-1.7039,-1.7039,-1.7039,-1.7053,-1.6962,-1.7003,-1.7202,-1.708,-1.7039,-1.7039,-1.7039,-1.7039,-1.7039,-1.7039,-1.6909,-1.7003,-1.7003,-1.7103,-1.7197,-1.7197,-1.7197,-1.7197,-1.7197,-1.721,-1.7237,-1.7703,-1.7926,-1.7926,-1.7926,-1.782,-1.7909,-1.7909,-1.7792,-1.786,-1.786,-1.7978,-1.7944,-1.7846,-1.786,-1.786,-1.786,-1.786,-1.786,-1.786,-1.786,-1.786,-1.786,-1.786,-1.8743,-2.0701,-2.1132,-2.3311,-2.7434,-2.7664,-2.9069,-3.0998,-3.0994,-3.1083,-1.5106,-1.5147,-1.5153,-1.5174,-1.5181,-1.5181,-1.5181,-1.5279,0.0,0.0,0.0,-1.4395,-1.4375,-1.4841,0.0,-1.5156,0.0,0.0,0.0,0.0,-1.5228,0.0,0.0,0.0,0.0,0.0,0.0,0.0,0.0,0.0,-1.6042,-1.6185,-1.6118,-1.6029,-1.668,-1.6769,-1.692,-1.6927,-1.7003,-1.6944,-1.6944,-1.6958,-1.6978,-1.6978,-1.6978,-1.6978,-1.6978,0.0,-1.6978,-1.6978,-1.7046,-1.6936,-1.6936,-1.7009,-1.6908,-1.6908,-1.6908,-1.6908,-1.6935,-1.7378,-1.76,-1.713,-1.6908,-1.6908,-1.6908,-1.6908,-1.6908,-1.6908,-1.6922,-1.7157,-1.76,-1.7843,-1.7648,-1.7648,-1.7648,-1.7648,-1.7648,-1.7744,-1.7875,-1.7978,-1.7792,-1.7792,-1.7792,-1.7812,-1.7826,-1.7826,-1.7846,-1.786,-1.786,-1.7846,-1.7826,-1.786,-1.786,-1.786,-1.786,-1.786,-1.786,-1.786,-1.786,-1.786,-1.786,-1.786,-1.8088,-1.853,-2.0262,-2.1798,-2.2446,-2.6313,-2.8457,-2.8886,-3.0811,-3.1541,-1.5167,-1.5181,-1.5181,-1.5181,-1.5181,-1.516,-1.5279,0.0,0.0,0.0,0.0,-1.4362,-1.4362,0.0,0.0,0.0,0.0,0.0,0.0,0.0,0.0,0.0,0.0,0.0,0.0,0.0,0.0,0.0,0.0,0.0,-1.6198,-1.6341,-1.649,-1.6632,-1.6852,-1.6927,-1.7085,-1.7085,-1.691,-1.6978,-1.6978,-1.6978,-1.6978,-1.6978,-1.6978,-1.6985,-1.7053,0.0,-1.7093,-1.6956,-1.7029,-1.709,-1.7311,-1.7573,-1.7426,-1.7426,-1.7426,-1.7433,-1.7514,-1.7765,-1.7779,-1.7623,-1.7541,-1.7426,-1.7426,-1.7426,-1.7426,-1.7426,-1.748,-1.7541,-1.7765,-1.782,-1.7875,-1.7875,-1.7875,-1.7875,-1.7875,-1.793,-1.7998,-1.7846,-1.786,-1.786,-1.786,-1.786,-1.786,-1.786,-1.786,-1.786,-1.786,-1.786,-1.786,-1.786,-1.786,-1.786,-1.786,-1.786,-1.786,-1.786,-1.786,-1.786,-1.786,-1.786,-1.786,-1.786,-1.8949,-2.005,-2.136,-2.3529,-2.591,-2.8296,-2.9393,-3.0632,-1.5181,-1.5181,-1.5181,-1.5181,-1.5181,-1.5147,-1.5197,-1.5135,0.0,0.0,0.0,0.0,0.0,0.0,0.0,0.0,0.0,0.0,0.0,0.0,0.0,0.0,0.0,0.0,0.0,0.0,0.0,0.0,0.0,0.0,-1.6199,-1.6721,-1.7064,-1.701,-1.7016,-1.7071,-1.6978,-1.6978,-1.6978,-1.6978,-1.6978,-1.6978,-1.6978,-1.6978,-1.6998,-1.7032,-1.6929,0.0,0.0,-1.715,-1.7217,-1.725,-1.7696,-1.7933,-1.7961,-1.7961,-1.7961,-1.7975,-1.7875,-1.793,-1.7944,-1.7826,-1.793,-1.7961,-1.7961,-1.7961,-1.7961,-1.7961,-1.7827,-1.793,-1.793,-1.7998,-1.786,-1.786,-1.786,-1.786,-1.786,-1.786,-1.786,-1.786,-1.786,-1.786,-1.786,-1.786,-1.786,-1.786,-1.786,-1.786,-1.786,-1.786,-1.786,-1.786,-1.786,-1.786,-1.786,-1.786,-1.786,-1.786,-1.786,-1.786,-1.786,-1.786,-1.786,-1.786,-1.786,-1.8736,-2.049,-2.0474,-2.2848,-2.7187,-2.7854,-2.9608,-1.5181,-1.5181,-1.5181,-1.5181,-1.5181,-1.5147,-1.5197,0.0,0.0,0.0,0.0,0.0,0.0,0.0,0.0,0.0,0.0,0.0,0.0,0.0,0.0,0.0,0.0,0.0,0.0,0.0,0.0,0.0,0.0,0.0,-1.692,-1.6934,-1.7016,-1.6958,-1.6958,-1.6965,-1.6978,-1.6978,-1.6978,-1.6978,-1.6978,-1.6978,-1.6978,-1.6978,-1.7046,-1.6956,-1.6969,0.0,0.0,-1.7857,-1.7731,-1.7854,-1.7854,-1.793,-1.7826,-1.7826,-1.7826,-1.7826,-1.7846,-1.7846,-1.7846,-1.786,-1.7846,-1.7826,-1.7826,-1.7826,-1.7826,-1.7826,-1.7826,-1.7846,-1.7846,-1.7846,-1.786,-1.786,-1.786,-1.786,-1.786,-1.786,-1.786,-1.786,-1.786,-1.786,-1.786,-1.786,-1.786,-1.786,-1.786,-1.786,-1.786,-1.786,-1.786,-1.786,-1.786,-1.786,-1.786,-1.786,-1.786,-1.786,-1.786,-1.786,-1.786,-1.786,-1.786,-1.786,-1.786,-1.8088,-1.8295,-1.8211,-1.9928,-2.3195,-2.6745,-2.9608,-1.5181,-1.5181,-1.5181,-1.5181,-1.512,-1.521,-1.5243,0.0,0.0,0.0,0.0,0.0,0.0,0.0,0.0,0.0,0.0,0.0,0.0,0.0,0.0,0.0,0.0,0.0,0.0,0.0,0.0,0.0,0.0,0.0,-1.7099,-1.7099,-1.6917,-1.6978,-1.6978,-1.6978,-1.6978,-1.6978,-1.6978,-1.6978,-1.6978,-1.6978,-1.6985,-1.7066,-1.6922,-1.6982,-1.7385,0.0,0.0,-1.7875,-1.7944,-1.7998,-1.7998,-1.7812,-1.786,-1.786,-1.786,-1.786,-1.786,-1.786,-1.786,-1.786,-1.786,-1.786,-1.786,-1.786,-1.786,-1.786,-1.786,-1.786,-1.786,-1.786,-1.786,-1.786,-1.786,-1.786,-1.786,-1.786,-1.786,-1.786,-1.786,-1.786,-1.786,-1.786,-1.786,-1.786,-1.786,-1.786,-1.786,-1.786,-1.786,-1.786,-1.786,-1.786,-1.786,-1.786,-1.786,-1.786,-1.786,-1.786,-1.786,-1.786,-1.786,-1.786,-1.786,-1.786,-1.786,-1.7826,-1.8622,-1.9814,-2.5231,-2.9029,-1.5181,-1.5181,-1.5181,-1.5181,-1.5265,-1.5121,0.0,0.0,0.0,0.0,0.0,0.0,-1.5217,-1.512,-1.5181,-1.5181,0.0,-1.5113,-1.5261,0.0,0.0,0.0,0.0,0.0,0.0,0.0,0.0,0.0,0.0,0.0,0.0,-1.6978,-1.6978,-1.6978,-1.6978,-1.6978,-1.6978,-1.6978,-1.6978,-1.6978,-1.7019,-1.7039,-1.7046,-1.6976,-1.7063,-1.7338,-1.7779,0.0,0.0,-1.7826,-1.786,-1.786,-1.786,-1.786,-1.786,-1.786,-1.786,-1.786,-1.786,-1.786,-1.786,-1.786,-1.786,-1.786,-1.786,-1.786,-1.786,-1.786,-1.786,-1.786,-1.786,-1.786,-1.786,-1.786,-1.786,-1.786,-1.786,-1.786,-1.786,-1.786,-1.786,-1.786,-1.786,-1.786,-1.786,-1.786,-1.786,-1.786,-1.786,-1.786,-1.786,-1.786,-1.786,-1.786,-1.786,-1.786,-1.786,-1.786,-1.786,-1.786,-1.786,-1.786,-1.786,-1.786,-1.786,-1.786,-1.786,-1.786,-1.7998,-1.8058,-2.3711,-2.8382,-1.5181,-1.5181,-1.5181,-1.5181,-1.5265,-1.5114,0.0,0.0,0.0,0.0,0.0,-1.5204,-1.5153,-1.5181,-1.5181,-1.5181,-1.5113,0.0,-1.5215,0.0,0.0,0.0,0.0,0.0,0.0,0.0,0.0,0.0,0.0,0.0,0.0,-1.6978,-1.6978,-1.6978,-1.6978,-1.6978,-1.6978,-1.6978,-1.6978,-1.6985,-1.6909,-1.6969,-1.6976,-1.6908,-1.7277,0.0,0.0,0.0,0.0,-1.786,-1.786,-1.786,-1.786,-1.786,-1.786,-1.786,-1.786,-1.786,-1.786,-1.786,-1.786,-1.786,-1.786,-1.786,-1.786,-1.786,-1.786,-1.786,-1.786,-1.786,-1.786,-1.786,-1.786,-1.786,-1.786,-1.786,-1.786,-1.786,-1.786,-1.786,-1.786,-1.786,-1.786,-1.786,-1.786,-1.786,-1.786,-1.786,-1.786,-1.786,-1.786,-1.786,-1.786,-1.786,-1.786,-1.786,-1.786,-1.786,-1.786,-1.786,-1.786,-1.786,-1.786,-1.786,-1.786,-1.786,-1.786,-1.786,-1.7812,-1.795,-2.2604,-2.7228,-1.5181,-1.5181,-1.516,-1.5252,-1.5114,-1.4991,-1.4375,0.0,0.0,0.0,0.0,-1.5133,-1.5174,-1.5181,-1.5181,-1.5181,-1.512,-1.5267,0.0,0.0,0.0,0.0,0.0,0.0,0.0,0.0,0.0,0.0,0.0,0.0,0.0,-1.6978,-1.6978,-1.6978,-1.6978,-1.6978,-1.6978,-1.6978,-1.7026,-1.6909,-1.6956,-1.7243,-1.758,-1.7731,-1.7827,0.0,0.0,0.0,0.0,-1.786,-1.786,-1.786,-1.786,-1.786,-1.786,-1.786,-1.786,-1.786,-1.786,-1.786,-1.786,-1.786,-1.786,-1.786,-1.786,-1.786,-1.786,-1.786,-1.786,-1.786,-1.786,-1.786,-1.786,-1.786,-1.786,-1.786,-1.786,-1.786,-1.786,-1.786,-1.786,-1.786,-1.786,-1.786,-1.786,-1.786,-1.786,-1.786,-1.786,-1.786,-1.786,-1.786,-1.786,-1.786,-1.786,-1.786,-1.786,-1.786,-1.786,-1.786,-1.786,-1.786,-1.786,-1.786,-1.786,-1.786,-1.786,-1.786,-1.7998,-1.8058,-2.591,-3.0377,0.0,-1.5147,-1.5272,-1.5183,-1.5046,0.0,0.0,0.0,0.0,0.0,0.0,0.0,-1.5181,-1.5181,-1.5201,-1.5255,-1.52,-1.5355,0.0,0.0,0.0,0.0,0.0,0.0,0.0,0.0,0.0,0.0,0.0,0.0,0.0,-1.6978,-1.6978,-1.6978,-1.6978,-1.6978,-1.6978,-1.7032,-1.71,-1.6976,-1.7311,-1.7635,-1.7961,-1.7895,-1.7964,0.0,0.0,0.0,0.0,-1.786,-1.786,-1.786,-1.786,-1.786,-1.786,-1.786,-1.786,-1.786,-1.786,-1.786,-1.786,-1.786,-1.786,-1.786,-1.786,-1.786,-1.786,-1.786,-1.786,-1.786,-1.786,-1.786,-1.786,-1.786,-1.786,-1.786,-1.786,-1.786,-1.786,-1.786,-1.786,-1.786,-1.786,-1.786,-1.786,-1.786,-1.786,-1.786,-1.786,-1.786,-1.786,-1.786,-1.786,-1.786,-1.786,-1.786,-1.786,-1.786,-1.786,-1.786,-1.786,-1.786,-1.786,-1.786,-1.786,-1.786,-1.786,-1.786,-1.7998,-1.8072,-2.7538,-3.1845,0.0,0.0,0.0,0.0,0.0,0.0,0.0,0.0,0.0,0.0,0.0,0.0,-1.5181,-1.5181,-1.5235,-1.5187,-1.5149,-1.5488,0.0,0.0,0.0,0.0,0.0,0.0,0.0,0.0,0.0,0.0,0.0,0.0,0.0,-1.6978,-1.6985,-1.6992,-1.6998,-1.6998,-1.6998,-1.6922,-1.6996,-1.7009,-1.7738,-1.7875,-1.7895,-1.7812,-1.786,0.0,0.0,0.0,0.0,-1.786,-1.786,-1.786,-1.786,-1.786,-1.786,-1.786,-1.786,-1.786,-1.786,-1.786,-1.786,-1.786,-1.786,-1.786,-1.786,-1.786,-1.786,-1.786,-1.786,-1.786,-1.786,-1.786,-1.786,-1.786,-1.786,-1.786,-1.786,-1.786,-1.786,-1.786,-1.786,-1.786,-1.786,-1.786,-1.786,-1.786,-1.786,-1.786,-1.786,-1.786,-1.786,-1.786,-1.786,-1.786,-1.786,-1.786,-1.786,-1.786,-1.786,-1.786,-1.786,-1.786,-1.786,-1.786,-1.786,-1.786,-1.786,-1.786,-1.7812,-1.817,-2.6772,-3.1087,0.0,0.0,0.0,0.0,0.0,0.0,0.0,0.0,0.0,0.0,0.0,0.0,0.0,-1.5181,-1.5235,-1.5187,-1.554,-1.589,0.0,0.0,0.0,0.0,0.0,0.0,0.0,0.0,0.0,0.0,0.0,0.0,0.0,-1.6978,-1.7026,-1.6922,-1.6929,-1.6929,-1.6929,-1.7069,-1.7203,-1.7765,-1.7841,-1.793,-1.7812,-1.7846,-1.786,0.0,0.0,0.0,-1.786,-1.786,-1.786,-1.786,-1.786,-1.786,-1.786,-1.786,-1.786,-1.786,-1.786,-1.786,-1.786,-1.786,-1.786,-1.786,-1.786,-1.786,-1.786,-1.786,-1.786,-1.786,-1.786,-1.786,-1.786,-1.786,-1.786,-1.786,-1.786,-1.786,-1.786,-1.786,-1.786,-1.786,-1.786,-1.786,-1.786,-1.786,-1.786,-1.786,-1.786,-1.786,-1.786,-1.786,-1.786,-1.786,-1.786,-1.786,-1.786,-1.786,-1.786,-1.786,-1.786,-1.786,-1.786,-1.786,-1.786,-1.786,-1.786,-1.786,-1.7812,-1.795,-2.0193,-2.509,0.0,0.0,0.0,0.0,0.0,0.0,0.0,0.0,0.0,0.0,0.0,0.0,0.0,0.0,0.0,-1.5288,-1.5642,0.0,0.0,0.0,0.0,0.0,0.0,0.0,0.0,0.0,0.0,0.0,0.0,0.0,0.0,-1.7039,-1.6895,-1.6969,-1.7331,-1.7372,-1.7518,-1.7446,-1.7568,-1.7875,-1.7944,-1.7792,-1.786,-1.786,-1.786,0.0,0.0,0.0,-1.786,-1.786,-1.786,-1.786,-1.786,-1.786,-1.786,-1.786,-1.786,-1.786,-1.786,-1.786,-1.786,-1.786,-1.786,-1.786,-1.786,-1.786,-1.786,-1.786,-1.786,-1.786,-1.786,-1.786,-1.786,-1.786,-1.786,-1.786,-1.786,-1.786,-1.786,-1.786,-1.786,-1.786,-1.786,-1.786,-1.786,-1.786,-1.786,-1.786,-1.786,-1.786,-1.786,-1.786,-1.786,-1.786,-1.786,-1.786,-1.786,-1.786,-1.786,-1.786,-1.786,-1.786,-1.786,-1.786,-1.786,-1.786,-1.786,-1.786,-1.7846,-1.7792,-1.7964,-2.0576,0.0,0.0,0.0,0.0,0.0,0.0,0.0,0.0,0.0,0.0,0.0,0.0,0.0,0.0,0.0,0.0,0.0,0.0,0.0,0.0,0.0,0.0,0.0,0.0,0.0,0.0,0.0,0.0,0.0,0.0,0.0,-1.6909,-1.6996,-1.7043,-1.7738,-1.7827,-1.7933,-1.7841,-1.7909,-1.7909,-1.7812,-1.786,-1.786,-1.786,-1.786,-1.786,0.0,0.0,-1.786,-1.786,-1.786,-1.786,-1.786,-1.786,-1.786,-1.786,-1.786,-1.786,-1.786,-1.786,-1.786,-1.786,-1.786,-1.786,-1.786,-1.786,-1.786,-1.786,-1.786,-1.786,-1.786,-1.786,-1.786,-1.786,-1.786,-1.786,-1.786,-1.786,-1.786,-1.786,-1.786,-1.786,-1.786,-1.786,-1.786,-1.786,-1.786,-1.786,-1.786,-1.786,-1.786,-1.786,-1.786,-1.786,-1.786,-1.786,-1.786,-1.786,-1.786,-1.786,-1.786,-1.786,-1.786,-1.786,-1.786,-1.786,-1.786,-1.786,-1.786,-1.786,-1.7998,-1.7909,0.0,0.0,0.0,0.0,0.0,0.0,0.0,0.0,0.0,0.0,0.0,0.0,0.0,0.0,0.0,0.0,0.0,0.0,0.0,0.0,0.0,0.0,0.0,0.0,0.0,0.0,0.0,0.0,0.0,0.0,0.0,-1.6962,-1.7311,-1.7792,-1.7847,-1.793,-1.7792,-1.7812,-1.7826,-1.7826,-1.7846,-1.786,-1.786,-1.786,-1.786,-1.786,0.0,-1.786,-1.786,-1.786,-1.786,-1.786,-1.786,-1.786,-1.786,-1.786,-1.786,-1.786,-1.786,-1.786,-1.786,-1.786,-1.786,-1.786,-1.786,-1.786,-1.786,-1.786,-1.786,-1.786,-1.786,-1.786,-1.786,-1.786,-1.786,-1.786,-1.786,-1.786,-1.786,-1.786,-1.786,-1.786,-1.786,-1.786,-1.786,-1.786,-1.786,-1.786,-1.786,-1.786,-1.786,-1.786,-1.786,-1.786,-1.786,-1.786,-1.786,-1.786,-1.786,-1.786,-1.786,-1.786,-1.786,-1.786,-1.786,-1.786,-1.786,-1.786,-1.786,-1.786,-1.7846,-1.7792,-1.5181,0.0,0.0,0.0,0.0,0.0,0.0,0.0,0.0,0.0,0.0,0.0,0.0,0.0,0.0,0.0,0.0,0.0,0.0,0.0,0.0,0.0,0.0,0.0,0.0,0.0,0.0,0.0,0.0,0.0,0.0,0.0,-1.7507,-1.7875,-1.7944,-1.7792,-1.786,-1.786,-1.786,-1.786,-1.786,-1.786,-1.786,-1.786,-1.786,-1.786,0.0,-1.786,-1.786,-1.786,-1.786,-1.786,-1.786,-1.786,-1.786,-1.786,-1.786,-1.786,-1.786,-1.786,-1.786,-1.786,-1.786,-1.786,-1.786,-1.786,-1.786,-1.786,-1.786,-1.786,-1.786,-1.786,-1.786,-1.786,-1.786,-1.786,-1.786,-1.786,-1.786,-1.786,-1.786,-1.786,-1.786,-1.786,-1.786,-1.786,-1.786,-1.786,-1.786,-1.786,-1.786,-1.786,-1.786,-1.786,-1.786,-1.786,-1.786,-1.786,-1.786,-1.786,-1.786,-1.786,-1.786,-1.786,-1.786,-1.786,-1.786,-1.786,-1.786,-1.786,-1.786,-1.7812,-1.5181,-1.5181,0.0,0.0,0.0,0.0,0.0,0.0,0.0,0.0,0.0,0.0,0.0,0.0,0.0,0.0,0.0,0.0,0.0,0.0,0.0,0.0,0.0,0.0,0.0,0.0,0.0,0.0,0.0,0.0,0.0,0.0,-1.7895,-1.793,-1.7812,-1.786,-1.786,-1.786,-1.786,-1.786,-1.786,-1.786,-1.786,-1.786,-1.786,-1.786,-1.786,-1.786,-1.786,-1.786,-1.786,-1.786,-1.786,-1.786,-1.786,-1.786,-1.786,-1.786,-1.786,-1.786,-1.786,-1.786,-1.786,-1.786,-1.786,-1.786,-1.786,-1.786,-1.786,-1.786,-1.786,-1.786,-1.786,-1.786,-1.786,-1.786,-1.786,-1.786,-1.786,-1.786,-1.786,-1.786,-1.786,-1.786,-1.786,-1.786,-1.786,-1.786,-1.786,-1.786,-1.786,-1.786,-1.786,-1.788,-1.7914,-1.7948,-1.7968,-1.7968,-1.7968,-1.7968,-1.7968,-1.7968,-1.7968,-1.7968,-1.7968,-1.7968,-1.7968,-1.7935,-1.7914,-1.7914,-1.788,-1.7826,-1.5181,-1.5181,0.0,0.0,0.0,0.0,0.0,0.0,0.0,0.0,0.0,0.0,0.0,0.0,0.0,0.0,0.0,0.0,0.0,0.0,0.0,0.0,0.0,0.0,0.0,0.0,0.0,0.0,0.0,0.0,0.0,0.0,0.0,-1.7846,-1.786,-1.786,-1.786,-1.786,-1.786,-1.786,-1.786,-1.786,-1.786,-1.786,-1.786,-1.786,-1.786,-1.786,-1.786,-1.786,-1.786,-1.786,-1.786,-1.786,-1.786,-1.786,-1.786,-1.786,-1.786,-1.786,-1.786,-1.786,-1.786,-1.786,-1.786,-1.786,-1.786,-1.786,-1.786,-1.786,-1.786,-1.786,-1.786,-1.786,-1.786,-1.786,-1.786,-1.786,-1.786,-1.786,-1.786,-1.786,-1.786,-1.786,-1.786,-1.786,-1.786,-1.786,-1.786,-1.786,-1.786,-1.786,-1.786,-1.7914,-1.8057,-1.8199,-1.8287,-1.8287,-1.8287,-1.828,-1.828,-1.8048,-1.7821,-1.7821,-1.7821,-1.7821,-1.7821,-1.7914,-1.7847,-1.7847,-1.7935,-1.786,-1.5181,-1.5181,0.0,0.0,0.0,0.0,0.0,0.0,0.0,0.0,0.0,0.0,0.0,0.0,0.0,0.0,0.0,0.0,0.0,0.0,0.0,0.0,0.0,0.0,0.0,0.0,0.0,0.0,0.0,0.0,0.0,0.0,0.0,-1.786,-1.786,-1.786,-1.786,-1.786,-1.786,-1.786,-1.786,-1.786,-1.786,-1.786,-1.786,-1.786,-1.786,-1.786,-1.786,-1.786,-1.786,-1.786,-1.786,-1.786,-1.786,-1.786,-1.786,-1.786,-1.786,-1.786,-1.786,-1.786,-1.786,-1.786,-1.786,-1.786,-1.786,-1.786,-1.786,-1.786,-1.786,-1.786,-1.786,-1.786,-1.786,-1.786,-1.786,-1.786,-1.786,-1.786,-1.786,-1.786,-1.786,-1.786,-1.786,-1.786,-1.786,-1.786,-1.786,-1.7948,-1.8002,-1.8002,-1.8091,-1.8179,-1.8233,-1.8375,-1.8443,-1.8443,-1.8375,-1.8321,-1.8321,-1.8088,-1.8088,-1.8088,-1.8321,-1.8548,-1.8548,-1.85,-1.8233,-1.7994,-1.7947,-1.786,-1.4993,-1.4805,0.0,0.0,0.0,0.0,0.0,0.0,0.0,0.0,0.0,0.0,0.0,0.0,0.0,0.0,0.0,0.0,0.0,0.0,0.0,0.0,0.0,0.0,0.0,0.0,0.0,0.0,0.0,0.0,0.0,0.0,-1.7639,-1.786,-1.786,-1.786,-1.786,-1.786,-1.786,-1.786,-1.786,-1.786,-1.786,-1.786,-1.786,-1.786,-1.786,-1.786,-1.786,-1.786,-1.786,-1.786,-1.786,-1.786,-1.786,-1.786,-1.786,-1.786,-1.786,-1.786,-1.786,-1.786,-1.786,-1.786,-1.786,-1.786,-1.786,-1.786,-1.786,-1.786,-1.786,-1.786,-1.786,-1.786,-1.786,-1.786,-1.786,-1.786,-1.786,-1.786,-1.786,-1.786,-1.786,-1.7901,-1.7935,-1.7935,-1.7968,-1.8002,-1.8002,-1.8091,-1.8158,-1.8158,-1.8301,-1.8389,-1.8389,-1.8511,-1.8599,-1.8599,-1.8511,-1.8464,-1.8464,-1.8464,-1.8464,-1.8464,-1.8699,-1.8699,-1.8699,-1.8879,-1.8623,-1.8155,-1.8108,-1.8267,-1.4422,0.0,0.0,0.0,0.0,0.0,0.0,0.0,0.0,0.0,0.0,0.0,0.0,0.0,0.0,0.0,0.0,0.0,0.0,0.0,0.0,0.0,0.0,0.0,0.0,0.0,0.0,0.0,0.0,0.0,0.0,-1.6988,-1.7197,-1.786,-1.786,-1.786,-1.786,-1.786,-1.786,-1.786,-1.786,-1.786,-1.786,-1.786,-1.786,-1.786,-1.786,-1.786,-1.786,-1.786,-1.786,-1.786,-1.786,-1.786,-1.786,-1.786,-1.786,-1.786,-1.786,-1.786,-1.786,-1.786,-1.786,-1.786,-1.786,-1.786,-1.786,-1.786,-1.786,-1.786,-1.786,-1.786,-1.786,-1.786,-1.786,-1.786,-1.786,-1.786,-1.786,-1.786,-1.786,-1.786,-1.786,-1.7989,-1.8091,-1.8091,-1.8213,-1.8321,-1.8321,-1.8321,-1.8321,-1.8321,-1.8443,-1.8531,-1.8531,-1.8674,-1.8762,-1.8762,-1.8762,-1.8762,-1.8762,-1.8762,-1.8762,-1.8762,-1.8762,-1.8762,-1.8762,-1.8836,-1.8768,-1.8768,-1.8858,-1.8788,-1.4993,0.0,0.0,0.0,0.0,0.0,0.0,0.0,0.0,0.0,0.0,0.0,0.0,0.0,0.0,0.0,0.0,0.0,0.0,0.0,0.0,0.0,0.0,0.0,0.0,0.0,0.0,0.0,0.0,0.0,0.0,-1.676,-1.6988,-1.7197,-1.7632,-1.786,-1.786,-1.786,-1.786,-1.786,-1.786,-1.786,-1.786,-1.786,-1.786,-1.786,-1.786,-1.786,-1.786,-1.786,-1.786,-1.786,-1.786,-1.786,-1.788,-1.7989,-1.8023,-1.8036,-1.8145,-1.8179,-1.8179,-1.8179,-1.8179,-1.8179,-1.8179,-1.8179,-1.8179,-1.8179,-1.8179,-1.8179,-1.8179,-1.8179,-1.8158,-1.8057,-1.8023,-1.8057,-1.8158,-1.8179,-1.8179,-1.8179,-1.8179,-1.8179,-1.8179,-1.8213,-1.8247,-1.8247,-1.8287,-1.8355,-1.8464,-1.8464,-1.8511,-1.862,-1.8674,-1.8694,-1.8694,-1.8742,-1.8762,-1.8762,-1.8762,-1.8762,-1.8762,-1.8762,-1.8762,-1.8762,-1.8762,-1.8762,-1.8762,-1.8708,-1.8694,-1.8694,-1.8891,-1.8802,0.0,0.0,0.0,0.0,0.0,0.0,0.0,0.0,0.0,0.0,0.0,0.0,0.0,0.0,0.0,0.0,0.0,0.0,0.0,0.0,0.0,0.0,0.0,0.0,0.0,0.0,0.0,0.0,0.0,0.0,0.0,-1.6089,-1.6545,-1.6988,-1.7424,-1.7652,-1.786,-1.786,-1.786,-1.786,-1.786,-1.786,-1.786,-1.786,-1.786,-1.786,-1.786,-1.786,-1.786,-1.7935,-1.7948,-1.7968,-1.8023,-1.8036,-1.8057,-1.8145,-1.8179,-1.8199,-1.8287,-1.8321,-1.8321,-1.8321,-1.8321,-1.8321,-1.8321,-1.8321,-1.8321,-1.8321,-1.8321,-1.8321,-1.8321,-1.8321,-1.8301,-1.8199,-1.8179,-1.8213,-1.8301,-1.8321,-1.8321,-1.8321,-1.8321,-1.8321,-1.8321,-1.8375,-1.8409,-1.8409,-1.8464,-1.8531,-1.862,-1.862,-1.8654,-1.8742,-1.8762,-1.8762,-1.8762,-1.8762,-1.8762,-1.8762,-1.8762,-1.8762,-1.8762,-1.8762,-1.8762,-1.8762,-1.8762,-1.8762,-1.8762,-1.8762,-1.8762,-1.8762,-1.8762,-1.8708,0.0,0.0,0.0,0.0,0.0,0.0,0.0,0.0,0.0,0.0,0.0,0.0,0.0,0.0,0.0,0.0,0.0,0.0,0.0,0.0,0.0,0.0,0.0,0.0,0.0,0.0,0.0,0.0,0.0,0.0,0.0,-1.5197,-1.564,-1.676,-1.6982,-1.7197,-1.786,-1.786,-1.786,-1.786,-1.786,-1.786,-1.788,-1.786,-1.786,-1.788,-1.788,-1.7901,-1.7914,-1.8057,-1.8111,-1.8124,-1.8267,-1.8321,-1.8321,-1.8335,-1.8335,-1.8335,-1.8355,-1.8355,-1.8355,-1.8355,-1.8355,-1.8355,-1.8355,-1.8355,-1.8355,-1.8355,-1.8355,-1.8355,-1.8355,-1.8355,-1.8355,-1.8355,-1.8355,-1.8335,-1.8355,-1.8355,-1.8355,-1.8355,-1.8355,-1.8355,-1.8355,-1.8464,-1.8552,-1.8552,-1.8674,-1.8762,-1.8762,-1.8762,-1.8762,-1.8762,-1.8762,-1.8762,-1.8762,-1.8762,-1.8762,-1.8762,-1.8762,-1.8762,-1.8762,-1.8762,-1.8762,-1.8762,-1.8762,-1.8762,-1.8762,-1.8762,-1.8762,-1.8762,-1.8762,-1.8762,0.0,0.0,0.0,0.0,0.0,0.0,0.0,0.0,0.0,0.0,0.0,0.0,0.0,0.0,0.0,0.0,0.0,0.0,0.0,0.0,0.0,0.0,0.0,0.0,0.0,0.0,0.0,0.0,0.0,0.0,-1.4547,-1.4986,-1.5424,-1.5652,-1.6545,-1.6988,-1.721,-1.7652,-1.786,0.0,-1.786,-1.7935,-1.8036,-1.7914,-1.7935,-1.8036,-1.8036,-1.8111,-1.8233,-1.8247,-1.8267,-1.8267,-1.8301,-1.8321,-1.8335,-1.8443,-1.8477,-1.8498,-1.862,-1.8674,-1.8674,-1.8674,-1.8674,-1.8674,-1.8674,-1.8674,-1.8674,-1.8674,-1.8674,-1.8674,-1.8674,-1.8674,-1.8674,-1.8674,-1.8565,-1.8511,-1.864,-1.8674,-1.8674,-1.8674,-1.8674,-1.8674,-1.8674,-1.8694,-1.8708,-1.8708,-1.8742,-1.8762,-1.8762,-1.8762,-1.8762,-1.8762,-1.8762,-1.8762,-1.8762,-1.8762,-1.8762,-1.8762,-1.8762,-1.8762,-1.8762,-1.8762,-1.8762,-1.8762,-1.8762,-1.8762,-1.8762,-1.8762,-1.8762,-1.8762,-1.8762,-1.8762,0.0,0.0,0.0,0.0,0.0,0.0,0.0,0.0,0.0,0.0,0.0,0.0,0.0,0.0,0.0,0.0,0.0,0.0,0.0,0.0,0.0,0.0,0.0,0.0,0.0,0.0,0.0,0.0,0.0,-1.432,-1.432,-1.4536,-1.4986,-1.5197,-1.6089,-1.6754,-1.6988,-1.7652,-1.7901,-1.7968,-1.7968,-1.8057,-1.8199,-1.8124,-1.8124,-1.8199,-1.8199,-1.8247,-1.8321,-1.8389,-1.8423,-1.8423,-1.8498,-1.8531,-1.8531,-1.862,-1.864,-1.8654,-1.8728,-1.8762,-1.8762,-1.8762,-1.8762,-1.8762,-1.8762,-1.8762,-1.8762,-1.8762,-1.8762,-1.8762,-1.8762,-1.8762,-1.8762,-1.8762,-1.8708,-1.8654,-1.8742,-1.8762,-1.8762,-1.8762,-1.8762,-1.8762,-1.8762,-1.8762,-1.8762,-1.8762,-1.8762,-1.8762,-1.8762,-1.8762,-1.8762,-1.8762,-1.8762,-1.8762,-1.8762,-1.8762,-1.8762,-1.8762,-1.8762,-1.8762,-1.8762,-1.8762,-1.8762,-1.8762,-1.8762,-1.8762,-1.8762,-1.8762,-1.8762,-1.8762,-1.8762,-1.8762,0.0,0.0,0.0,0.0,0.0,0.0,0.0,0.0,0.0,0.0,0.0,0.0,0.0,0.0,0.0,0.0,0.0,0.0,0.0,0.0,0.0,0.0,0.0,0.0,0.0,0.0,0.0,0.0,0.0,-1.432,-1.432,-1.432,-1.4531,-1.4975,-1.5652,-1.6336,-1.6792,-1.7458,-1.776,-1.79,-1.7934,-1.8226,-1.8355,-1.8389,-1.8375,-1.8355,-1.8355,-1.8375,-1.8409,-1.8511,-1.8565,-1.8586,-1.8708,-1.8762,-1.8762,-1.8762,-1.8762,-1.8762,-1.8762,-1.8762,-1.8762,-1.8762,-1.8762,-1.8762,-1.8762,-1.8762,-1.8762,-1.8762,-1.8762,-1.8762,-1.8762,-1.8762,-1.8762,-1.8762,-1.8762,-1.8762,-1.8762,-1.8762,-1.8762,-1.8762,-1.8762,-1.8762,-1.8762,-1.8762,-1.8762,-1.8762,-1.8762,-1.8762,-1.8762,-1.8762,-1.8762,-1.8762,-1.8762,-1.8762,-1.8762,-1.8762,-1.8762,-1.8762,-1.8762,-1.8762,-1.8762,-1.8762,-1.8762,-1.8762,-1.8762,-1.8762,-1.8762,-1.8762,-1.8762,-1.8762,-1.8762,-1.8762,0.0,0.0,0.0,0.0,0.0,0.0,0.0,0.0,0.0,0.0,0.0,0.0,0.0,0.0,0.0,0.0,0.0,0.0,0.0,0.0,0.0,0.0,0.0,0.0,0.0,0.0,0.0,0.0,-1.432,-1.432,-1.432,-1.432,-1.432,-1.4325,-1.4986,-1.57,-1.6491,-1.6939,-1.7464,-1.7602,-1.7504,-1.802,-1.8511,-1.864,-1.864,-1.8498,-1.8498,-1.8586,-1.8708,-1.8728,-1.8728,-1.8728,-1.8762,-1.8762,-1.8762,-1.8762,-1.8762,-1.8762,-1.8762,-1.8762,-1.8762,-1.8762,-1.8762,-1.8762,-1.8762,-1.8762,-1.8762,-1.8762,-1.8762,-1.8762,-1.8762,-1.8762,-1.8762,-1.8762,-1.8762,-1.8762,-1.8762,-1.8762,-1.8762,-1.8762,-1.8762,-1.8762,-1.8762,-1.8762,-1.8762,-1.8762,-1.8762,-1.8762,-1.8762,-1.8762,-1.8762,-1.8762,-1.8762,-1.8762,-1.8762,-1.8762,-1.8762,-1.8762,-1.8762,-1.8762,-1.8762,-1.8762,-1.8762,-1.8762,-1.8762,-1.8762,-1.8762,-1.8762,-1.8762,-1.8762,-1.8762,-1.8762,0.0,0.0,0.0,0.0,0.0,0.0,0.0,0.0,0.0,0.0,0.0,0.0,0.0,0.0,0.0,0.0,0.0,0.0,0.0,0.0,0.0,0.0,0.0,0.0,0.0,0.0,0.0,0.0,-1.432,-1.432,-1.432,-1.432,-1.432,-1.432,-1.5043,-1.5559,-1.5854,-1.6364,-1.6934,-1.7066,-1.7211,-1.7498,-1.8192,-1.8265,-1.8483,-1.8654,-1.8654,-1.8694,-1.8762,-1.8762,-1.8762,-1.8762,-1.8762,-1.8762,-1.8762,-1.8762,-1.8762,-1.8762,-1.8762,-1.8762,-1.8762,-1.8762,-1.8762,-1.8762,-1.8762,-1.8762,-1.8762,-1.8762,-1.8762,-1.8762,-1.8762,-1.8762,-1.8762,-1.8762,-1.8762,-1.8762,-1.8762,-1.8762,-1.8762,-1.8762,-1.8762,-1.8762,-1.8762,-1.8762,-1.8762,-1.8762,-1.8762,-1.8762,-1.8762,-1.8762,-1.8762,-1.8762,-1.8762,-1.8762,-1.8762,-1.8762,-1.8762,-1.8762,-1.8762,-1.8762,-1.8762,-1.8762,-1.8762,-1.8762,-1.8762,-1.8762,-1.8762,-1.8762,-1.8762,-1.8762,-1.8762,-1.8762,0.0,0.0,0.0,0.0,0.0,0.0,0.0,0.0,0.0,0.0,0.0,0.0,0.0,0.0,0.0,0.0,0.0,0.0,0.0,0.0,0.0,0.0,0.0,0.0,0.0,0.0,0.0,0.0,-1.432,-1.432,-1.432,-1.432,-1.4336,-1.4363,-1.4904,-1.5197,-1.5497,-1.6086,-1.6428,-1.6743,-1.6615,-1.6902,-1.7581,-1.782,-1.8059,-1.8304,-1.8755,-1.8762,-1.8762,-1.8762,-1.8762,-1.8762,-1.8762,-1.8762,-1.8762,-1.8762,-1.8762,-1.8762,-1.8762,-1.8762,-1.8762,-1.8762,-1.8762,-1.8762,-1.8762,-1.8762,-1.8762,-1.8762,-1.8762,-1.8762,-1.8762,-1.8762,-1.8762,-1.8762,-1.8762,-1.8762,-1.8762,-1.8762,-1.8762,-1.8762,-1.8762,-1.8762,-1.8762,-1.8762,-1.8762,-1.8762,-1.8762,-1.8762,-1.8762,-1.8762,-1.8762,-1.8762,-1.8762,-1.8762,-1.8762,-1.8762,-1.8762,-1.8762,-1.8762,-1.8762,-1.8762,-1.8762,-1.8762,-1.8762,-1.8762,-1.8762,-1.8762,-1.8762,-1.8762,-1.8762,-1.8762,-1.8762,0.0,0.0,0.0,0.0,0.0,0.0,0.0,0.0,0.0,0.0,0.0,0.0,0.0,0.0,0.0,0.0,0.0,0.0,0.0,0.0,0.0,0.0,0.0,0.0,0.0,0.0,0.0,0.0,-1.432,-1.432,-1.432,-1.432,-1.4379,-1.4488,-1.4504,-1.4834,-1.5751,-1.5889,-1.6419,-1.6884,-1.6419,-1.6436,-1.6902,-1.76,-1.76,-1.7135,-1.8298,-1.8762,-1.8762,-1.8762,-1.8762,-1.8762,-1.8762,-1.8762,-1.8762,-1.8762,-1.8762,-1.8762,-1.8762,-1.8762,-1.8762,-1.8762,-1.8762,-1.8762,-1.8762,-1.8762,-1.8762,-1.8762,-1.8762,-1.8762,-1.8762,-1.8762,-1.8762,-1.8762,-1.8762,-1.8762,-1.8762,-1.8762,-1.8762,-1.8762,-1.8762,-1.8762,-1.8762,-1.8762,-1.8762,-1.8762,-1.8762,-1.8762,-1.8762,-1.8762,-1.8762,-1.8762,-1.8762,-1.8762,-1.8762,-1.8762,-1.8762,-1.8762,-1.8762,-1.8762,-1.8762,-1.8762,-1.8762,-1.8762,-1.8762,-1.8762,-1.8762,-1.8762,-1.8762,-1.8762,-1.8762,-1.8762,0.0,0.0,0.0,0.0,0.0,0.0,0.0,0.0,0.0,0.0,0.0,0.0,0.0,0.0,0.0,0.0,0.0,0.0,0.0,0.0,0.0,0.0,0.0,0.0,0.0,0.0,0.0,0.0,0.0,-1.432,-1.432,-1.432,-1.4379,-1.4504,-1.4575,-1.4733,-1.5204,-1.5248,-1.5498,-1.5737,-1.5498,-1.5737,-1.6436,-1.6657,-1.6663,-1.6902,-1.7361,-1.76,-1.76,-1.8059,-1.8065,-1.8298,-1.8523,-1.8762,-1.8762,-1.8762,-1.8762,-1.8762,-1.8762,-1.8762,-1.8762,-1.8762,-1.8762,-1.8762,-1.8762,-1.8762,-1.8762,-1.8762,-1.8762,-1.8762,-1.8762,-1.8762,-1.8762,-1.8762,-1.8762,-1.8762,-1.8762,-1.8762,-1.8762,-1.8762,-1.8762,-1.8762,-1.8762,-1.8762,-1.8762,-1.8762,-1.8762,-1.8762,-1.8762,-1.8762,-1.8762,-1.8762,-1.8762,-1.8762,-1.8762,-1.8762,-1.8762,-1.8762,-1.8762,-1.8762,-1.8762,-1.8762,-1.8762,-1.8762,-1.8762,-1.8762,-1.8762,-1.8762,-1.8762,-1.8762,-1.8762,-1.8762,0.0,0.0,0.0,0.0,0.0,0.0,0.0,0.0,0.0,0.0,0.0,0.0,0.0,0.0,0.0,0.0,0.0,0.0,0.0,0.0,0.0,0.0,0.0,0.0,0.0,0.0,0.0,0.0,0.0,0.0,-1.432,-1.4363,-1.4461,-1.4619,-1.4727,-1.4869,-1.5037,-1.5037,-1.5037,-1.5037,-1.5037,-1.5276,-1.5737,-1.5959,-1.6198,-1.6203,-1.6442,-1.6663,-1.6902,-1.7361,-1.7581,-1.782,-1.8298,-1.8523,-1.8762,-1.8762,-1.8762,-1.8762,-1.8762,-1.8762,-1.8762,-1.8762,-1.8762,-1.8762,-1.8762,-1.8762,-1.8762,-1.8762,-1.8762,-1.8762,-1.8762,-1.8762,-1.8762,-1.8762,-1.8762,-1.8762,-1.8762,-1.8762,-1.8762,-1.8762,-1.8762,-1.8762,-1.8762,-1.8762,-1.8762,-1.8762,-1.8762,-1.8762,-1.8762,-1.8762,-1.8762,-1.8762,-1.8762,-1.8762,-1.8762,-1.8762,-1.8762,-1.8762,-1.8762,-1.8762,-1.8762,-1.8762,-1.8782,-1.883,-1.883,-1.8864,-1.8898,-1.8816,-1.8762,-1.8762,-1.8762,-1.8762,0.0,0.0,0.0,0.0,0.0,0.0,0.0,0.0,0.0,0.0,0.0,0.0,0.0,0.0,0.0,0.0,0.0,0.0,0.0,0.0,0.0,0.0,0.0,0.0,0.0,0.0,0.0,0.0,-1.432,-1.432,-1.432,-1.4434,-1.4619,-1.4841,-1.4967,-1.5037,-1.5037,-1.5037,-1.5037,-1.5037,-1.5037,-1.5037,-1.5037,-1.5737,-1.5737,-1.5037,-1.5737,-1.6203,-1.6896,-1.6896,-1.7123,-1.782,-1.782,-1.8298,-1.8762,-1.8762,-1.8762,-1.8762,-1.8762,-1.8762,-1.8762,-1.8762,-1.8762,-1.8762,-1.8762,-1.8762,-1.8762,-1.8762,-1.8762,-1.8762,-1.8762,-1.8762,-1.8762,-1.8762,-1.8762,-1.8762,-1.8762,-1.8762,-1.8762,-1.8762,-1.8762,-1.8762,-1.8762,-1.8762,-1.8762,-1.8762,-1.8762,-1.8762,-1.8762,-1.8762,-1.8762,-1.8762,-1.8762,-1.8762,-1.8762,-1.8762,-1.8762,-1.8782,-1.8782,-1.8782,-1.8782,-1.8782,-1.885,-1.8751,-1.8751,-1.8818,-1.8714,-1.8918,-1.8782,-1.8782,-1.8782,-1.8782,-1.2694,0.0,0.0,0.0,0.0,0.0,0.0,0.0,0.0,0.0,0.0,0.0,0.0,0.0,0.0,0.0,0.0,0.0,0.0,0.0,0.0,0.0,0.0,0.0,0.0,0.0,0.0,0.0,-1.432,-1.432,-1.432,-1.4515,-1.47,-1.4858,-1.4967,-1.5037,-1.5037,-1.5037,-1.5037,-1.5037,-1.5037,-1.5037,-1.5037,-1.5276,-1.5276,-1.5037,-1.5276,-1.5265,-1.5498,-1.5965,-1.6657,-1.7123,-1.7588,-1.8298,-1.8762,-1.8762,-1.8762,-1.8762,-1.8762,-1.8762,-1.8762,-1.8762,-1.8762,-1.8762,-1.8762,-1.8762,-1.8762,-1.8762,-1.8762,-1.8762,-1.8762,-1.8762,-1.8762,-1.8762,-1.8762,-1.8762,-1.8762,-1.8762,-1.8762,-1.8762,-1.8762,-1.8762,-1.8762,-1.8762,-1.8762,-1.8762,-1.8762,-1.8762,-1.8762,-1.8762,-1.8762,-1.8762,-1.8762,-1.8816,-1.8918,-1.8918,-1.8972,-1.9074,-1.8838,-1.8831,-1.8831,-1.8831,-1.8851,-1.8905,-1.9149,-1.9413,-1.9447,-1.9108,-1.8831,-1.8831,-1.8831,-1.8831,0.0,0.0,0.0,0.0,0.0,0.0,-1.3303,-1.3466,-1.3602,0.0,0.0,0.0,0.0,0.0,0.0,0.0,0.0,0.0,0.0,0.0,0.0,0.0,0.0,0.0,0.0,-1.432,-1.432,-1.432,-1.432,-1.4363,-1.4461,-1.4646,-1.4798,-1.4923,-1.4994,-1.5037,-1.5037,-1.5037,-1.5037,-1.5037,-1.5037,-1.5037,-1.5037,-1.5037,-1.5037,-1.5037,-1.5037,-1.5037,-1.5037,-1.5498,-1.6198,-1.6902,-1.7361,-1.8059,-1.8762,-1.8762,-1.8762,-1.8762,-1.8762,-1.8762,-1.8762,-1.8762,-1.8762,-1.8762,-1.8762,-1.8762,-1.8762,-1.8762,-1.8762,-1.8762,-1.8762,-1.8762,-1.8762,-1.8762,-1.8762,-1.8762,-1.8762,-1.8762,-1.8762,-1.8762,-1.8762,-1.8762,-1.8762,-1.8762,-1.8762,-1.8762,-1.8762,-1.8782,-1.885,-1.885,-1.8884,-1.8938,-1.8938,-1.8972,-1.9074,-1.9074,-1.8872,-1.8959,-1.8952,-1.8959,-1.9203,-1.9203,-1.9237,-1.9284,-1.9537,-1.9817,-1.9647,-1.9278,-1.9203,-1.9203,-1.9203,-1.9203,0.0,0.0,0.0,0.0,0.0,0.0,-1.3395,-1.3515,-1.3602,-1.3602,0.0,0.0,0.0,0.0,0.0,0.0,0.0,0.0,0.0,0.0,0.0,0.0,0.0,0.0,-1.432,-1.432,-1.432,-1.432,-1.4336,-1.4434,-1.4657,-1.4787,-1.4912,-1.5037,-1.5037,-1.5037,-1.5037,-1.5037,-1.5037,-1.5037,-1.5037,-1.5037,-1.5037,-1.5037,-1.5037,-1.5037,-1.5037,-1.5037,-1.5037,-1.5053,-1.5754,-1.6896,-1.6896,-1.76,-1.8762,-1.8762,-1.8762,-1.8762,-1.8762,-1.8762,-1.8762,-1.8762,-1.8762,-1.8762,-1.8762,-1.8762,-1.8762,-1.8762,-1.8762,-1.8762,-1.8762,-1.8762,-1.8762,-1.8782,-1.8782,-1.8796,-1.8816,-1.8816,-1.8816,-1.8816,-1.8796,-1.8796,-1.8816,-1.8816,-1.8816,-1.8816,-1.8816,-1.8871,-1.8993,-1.9006,-1.9061,-1.9183,-1.9203,-1.9203,-1.9217,-1.9217,-1.8992,-1.9006,-1.9006,-1.925,-1.9748,-1.9748,-1.9817,-1.9695,-1.9695,-1.9763,-1.9664,-1.9626,-1.9748,-1.9748,-1.9748,-1.9748,0.0,0.0,0.0,0.0,0.0,0.0,-1.3417,-1.3515,-1.3602,0.0,-1.3602,0.0,0.0,0.0,0.0,0.0,0.0,0.0,0.0,0.0,0.0,0.0,-1.408,-1.4205,-1.4309,-1.432,-1.432,-1.432,-1.4407,-1.4532,-1.4657,-1.4787,-1.4912,-1.5037,-1.5037,-1.5037,-1.5037,-1.5037,-1.5037,-1.5037,-1.5037,-1.5037,-1.5037,-1.5037,-1.5037,-1.5037,-1.5037,-1.5037,-1.5053,-1.5151,-1.5588,-1.6198,-1.6663,-1.7361,-1.8059,-1.8523,-1.8762,-1.8762,-1.8762,-1.8762,-1.8762,-1.8762,-1.8762,-1.8762,-1.8762,-1.8762,-1.8762,-1.8762,-1.8762,-1.8762,-1.8762,-1.8762,-1.8796,-1.8918,-1.8938,-1.8972,-1.9094,-1.9115,-1.9115,-1.9115,-1.9027,-1.8993,-1.9094,-1.9115,-1.9115,-1.9115,-1.9115,-1.9128,-1.9149,-1.9169,-1.9169,-1.9203,-1.9203,-1.9257,-1.9379,-1.9133,-1.9186,-1.9556,-1.9569,-1.9569,-1.9818,-1.9818,-1.9596,-1.961,-1.961,-1.963,-1.9664,-1.961,-1.9818,-1.9818,-1.9818,-1.9818,0.0,0.0,0.0,-1.3232,0.0,0.0,0.0,-1.3558,-1.3602,-1.3602,-1.3602,0.0,0.0,0.0,0.0,0.0,0.0,0.0,-1.3711,-1.3749,-1.383,-1.3944,-1.4069,-1.4178,-1.4309,-1.432,-1.432,-1.432,-1.4488,-1.4619,-1.4673,-1.4841,-1.4967,-1.5037,-1.5037,-1.5037,-1.5037,-1.5037,-1.5037,-1.5037,-1.5037,-1.5037,-1.5037,-1.5037,-1.5064,-1.5124,-1.5124,-1.5162,-1.5222,-1.5276,-1.5502,-1.5678,-1.6627,-1.7569,-1.8039,-1.8751,-1.8972,-1.8972,-1.8972,-1.8972,-1.8972,-1.8972,-1.8972,-1.8972,-1.8972,-1.8972,-1.8972,-1.8972,-1.8972,-1.8972,-1.8972,-1.8972,-1.9006,-1.9081,-1.9094,-1.9115,-1.9183,-1.9203,-1.9217,-1.9305,-1.9257,-1.9203,-1.9203,-1.9203,-1.9203,-1.9203,-1.9203,-1.9237,-1.9305,-1.9305,-1.9345,-1.9434,-1.9434,-1.9468,-1.9535,-1.9535,-1.9569,-1.9664,-1.9664,-1.9664,-1.9664,-1.9664,-1.9664,-1.9664,-1.9664,-1.9664,-1.9664,-1.9664,-1.9664,-1.9664,-1.9664,-1.9664,0.0,0.0,0.0,0.0,0.0,-1.3488,0.0,0.0,0.0,-1.3602,0.0,0.0,0.0,0.0,0.0,0.0,0.0,0.0,0.0,-1.377,0.0,-1.3912,-1.4031,-1.4151,-1.4276,-1.4309,-1.432,-1.432,-1.4548,-1.4673,-1.4673,-1.4912,-1.5037,-1.5037,-1.5037,-1.5037,-1.5037,-1.5037,-1.5037,-1.5037,-1.5037,-1.5053,-1.5081,-1.5081,-1.5135,-1.5249,-1.5249,-1.5304,-1.5391,-1.5418,-1.5434,-1.5657,-1.6596,-1.7299,-1.8008,-1.8728,-1.8959,-1.8959,-1.9203,-1.9203,-1.9203,-1.9203,-1.9203,-1.9203,-1.9203,-1.9203,-1.9203,-1.9203,-1.9203,-1.9203,-1.9203,-1.9203,-1.9203,-1.9237,-1.9257,-1.9257,-1.9291,-1.9291,-1.9325,-1.9447,-1.9481,-1.9434,-1.9305,-1.9291,-1.9291,-1.9291,-1.9291,-1.9345,-1.9468,-1.9481,-1.9522,-1.9644,-1.9664,-1.9664,-1.9664,-1.9664,-1.9664,-1.9664,-1.9664,-1.9664,-1.9664,-1.9664,-1.9664,-1.9664,-1.9664,-1.9664,-1.9664,-1.9664,-1.9664,-1.9664,-1.9664,-1.9664,0.0,0.0,0.0,0.0,-1.3531,0.0,0.0,0.0,-1.3602,-1.3602,0.0,0.0,0.0,0.0,0.0,0.0,0.0,0.0,-1.3673,-1.3716,-1.3792,-1.3803,-1.3906,-1.4026,-1.4151,-1.4249,-1.432,-1.432,-1.4548,-1.4673,-1.4673,-1.4912,-1.5037,-1.5037,-1.5037,-1.5037,-1.5037,-1.5037,-1.5037,-1.5037,-1.5037,-1.5092,-1.5206,-1.5206,-1.526,-1.5374,-1.5374,-1.5374,-1.5401,-1.5505,-1.5559,-1.5543,-1.6152,-1.6351,-1.6578,-1.777,-1.8258,-1.8496,-1.8959,-1.9203,-1.9203,-1.9203,-1.9203,-1.9203,-1.9203,-1.9203,-1.9203,-1.9203,-1.9203,-1.9203,-1.9203,-1.9203,-1.9237,-1.9379,-1.9413,-1.9447,-1.9576,-1.961,-1.961,-1.9624,-1.9644,-1.9624,-1.961,-1.961,-1.961,-1.961,-1.961,-1.961,-1.9624,-1.9644,-1.9644,-1.9664,-1.9664,-1.9664,-1.9664,-1.9664,-1.9664,-1.9664,-1.9664,-1.9664,-1.9664,-1.9664,-1.9664,-1.9664,-1.9664,-1.9664,-1.9664,-1.9664,-1.9664,-1.9664,-1.9664,-1.9664,0.0,0.0,0.0,0.0,0.0,0.0,0.0,0.0,-1.3624,0.0,0.0,0.0,0.0,0.0,0.0,0.0,-1.4151,0.0,0.0,0.0,-1.3787,0.0,0.0,0.0,-1.4222,-1.4292,-1.432,-1.432,-1.4548,-1.4673,-1.4673,-1.4912,-1.5037,-1.5037,-1.5037,-1.5037,-1.5037,-1.5037,-1.5037,-1.5037,-1.5108,-1.5162,-1.5222,-1.5293,-1.5391,-1.5499,-1.5499,-1.5532,-1.5603,-1.5657,-1.5684,-1.5673,-1.5861,-1.6323,-1.6559,-1.7532,-1.8256,-1.849,-1.8738,-1.9213,-1.9468,-1.9468,-1.9468,-1.9468,-1.9468,-1.9468,-1.9468,-1.9468,-1.9468,-1.9468,-1.9468,-1.9468,-1.9488,-1.9556,-1.9569,-1.959,-1.9644,-1.9664,-1.9664,-1.9664,-1.9664,-1.9664,-1.9664,-1.9664,-1.9664,-1.9664,-1.9664,-1.9664,-1.9664,-1.9664,-1.9664,-1.9664,-1.9664,-1.9664,-1.9664,-1.9664,-1.9664,-1.9664,-1.9664,-1.9664,-1.9664,-1.9664,-1.9664,-1.9664,-1.9664,-1.9664,-1.9664,-1.9664,-1.9664,-1.9664,-1.9664,-1.9664,0.0,0.0,0.0,0.0,0.0,0.0,0.0,0.0,0.0,0.0,0.0,0.0,0.0,0.0,0.0,0.0,0.0,-1.4151,0.0,0.0,0.0,0.0,0.0,0.0,0.0,-1.4309,-1.432,-1.432,-1.4548,-1.4673,-1.4673,-1.4912,-1.5037,-1.5037,-1.5037,-1.5037,-1.5037,-1.5037,-1.5053,-1.5092,-1.5179,-1.5249,-1.532,-1.5401,-1.5505,-1.563,-1.563,-1.5673,-1.5755,-1.5755,-1.5755,-1.5755,-1.5755,-1.5994,-1.6477,-1.7221,-1.7709,-1.819,-1.8671,-1.9177,-1.9664,-1.9664,-1.9664,-1.9664,-1.9664,-1.9664,-1.9664,-1.9664,-1.9664,-1.9664,-1.9664,-1.9664,-1.9664,-1.9664,-1.9664,-1.9664,-1.9664,-1.9664,-1.9664,-1.9664,-1.9664,-1.9664,-1.9664,-1.9664,-1.9664,-1.9664,-1.9664,-1.9664,-1.9664,-1.9664,-1.9664,-1.9664,-1.9664,-1.9664,-1.9664,-1.9664,-1.9664,-1.9664,-1.9664,-1.9664,-1.9664,-1.9664,-1.9664,-1.9664,-1.9664,-1.9664,-1.9664,-1.9664,-1.9664,-1.9664,-1.9664,-1.9664,0.0,0.0,0.0,0.0,0.0,0.0,0.0,0.0,-1.3765,0.0,0.0,0.0,0.0,0.0,0.0,0.0,0.0,0.0,0.0,0.0,0.0,0.0,0.0,0.0,0.0,-1.4249,-1.432,-1.432,-1.4548,-1.4673,-1.4673,-1.4912,-1.5037,-1.5037,-1.5037,-1.5037,-1.5037,-1.5037,-1.5092,-1.5222,-1.5222,-1.5331,-1.5559,-1.5559,-1.563,-1.5755,-1.5755,-1.5755,-1.5755,-1.5755,-1.5755,-1.5755,-1.5755,-1.5755,-1.5999,-1.6477,-1.6727,-1.6971,-1.819,-1.9177,-1.9664,-1.9664,-1.9664,-1.9664,-1.9664,-1.9664,-1.9664,-1.9664,-1.9664,-1.9664,-1.9664,-1.9664,-1.9664,-1.9664,-1.9664,-1.9664,-1.9664,-1.9664,-1.9664,-1.9664,-1.9664,-1.9664,-1.9664,-1.9664,-1.9664,-1.9664,-1.9664,-1.9664,-1.9664,-1.9664,-1.9664,-1.9664,-1.9664,-1.9664,-1.9664,-1.9664,-1.9664,-1.9664,-1.9664,-1.9664,-1.9664,-1.9664,-1.9664,-1.9664,-1.9664,-1.9664,-1.9664,-1.9664,-1.9664,-1.9664,-1.9664,-1.9664,0.0,0.0,0.0,0.0,0.0,0.0,0.0,0.0,0.0,0.0,0.0,0.0,0.0,0.0,0.0,0.0,0.0,0.0,0.0,0.0,0.0,0.0,0.0,0.0,0.0,0.0,-1.432,-1.432,-1.4548,-1.4673,-1.4673,-1.4912,-1.5037,-1.5037,-1.5037,-1.5037,-1.5037,-1.5037,-1.5092,-1.5222,-1.5293,-1.5418,-1.557,-1.5657,-1.5711,-1.5755,-1.5755,-1.5755,-1.5755,-1.5755,-1.5755,-1.5755,-1.5755,-1.5755,-1.5755,-1.5988,-1.6244,-1.6971,-1.819,-1.9177,-1.9664,-1.9664,-1.9664,-1.9664,-1.9664,-1.9664,-1.9664,-1.9664,-1.9664,-1.9664,-1.9664,-1.9664,-1.9664,-1.9664,-1.9664,-1.9664,-1.9664,-1.9664,-1.9664,-1.9664,-1.9664,-1.9664,-1.9664,-1.9664,-1.9664,-1.9664,-1.9664,-1.9664,-1.9664,-1.9664,-1.9664,-1.9664,-1.9664,-1.9664,-1.9664,-1.9664,-1.9664,-1.9664,-1.9664,-1.9664,-1.9664,-1.9664,-1.9664,-1.9664,-1.9664,-1.9664,-1.9664,-1.9664,-1.9664,-1.9664,-1.9664,-1.9664,0.0,0.0,0.0,0.0,0.0,0.0,0.0,0.0,0.0,0.0,0.0,0.0,0.0,0.0,0.0,-1.4336,-1.432,0.0,0.0,-1.408,0.0,0.0,0.0,0.0,0.0,0.0,-1.432,-1.432,-1.4504,-1.4629,-1.4673,-1.4869,-1.4994,-1.5037,-1.5037,-1.5037,-1.5037,-1.5081,-1.5162,-1.5276,-1.5401,-1.5516,-1.5641,-1.5711,-1.5755,-1.5755,-1.5755,-1.5755,-1.5755,-1.5755,-1.5755,-1.5755,-1.5755,-1.5755,-1.5755,-1.5755,-1.6244,-1.7209,-1.7947,-1.8927,-1.9664,-1.9664,-1.9664,-1.9664,-1.9664,-1.9664,-1.9678,-1.9712,-1.9698,-1.9678,-1.9732,-1.9698,-1.9664,-1.9664,-1.9664,-1.9664,-1.9664,-1.9664,-1.9664,-1.9664,-1.9664,-1.9664,-1.9664,-1.9664,-1.9664,-1.9664,-1.9664,-1.9664,-1.9664,-1.9664,-1.9664,-1.9664,-1.9664,-1.9664,-1.9664,-1.9664,-1.9664,-1.9664,-1.9664,-1.9664,-1.9664,-1.9664,-1.9664,-1.9664,-1.9664,-1.9664,-1.9664,-1.9664,-1.9664,-1.9664,-1.9664,-1.9664]}]]